<?xml version="1.0" encoding="UTF-8" standalone="no" ?>
<gpx xmlns="http://www.topografix.com/GPX/1/1" xmlns:xsi="http://www.w3.org/2001/XMLSchema-instance" xsi:schemaLocation="http://www.topografix.com/GPX/1/1 http://www.topografix.com/GPX/1/1/gpx.xsd" version="1.1" creator="VisuGPX - https://www.visugpx.com">
  <metadata>
    <name>J3_trace_de_base SO-Bul 2019</name>
  </metadata>
  <trk>
    <name><![CDATA[J3_trace_de_base]]></name>
    <trkseg>
      <trkpt lat="44.67192" lon="5.63821">
        <ele>1457.4</ele>
        <time>2019-09-15T06:54:58Z</time>
      </trkpt>
      <trkpt lat="44.67196" lon="5.63807">
        <ele>1457.2</ele>
        <time>2019-09-15T08:35:31Z</time>
      </trkpt>
      <trkpt lat="44.672" lon="5.63794">
        <ele>1456.9</ele>
        <time>2019-09-15T08:35:46Z</time>
      </trkpt>
      <trkpt lat="44.67206" lon="5.6378">
        <ele>1456.8</ele>
        <time>2019-09-15T08:35:49Z</time>
      </trkpt>
      <trkpt lat="44.67211" lon="5.63769">
        <ele>1456.7</ele>
        <time>2019-09-15T08:35:51Z</time>
      </trkpt>
      <trkpt lat="44.67217" lon="5.63759">
        <ele>1456.6</ele>
        <time>2019-09-15T08:35:53Z</time>
      </trkpt>
      <trkpt lat="44.67227" lon="5.63746">
        <ele>1456.5</ele>
        <time>2019-09-15T08:35:56Z</time>
      </trkpt>
      <trkpt lat="44.67237" lon="5.63734">
        <ele>1456.1</ele>
        <time>2019-09-15T08:35:59Z</time>
      </trkpt>
      <trkpt lat="44.67244" lon="5.63725">
        <ele>1455.7</ele>
        <time>2019-09-15T08:36:01Z</time>
      </trkpt>
      <trkpt lat="44.6725" lon="5.63714">
        <ele>1455.3</ele>
        <time>2019-09-15T08:36:03Z</time>
      </trkpt>
      <trkpt lat="44.67255" lon="5.63704">
        <ele>1455</ele>
        <time>2019-09-15T08:36:05Z</time>
      </trkpt>
      <trkpt lat="44.67261" lon="5.63691">
        <ele>1454.6</ele>
        <time>2019-09-15T08:36:07Z</time>
      </trkpt>
      <trkpt lat="44.67266" lon="5.63677">
        <ele>1454.3</ele>
        <time>2019-09-15T08:36:09Z</time>
      </trkpt>
      <trkpt lat="44.67272" lon="5.63664">
        <ele>1453.8</ele>
        <time>2019-09-15T08:36:11Z</time>
      </trkpt>
      <trkpt lat="44.67277" lon="5.63652">
        <ele>1453.2</ele>
        <time>2019-09-15T08:36:13Z</time>
      </trkpt>
      <trkpt lat="44.67287" lon="5.63641">
        <ele>1452.1</ele>
        <time>2019-09-15T08:36:16Z</time>
      </trkpt>
      <trkpt lat="44.67298" lon="5.63631">
        <ele>1451</ele>
        <time>2019-09-15T08:36:19Z</time>
      </trkpt>
      <trkpt lat="44.67308" lon="5.63621">
        <ele>1449.9</ele>
        <time>2019-09-15T08:36:22Z</time>
      </trkpt>
      <trkpt lat="44.67316" lon="5.63615">
        <ele>1448.2</ele>
        <time>2019-09-15T08:36:26Z</time>
      </trkpt>
      <trkpt lat="44.67325" lon="5.63606">
        <ele>1446.1</ele>
        <time>2019-09-15T08:36:31Z</time>
      </trkpt>
      <trkpt lat="44.67333" lon="5.63596">
        <ele>1444.1</ele>
        <time>2019-09-15T08:36:35Z</time>
      </trkpt>
      <trkpt lat="44.67341" lon="5.63587">
        <ele>1441.7</ele>
        <time>2019-09-15T08:36:39Z</time>
      </trkpt>
      <trkpt lat="44.6735" lon="5.6358">
        <ele>1439</ele>
        <time>2019-09-15T08:36:43Z</time>
      </trkpt>
      <trkpt lat="44.67357" lon="5.63567">
        <ele>1436.3</ele>
        <time>2019-09-15T08:36:47Z</time>
      </trkpt>
      <trkpt lat="44.67361" lon="5.63554">
        <ele>1433</ele>
        <time>2019-09-15T08:36:51Z</time>
      </trkpt>
      <trkpt lat="44.67367" lon="5.63541">
        <ele>1429.3</ele>
        <time>2019-09-15T08:36:56Z</time>
      </trkpt>
      <trkpt lat="44.67374" lon="5.63532">
        <ele>1426.1</ele>
        <time>2019-09-15T08:37:01Z</time>
      </trkpt>
      <trkpt lat="44.67377" lon="5.63519">
        <ele>1423.4</ele>
        <time>2019-09-15T08:37:05Z</time>
      </trkpt>
      <trkpt lat="44.67374" lon="5.63503">
        <ele>1420.4</ele>
        <time>2019-09-15T08:37:10Z</time>
      </trkpt>
      <trkpt lat="44.67373" lon="5.63487">
        <ele>1417.4</ele>
        <time>2019-09-15T08:37:15Z</time>
      </trkpt>
      <trkpt lat="44.6737" lon="5.6347">
        <ele>1415.5</ele>
        <time>2019-09-15T08:37:18Z</time>
      </trkpt>
      <trkpt lat="44.67366" lon="5.63454">
        <ele>1413.4</ele>
        <time>2019-09-15T08:37:21Z</time>
      </trkpt>
      <trkpt lat="44.67363" lon="5.63442">
        <ele>1411.2</ele>
        <time>2019-09-15T08:37:24Z</time>
      </trkpt>
      <trkpt lat="44.67363" lon="5.63426">
        <ele>1408.9</ele>
        <time>2019-09-15T08:37:28Z</time>
      </trkpt>
      <trkpt lat="44.67363" lon="5.63408">
        <ele>1407.5</ele>
        <time>2019-09-15T08:37:31Z</time>
      </trkpt>
      <trkpt lat="44.67361" lon="5.63392">
        <ele>1406.2</ele>
        <time>2019-09-15T08:37:34Z</time>
      </trkpt>
      <trkpt lat="44.67361" lon="5.63378">
        <ele>1404.9</ele>
        <time>2019-09-15T08:37:37Z</time>
      </trkpt>
      <trkpt lat="44.67359" lon="5.63364">
        <ele>1402.9</ele>
        <time>2019-09-15T08:37:41Z</time>
      </trkpt>
      <trkpt lat="44.67357" lon="5.63347">
        <ele>1401.6</ele>
        <time>2019-09-15T08:37:44Z</time>
      </trkpt>
      <trkpt lat="44.67355" lon="5.63335">
        <ele>1400.7</ele>
        <time>2019-09-15T08:37:46Z</time>
      </trkpt>
      <trkpt lat="44.67352" lon="5.63317">
        <ele>1398.8</ele>
        <time>2019-09-15T08:37:49Z</time>
      </trkpt>
      <trkpt lat="44.67351" lon="5.63303">
        <ele>1396.7</ele>
        <time>2019-09-15T08:37:52Z</time>
      </trkpt>
      <trkpt lat="44.67356" lon="5.63292">
        <ele>1390.7</ele>
        <time>2019-09-15T08:38:04Z</time>
      </trkpt>
      <trkpt lat="44.67362" lon="5.63283">
        <ele>1386.1</ele>
        <time>2019-09-15T08:38:28Z</time>
      </trkpt>
      <trkpt lat="44.67358" lon="5.6327">
        <ele>1385.9</ele>
        <time>2019-09-15T08:38:33Z</time>
      </trkpt>
      <trkpt lat="44.67357" lon="5.63255">
        <ele>1385.3</ele>
        <time>2019-09-15T08:38:36Z</time>
      </trkpt>
      <trkpt lat="44.67354" lon="5.63239">
        <ele>1384</ele>
        <time>2019-09-15T08:38:39Z</time>
      </trkpt>
      <trkpt lat="44.67353" lon="5.63221">
        <ele>1382.7</ele>
        <time>2019-09-15T08:38:42Z</time>
      </trkpt>
      <trkpt lat="44.67355" lon="5.63207">
        <ele>1381.6</ele>
        <time>2019-09-15T08:38:44Z</time>
      </trkpt>
      <trkpt lat="44.67357" lon="5.63194">
        <ele>1380.4</ele>
        <time>2019-09-15T08:38:46Z</time>
      </trkpt>
      <trkpt lat="44.67361" lon="5.63182">
        <ele>1378.8</ele>
        <time>2019-09-15T08:38:49Z</time>
      </trkpt>
      <trkpt lat="44.67355" lon="5.63173">
        <ele>1280</ele>
        <time>2019-05-19T12:56:43Z</time>
      </trkpt>
      <trkpt lat="44.67362" lon="5.63112">
        <ele>1260</ele>
        <time>2019-05-19T12:56:53Z</time>
      </trkpt>
      <trkpt lat="44.67436" lon="5.63019">
        <ele>1238</ele>
        <time>2019-05-19T12:57:17Z</time>
      </trkpt>
      <trkpt lat="44.67494" lon="5.63">
        <ele>1241</ele>
        <time>2019-05-19T12:57:30Z</time>
      </trkpt>
      <trkpt lat="44.67515" lon="5.62942">
        <ele>1233</ele>
        <time>2019-05-19T12:57:41Z</time>
      </trkpt>
      <trkpt lat="44.67502" lon="5.62878">
        <ele>1219</ele>
        <time>2019-05-19T12:57:52Z</time>
      </trkpt>
      <trkpt lat="44.67517" lon="5.62788">
        <ele>1211</ele>
        <time>2019-05-19T12:58:08Z</time>
      </trkpt>
      <trkpt lat="44.67541" lon="5.6274">
        <ele>1207</ele>
        <time>2019-05-19T12:58:17Z</time>
      </trkpt>
      <trkpt lat="44.67543" lon="5.6268">
        <ele>1193</ele>
        <time>2019-05-19T12:58:27Z</time>
      </trkpt>
      <trkpt lat="44.67509" lon="5.62631">
        <ele>1174</ele>
        <time>2019-05-19T12:58:39Z</time>
      </trkpt>
      <trkpt lat="44.67508" lon="5.62571">
        <ele>1161</ele>
        <time>2019-05-19T12:58:49Z</time>
      </trkpt>
      <trkpt lat="44.67535" lon="5.62524">
        <ele>1155</ele>
        <time>2019-05-19T12:58:59Z</time>
      </trkpt>
      <trkpt lat="44.67544" lon="5.62457">
        <ele>1146</ele>
        <time>2019-05-19T12:59:10Z</time>
      </trkpt>
      <trkpt lat="44.67569" lon="5.62341">
        <ele>1128</ele>
        <time>2019-05-19T12:59:30Z</time>
      </trkpt>
      <trkpt lat="44.67608" lon="5.62277">
        <ele>1117</ele>
        <time>2019-05-19T12:59:44Z</time>
      </trkpt>
      <trkpt lat="44.67654" lon="5.6224">
        <ele>1113</ele>
        <time>2019-05-19T12:59:57Z</time>
      </trkpt>
      <trkpt lat="44.67662" lon="5.62187">
        <ele>1107</ele>
        <time>2019-05-19T13:00:06Z</time>
      </trkpt>
      <trkpt lat="44.67666" lon="5.62129">
        <ele>1099</ele>
        <time>2019-05-19T13:00:15Z</time>
      </trkpt>
      <trkpt lat="44.67682" lon="5.62073">
        <ele>1091</ele>
        <time>2019-05-19T13:00:25Z</time>
      </trkpt>
      <trkpt lat="44.67686" lon="5.62028">
        <ele>1085</ele>
        <time>2019-05-19T13:00:33Z</time>
      </trkpt>
      <trkpt lat="44.67701" lon="5.61976">
        <ele>1080</ele>
        <time>2019-05-19T13:00:42Z</time>
      </trkpt>
      <trkpt lat="44.677" lon="5.61916">
        <ele>1073</ele>
        <time>2019-05-19T13:00:52Z</time>
      </trkpt>
      <trkpt lat="44.67692" lon="5.61891">
        <ele>1069</ele>
        <time>2019-05-19T13:00:57Z</time>
      </trkpt>
      <trkpt lat="44.67691" lon="5.61852">
        <ele>1064</ele>
        <time>2019-05-19T13:01:03Z</time>
      </trkpt>
      <trkpt lat="44.67703" lon="5.61818">
        <ele>1062</ele>
        <time>2019-05-19T13:01:09Z</time>
      </trkpt>
      <trkpt lat="44.67715" lon="5.61785">
        <ele>1060</ele>
        <time>2019-05-19T13:01:16Z</time>
      </trkpt>
      <trkpt lat="44.67708" lon="5.61765">
        <ele>1057</ele>
        <time>2019-05-19T13:01:19Z</time>
      </trkpt>
      <trkpt lat="44.67704" lon="5.61744">
        <ele>1054</ele>
        <time>2019-05-19T13:01:23Z</time>
      </trkpt>
      <trkpt lat="44.67707" lon="5.6172">
        <ele>1051</ele>
        <time>2019-05-19T13:01:27Z</time>
      </trkpt>
      <trkpt lat="44.67715" lon="5.61696">
        <ele>1050</ele>
        <time>2019-05-19T13:01:31Z</time>
      </trkpt>
      <trkpt lat="44.67708" lon="5.61666">
        <ele>1045</ele>
        <time>2019-05-19T13:01:37Z</time>
      </trkpt>
      <trkpt lat="44.67719" lon="5.61637">
        <ele>1043</ele>
        <time>2019-05-19T13:01:42Z</time>
      </trkpt>
      <trkpt lat="44.67727" lon="5.61603">
        <ele>1040</ele>
        <time>2019-05-19T13:01:48Z</time>
      </trkpt>
      <trkpt lat="44.67728" lon="5.61574">
        <ele>1036</ele>
        <time>2019-05-19T13:01:53Z</time>
      </trkpt>
      <trkpt lat="44.67731" lon="5.61547">
        <ele>1032</ele>
        <time>2019-05-19T13:01:57Z</time>
      </trkpt>
      <trkpt lat="44.67744" lon="5.61532">
        <ele>1031</ele>
        <time>2019-05-19T13:02:01Z</time>
      </trkpt>
      <trkpt lat="44.6777" lon="5.61523">
        <ele>1034</ele>
        <time>2019-05-19T13:02:08Z</time>
      </trkpt>
      <trkpt lat="44.67773" lon="5.61503">
        <ele>1031</ele>
        <time>2019-05-19T13:02:11Z</time>
      </trkpt>
      <trkpt lat="44.67785" lon="5.61484">
        <ele>1030</ele>
        <time>2019-05-19T13:02:15Z</time>
      </trkpt>
      <trkpt lat="44.6782" lon="5.61443">
        <ele>1030</ele>
        <time>2019-05-19T13:02:26Z</time>
      </trkpt>
      <trkpt lat="44.67859" lon="5.61392">
        <ele>1028</ele>
        <time>2019-05-19T13:02:38Z</time>
      </trkpt>
      <trkpt lat="44.6789" lon="5.61343">
        <ele>1025</ele>
        <time>2019-05-19T13:02:49Z</time>
      </trkpt>
      <trkpt lat="44.67912" lon="5.61283">
        <ele>1022</ele>
        <time>2019-05-19T13:03:00Z</time>
      </trkpt>
      <trkpt lat="44.67933" lon="5.61251">
        <ele>1020</ele>
        <time>2019-05-19T13:03:08Z</time>
      </trkpt>
      <trkpt lat="44.67954" lon="5.61225">
        <ele>1017</ele>
        <time>2019-05-19T13:03:14Z</time>
      </trkpt>
      <trkpt lat="44.6797" lon="5.61199">
        <ele>1012</ele>
        <time>2019-05-19T13:03:20Z</time>
      </trkpt>
      <trkpt lat="44.67972" lon="5.61171">
        <ele>1007</ele>
        <time>2019-05-19T13:03:24Z</time>
      </trkpt>
      <trkpt lat="44.67977" lon="5.61149">
        <ele>1003</ele>
        <time>2019-05-19T13:03:28Z</time>
      </trkpt>
      <trkpt lat="44.68" lon="5.61133">
        <ele>1000</ele>
        <time>2019-05-19T13:03:34Z</time>
      </trkpt>
      <trkpt lat="44.68004" lon="5.61117">
        <ele>998</ele>
        <time>2019-05-19T13:03:37Z</time>
      </trkpt>
      <trkpt lat="44.6801" lon="5.61106">
        <ele>997</ele>
        <time>2019-05-19T13:03:39Z</time>
      </trkpt>
      <trkpt lat="44.68038" lon="5.61102">
        <ele>999</ele>
        <time>2019-05-19T13:03:46Z</time>
      </trkpt>
      <trkpt lat="44.68046" lon="5.61081">
        <ele>996</ele>
        <time>2019-05-19T13:03:50Z</time>
      </trkpt>
      <trkpt lat="44.68055" lon="5.61056">
        <ele>992</ele>
        <time>2019-05-19T13:03:55Z</time>
      </trkpt>
      <trkpt lat="44.68082" lon="5.6104">
        <ele>991</ele>
        <time>2019-05-19T13:04:01Z</time>
      </trkpt>
      <trkpt lat="44.68111" lon="5.6102">
        <ele>990</ele>
        <time>2019-05-19T13:04:09Z</time>
      </trkpt>
      <trkpt lat="44.68123" lon="5.61001">
        <ele>987</ele>
        <time>2019-05-19T13:04:13Z</time>
      </trkpt>
      <trkpt lat="44.68148" lon="5.60968">
        <ele>985</ele>
        <time>2019-05-19T13:04:21Z</time>
      </trkpt>
      <trkpt lat="44.68168" lon="5.60939">
        <ele>982</ele>
        <time>2019-05-19T13:04:28Z</time>
      </trkpt>
      <trkpt lat="44.68175" lon="5.6091">
        <ele>979</ele>
        <time>2019-05-19T13:04:33Z</time>
      </trkpt>
      <trkpt lat="44.68181" lon="5.6088">
        <ele>975</ele>
        <time>2019-05-19T13:04:38Z</time>
      </trkpt>
      <trkpt lat="44.68184" lon="5.60849">
        <ele>971</ele>
        <time>2019-05-19T13:04:43Z</time>
      </trkpt>
      <trkpt lat="44.68184" lon="5.60819">
        <ele>967</ele>
        <time>2019-05-19T13:04:48Z</time>
      </trkpt>
      <trkpt lat="44.68187" lon="5.60789">
        <ele>963</ele>
        <time>2019-05-19T13:04:53Z</time>
      </trkpt>
      <trkpt lat="44.68193" lon="5.6076">
        <ele>959</ele>
        <time>2019-05-19T13:04:58Z</time>
      </trkpt>
      <trkpt lat="44.68203" lon="5.60746">
        <ele>958</ele>
        <time>2019-05-19T13:05:02Z</time>
      </trkpt>
      <trkpt lat="44.68229" lon="5.60733">
        <ele>957</ele>
        <time>2019-05-19T13:05:08Z</time>
      </trkpt>
      <trkpt lat="44.68259" lon="5.60707">
        <ele>953</ele>
        <time>2019-05-19T13:05:16Z</time>
      </trkpt>
      <trkpt lat="44.68274" lon="5.60684">
        <ele>949</ele>
        <time>2019-05-19T13:05:22Z</time>
      </trkpt>
      <trkpt lat="44.68282" lon="5.60663">
        <ele>945</ele>
        <time>2019-05-19T13:05:26Z</time>
      </trkpt>
      <trkpt lat="44.68303" lon="5.60654">
        <ele>944</ele>
        <time>2019-05-19T13:05:31Z</time>
      </trkpt>
      <trkpt lat="44.68329" lon="5.60652">
        <ele>944</ele>
        <time>2019-05-19T13:05:37Z</time>
      </trkpt>
      <trkpt lat="44.68343" lon="5.60631">
        <ele>944</ele>
        <time>2019-05-19T13:05:41Z</time>
      </trkpt>
      <trkpt lat="44.68342" lon="5.60616">
        <ele>942</ele>
        <time>2019-05-19T13:05:44Z</time>
      </trkpt>
      <trkpt lat="44.68342" lon="5.60591">
        <ele>939</ele>
        <time>2019-05-19T13:05:48Z</time>
      </trkpt>
      <trkpt lat="44.68347" lon="5.60571">
        <ele>939</ele>
        <time>2019-05-19T13:05:52Z</time>
      </trkpt>
      <trkpt lat="44.68354" lon="5.60554">
        <ele>939</ele>
        <time>2019-05-19T13:05:55Z</time>
      </trkpt>
      <trkpt lat="44.68366" lon="5.60541">
        <ele>940</ele>
        <time>2019-05-19T13:05:58Z</time>
      </trkpt>
      <trkpt lat="44.6838" lon="5.60528">
        <ele>942</ele>
        <time>2019-05-19T13:06:02Z</time>
      </trkpt>
      <trkpt lat="44.68393" lon="5.60506">
        <ele>943</ele>
        <time>2019-05-19T13:06:07Z</time>
      </trkpt>
      <trkpt lat="44.68403" lon="5.60479">
        <ele>941</ele>
        <time>2019-05-19T13:06:12Z</time>
      </trkpt>
      <trkpt lat="44.6841" lon="5.60449">
        <ele>938</ele>
        <time>2019-05-19T13:06:17Z</time>
      </trkpt>
      <trkpt lat="44.68428" lon="5.60424">
        <ele>939</ele>
        <time>2019-05-19T13:06:23Z</time>
      </trkpt>
      <trkpt lat="44.68425" lon="5.60406">
        <ele>935</ele>
        <time>2019-05-19T13:06:26Z</time>
      </trkpt>
      <trkpt lat="44.68429" lon="5.60393">
        <ele>934</ele>
        <time>2019-05-19T13:06:29Z</time>
      </trkpt>
      <trkpt lat="44.68437" lon="5.60374">
        <ele>932</ele>
        <time>2019-05-19T13:06:32Z</time>
      </trkpt>
      <trkpt lat="44.68452" lon="5.6035">
        <ele>930</ele>
        <time>2019-05-19T13:06:38Z</time>
      </trkpt>
      <trkpt lat="44.68478" lon="5.6034">
        <ele>933</ele>
        <time>2019-05-19T13:06:44Z</time>
      </trkpt>
      <trkpt lat="44.68498" lon="5.60333">
        <ele>935</ele>
        <time>2019-05-19T13:06:49Z</time>
      </trkpt>
      <trkpt lat="44.68491" lon="5.60317">
        <ele>931</ele>
        <time>2019-05-19T13:06:52Z</time>
      </trkpt>
      <trkpt lat="44.68484" lon="5.60291">
        <ele>926</ele>
        <time>2019-05-19T13:06:57Z</time>
      </trkpt>
      <trkpt lat="44.68496" lon="5.60266">
        <ele>924</ele>
        <time>2019-05-19T13:07:02Z</time>
      </trkpt>
      <trkpt lat="44.68519" lon="5.60208">
        <ele>921</ele>
        <time>2019-05-19T13:07:13Z</time>
      </trkpt>
      <trkpt lat="44.68542" lon="5.60177">
        <ele>922</ele>
        <time>2019-05-19T13:07:20Z</time>
      </trkpt>
      <trkpt lat="44.68554" lon="5.60151">
        <ele>920</ele>
        <time>2019-05-19T13:07:25Z</time>
      </trkpt>
      <trkpt lat="44.68562" lon="5.60122">
        <ele>917</ele>
        <time>2019-05-19T13:07:30Z</time>
      </trkpt>
      <trkpt lat="44.68579" lon="5.60089">
        <ele>915</ele>
        <time>2019-05-19T13:07:37Z</time>
      </trkpt>
      <trkpt lat="44.68599" lon="5.60061">
        <ele>909</ele>
        <time>2019-05-19T13:07:44Z</time>
      </trkpt>
      <trkpt lat="44.68613" lon="5.6003">
        <ele>902</ele>
        <time>2019-05-19T13:07:50Z</time>
      </trkpt>
      <trkpt lat="44.68616" lon="5.59997">
        <ele>895</ele>
        <time>2019-05-19T13:07:55Z</time>
      </trkpt>
      <trkpt lat="44.68621" lon="5.59968">
        <ele>889</ele>
        <time>2019-05-19T13:08:00Z</time>
      </trkpt>
      <trkpt lat="44.68634" lon="5.59935">
        <ele>884</ele>
        <time>2019-05-19T13:08:07Z</time>
      </trkpt>
      <trkpt lat="44.6864" lon="5.59916">
        <ele>881</ele>
        <time>2019-05-19T13:08:10Z</time>
      </trkpt>
      <trkpt lat="44.68672" lon="5.59911">
        <ele>882</ele>
        <time>2019-05-19T13:08:18Z</time>
      </trkpt>
      <trkpt lat="44.68696" lon="5.59896">
        <ele>880</ele>
        <time>2019-05-19T13:08:24Z</time>
      </trkpt>
      <trkpt lat="44.68715" lon="5.5988">
        <ele>877</ele>
        <time>2019-05-19T13:08:29Z</time>
      </trkpt>
      <trkpt lat="44.68732" lon="5.59877">
        <ele>876</ele>
        <time>2019-05-19T13:08:33Z</time>
      </trkpt>
      <trkpt lat="44.68735" lon="5.59856">
        <ele>874</ele>
        <time>2019-05-19T13:08:36Z</time>
      </trkpt>
      <trkpt lat="44.68747" lon="5.59842">
        <ele>872</ele>
        <time>2019-05-19T13:08:40Z</time>
      </trkpt>
      <trkpt lat="44.68764" lon="5.59825">
        <ele>871</ele>
        <time>2019-05-19T13:08:45Z</time>
      </trkpt>
      <trkpt lat="44.68771" lon="5.5981">
        <ele>870</ele>
        <time>2019-05-19T13:08:48Z</time>
      </trkpt>
      <trkpt lat="44.68781" lon="5.5979">
        <ele>869</ele>
        <time>2019-05-19T13:08:52Z</time>
      </trkpt>
      <trkpt lat="44.68786" lon="5.59778">
        <ele>868</ele>
        <time>2019-05-19T13:08:54Z</time>
      </trkpt>
      <trkpt lat="44.68779" lon="5.59758">
        <ele>866</ele>
        <time>2019-05-19T13:08:58Z</time>
      </trkpt>
      <trkpt lat="44.68773" lon="5.59732">
        <ele>864</ele>
        <time>2019-05-19T13:09:02Z</time>
      </trkpt>
      <trkpt lat="44.68763" lon="5.59706">
        <ele>864</ele>
        <time>2019-05-19T13:09:07Z</time>
      </trkpt>
      <trkpt lat="44.68756" lon="5.5968">
        <ele>864</ele>
        <time>2019-05-19T13:09:12Z</time>
      </trkpt>
      <trkpt lat="44.68762" lon="5.59662">
        <ele>865</ele>
        <time>2019-05-19T13:09:15Z</time>
      </trkpt>
      <trkpt lat="44.6876" lon="5.59644">
        <ele>866</ele>
        <time>2019-05-19T13:09:18Z</time>
      </trkpt>
      <trkpt lat="44.68756" lon="5.59625">
        <ele>868</ele>
        <time>2019-05-19T13:09:22Z</time>
      </trkpt>
      <trkpt lat="44.68747" lon="5.59604">
        <ele>869</ele>
        <time>2019-05-19T13:09:26Z</time>
      </trkpt>
      <trkpt lat="44.68734" lon="5.59574">
        <ele>870</ele>
        <time>2019-05-19T13:09:32Z</time>
      </trkpt>
      <trkpt lat="44.68726" lon="5.59546">
        <ele>874</ele>
        <time>2019-05-19T13:09:37Z</time>
      </trkpt>
      <trkpt lat="44.68724" lon="5.5952">
        <ele>878</ele>
        <time>2019-05-19T13:09:41Z</time>
      </trkpt>
      <trkpt lat="44.68728" lon="5.59496">
        <ele>883</ele>
        <time>2019-05-19T13:09:45Z</time>
      </trkpt>
      <trkpt lat="44.68719" lon="5.59467">
        <ele>888</ele>
        <time>2019-05-19T13:09:50Z</time>
      </trkpt>
      <trkpt lat="44.68712" lon="5.59438">
        <ele>893</ele>
        <time>2019-05-19T13:09:55Z</time>
      </trkpt>
      <trkpt lat="44.68698" lon="5.59419">
        <ele>896</ele>
        <time>2019-05-19T13:10:00Z</time>
      </trkpt>
      <trkpt lat="44.68685" lon="5.59417">
        <ele>894</ele>
        <time>2019-05-19T13:10:03Z</time>
      </trkpt>
      <trkpt lat="44.68674" lon="5.59424">
        <ele>891</ele>
        <time>2019-05-19T13:10:06Z</time>
      </trkpt>
      <trkpt lat="44.6865" lon="5.59424">
        <ele>888</ele>
        <time>2019-05-19T13:10:11Z</time>
      </trkpt>
      <trkpt lat="44.68637" lon="5.59414">
        <ele>889</ele>
        <time>2019-05-19T13:10:15Z</time>
      </trkpt>
      <trkpt lat="44.68615" lon="5.59405">
        <ele>887</ele>
        <time>2019-05-19T13:10:20Z</time>
      </trkpt>
      <trkpt lat="44.68617" lon="5.59394">
        <ele>888</ele>
        <time>2019-05-19T13:10:22Z</time>
      </trkpt>
      <trkpt lat="44.68641" lon="5.5939">
        <ele>891</ele>
        <time>2019-05-19T13:10:28Z</time>
      </trkpt>
      <trkpt lat="44.68646" lon="5.59378">
        <ele>892</ele>
        <time>2019-05-19T13:10:30Z</time>
      </trkpt>
      <trkpt lat="44.68647" lon="5.59361">
        <ele>893</ele>
        <time>2019-05-19T13:10:33Z</time>
      </trkpt>
      <trkpt lat="44.6867" lon="5.59329">
        <ele>900</ele>
        <time>2019-05-19T13:10:40Z</time>
      </trkpt>
      <trkpt lat="44.68698" lon="5.59282">
        <ele>907</ele>
        <time>2019-05-19T13:10:51Z</time>
      </trkpt>
      <trkpt lat="44.68708" lon="5.59256">
        <ele>911</ele>
        <time>2019-05-19T13:10:55Z</time>
      </trkpt>
      <trkpt lat="44.68703" lon="5.59232">
        <ele>908</ele>
        <time>2019-05-19T13:11:00Z</time>
      </trkpt>
      <trkpt lat="44.687" lon="5.59209">
        <ele>907</ele>
        <time>2019-05-19T13:11:04Z</time>
      </trkpt>
      <trkpt lat="44.68703" lon="5.59171">
        <ele>908</ele>
        <time>2019-05-19T13:11:10Z</time>
      </trkpt>
      <trkpt lat="44.68711" lon="5.59139">
        <ele>915</ele>
        <time>2019-05-19T13:11:15Z</time>
      </trkpt>
      <trkpt lat="44.68711" lon="5.59118">
        <ele>918</ele>
        <time>2019-05-19T13:11:19Z</time>
      </trkpt>
      <trkpt lat="44.68708" lon="5.591">
        <ele>919</ele>
        <time>2019-05-19T13:11:22Z</time>
      </trkpt>
      <trkpt lat="44.68695" lon="5.5908">
        <ele>915</ele>
        <time>2019-05-19T13:11:27Z</time>
      </trkpt>
      <trkpt lat="44.68679" lon="5.59046">
        <ele>914</ele>
        <time>2019-05-19T13:11:33Z</time>
      </trkpt>
      <trkpt lat="44.68647" lon="5.59">
        <ele>912</ele>
        <time>2019-05-19T13:11:44Z</time>
      </trkpt>
      <trkpt lat="44.68635" lon="5.58965">
        <ele>906</ele>
        <time>2019-05-19T13:11:50Z</time>
      </trkpt>
      <trkpt lat="44.68628" lon="5.58929">
        <ele>902</ele>
        <time>2019-05-19T13:11:57Z</time>
      </trkpt>
      <trkpt lat="44.6864" lon="5.58919">
        <ele>905</ele>
        <time>2019-05-19T13:12:00Z</time>
      </trkpt>
      <trkpt lat="44.68657" lon="5.58917">
        <ele>909</ele>
        <time>2019-05-19T13:12:04Z</time>
      </trkpt>
      <trkpt lat="44.68702" lon="5.58922">
        <ele>923</ele>
        <time>2019-05-19T13:12:14Z</time>
      </trkpt>
      <trkpt lat="44.68715" lon="5.58906">
        <ele>924</ele>
        <time>2019-05-19T13:12:18Z</time>
      </trkpt>
      <trkpt lat="44.68723" lon="5.58883">
        <ele>922</ele>
        <time>2019-05-19T13:12:23Z</time>
      </trkpt>
      <trkpt lat="44.68732" lon="5.58862">
        <ele>922</ele>
        <time>2019-05-19T13:12:27Z</time>
      </trkpt>
      <trkpt lat="44.68732" lon="5.58835">
        <ele>917</ele>
        <time>2019-05-19T13:12:31Z</time>
      </trkpt>
      <trkpt lat="44.68731" lon="5.58823">
        <ele>913</ele>
        <time>2019-05-19T13:12:33Z</time>
      </trkpt>
      <trkpt lat="44.68724" lon="5.588">
        <ele>903</ele>
        <time>2019-05-19T13:12:37Z</time>
      </trkpt>
      <trkpt lat="44.68715" lon="5.58776">
        <ele>891</ele>
        <time>2019-05-19T13:12:42Z</time>
      </trkpt>
      <trkpt lat="44.68721" lon="5.58765">
        <ele>890</ele>
        <time>2019-05-19T13:12:44Z</time>
      </trkpt>
      <trkpt lat="44.68744" lon="5.58775">
        <ele>905</ele>
        <time>2019-05-19T13:12:50Z</time>
      </trkpt>
      <trkpt lat="44.68762" lon="5.58795">
        <ele>918</ele>
        <time>2019-05-19T13:12:55Z</time>
      </trkpt>
      <trkpt lat="44.68784" lon="5.58791">
        <ele>925</ele>
        <time>2019-05-19T13:13:00Z</time>
      </trkpt>
      <trkpt lat="44.68793" lon="5.5877">
        <ele>923</ele>
        <time>2019-05-19T13:13:04Z</time>
      </trkpt>
      <trkpt lat="44.68799" lon="5.58744">
        <ele>919</ele>
        <time>2019-05-19T13:13:09Z</time>
      </trkpt>
      <trkpt lat="44.68798" lon="5.58719">
        <ele>909</ele>
        <time>2019-05-19T13:13:13Z</time>
      </trkpt>
      <trkpt lat="44.68792" lon="5.58692">
        <ele>896</ele>
        <time>2019-05-19T13:13:18Z</time>
      </trkpt>
      <trkpt lat="44.68809" lon="5.58683">
        <ele>903</ele>
        <time>2019-05-19T13:13:22Z</time>
      </trkpt>
      <trkpt lat="44.6883" lon="5.58686">
        <ele>917</ele>
        <time>2019-05-19T13:13:27Z</time>
      </trkpt>
      <trkpt lat="44.68847" lon="5.58668">
        <ele>916</ele>
        <time>2019-05-19T13:13:32Z</time>
      </trkpt>
      <trkpt lat="44.68857" lon="5.5865">
        <ele>909</ele>
        <time>2019-05-19T13:13:36Z</time>
      </trkpt>
      <trkpt lat="44.68877" lon="5.58632">
        <ele>903</ele>
        <time>2019-05-19T13:13:41Z</time>
      </trkpt>
      <trkpt lat="44.68904" lon="5.58629">
        <ele>905</ele>
        <time>2019-05-19T13:13:48Z</time>
      </trkpt>
      <trkpt lat="44.68926" lon="5.58633">
        <ele>908</ele>
        <time>2019-05-19T13:13:53Z</time>
      </trkpt>
      <trkpt lat="44.68946" lon="5.58634">
        <ele>908</ele>
        <time>2019-05-19T13:13:58Z</time>
      </trkpt>
      <trkpt lat="44.68972" lon="5.58612">
        <ele>901</ele>
        <time>2019-05-19T13:14:05Z</time>
      </trkpt>
      <trkpt lat="44.69004" lon="5.58597">
        <ele>898</ele>
        <time>2019-05-19T13:14:12Z</time>
      </trkpt>
      <trkpt lat="44.69035" lon="5.58604">
        <ele>896</ele>
        <time>2019-05-19T13:14:20Z</time>
      </trkpt>
      <trkpt lat="44.69052" lon="5.58631">
        <ele>900</ele>
        <time>2019-05-19T13:14:26Z</time>
      </trkpt>
      <trkpt lat="44.69068" lon="5.58644">
        <ele>901</ele>
        <time>2019-05-19T13:14:30Z</time>
      </trkpt>
      <trkpt lat="44.69089" lon="5.58657">
        <ele>900</ele>
        <time>2019-05-19T13:14:35Z</time>
      </trkpt>
      <trkpt lat="44.69104" lon="5.58684">
        <ele>903</ele>
        <time>2019-05-19T13:14:41Z</time>
      </trkpt>
      <trkpt lat="44.6914" lon="5.58713">
        <ele>901</ele>
        <time>2019-05-19T13:14:51Z</time>
      </trkpt>
      <trkpt lat="44.69176" lon="5.58742">
        <ele>899</ele>
        <time>2019-05-19T13:15:01Z</time>
      </trkpt>
      <trkpt lat="44.6923" lon="5.58782">
        <ele>895</ele>
        <time>2019-05-19T13:15:15Z</time>
      </trkpt>
      <trkpt lat="44.69276" lon="5.58804">
        <ele>892</ele>
        <time>2019-05-19T13:15:26Z</time>
      </trkpt>
      <trkpt lat="44.69316" lon="5.5881">
        <ele>887</ele>
        <time>2019-05-19T13:15:36Z</time>
      </trkpt>
      <trkpt lat="44.69366" lon="5.58818">
        <ele>885</ele>
        <time>2019-05-19T13:15:47Z</time>
      </trkpt>
      <trkpt lat="44.69394" lon="5.58794">
        <ele>878</ele>
        <time>2019-05-19T13:15:55Z</time>
      </trkpt>
      <trkpt lat="44.69426" lon="5.58773">
        <ele>873</ele>
        <time>2019-05-19T13:16:03Z</time>
      </trkpt>
      <trkpt lat="44.69461" lon="5.58767">
        <ele>873</ele>
        <time>2019-05-19T13:16:11Z</time>
      </trkpt>
      <trkpt lat="44.69501" lon="5.58763">
        <ele>873</ele>
        <time>2019-05-19T13:16:21Z</time>
      </trkpt>
      <trkpt lat="44.69521" lon="5.58745">
        <ele>871</ele>
        <time>2019-05-19T13:16:26Z</time>
      </trkpt>
      <trkpt lat="44.69522" lon="5.5872">
        <ele>865</ele>
        <time>2019-05-19T13:16:30Z</time>
      </trkpt>
      <trkpt lat="44.69526" lon="5.58706">
        <ele>862</ele>
        <time>2019-05-19T13:16:33Z</time>
      </trkpt>
      <trkpt lat="44.69553" lon="5.58689">
        <ele>860</ele>
        <time>2019-05-19T13:16:40Z</time>
      </trkpt>
      <trkpt lat="44.69579" lon="5.58676">
        <ele>859</ele>
        <time>2019-05-19T13:16:46Z</time>
      </trkpt>
      <trkpt lat="44.69579" lon="5.58663">
        <ele>855</ele>
        <time>2019-05-19T13:16:48Z</time>
      </trkpt>
      <trkpt lat="44.69564" lon="5.58667">
        <ele>855</ele>
        <time>2019-05-19T13:16:52Z</time>
      </trkpt>
      <trkpt lat="44.69534" lon="5.58683">
        <ele>857</ele>
        <time>2019-05-19T13:17:00Z</time>
      </trkpt>
      <trkpt lat="44.69512" lon="5.58677">
        <ele>853</ele>
        <time>2019-05-19T13:17:05Z</time>
      </trkpt>
      <trkpt lat="44.6948" lon="5.58669">
        <ele>850</ele>
        <time>2019-05-19T13:17:12Z</time>
      </trkpt>
      <trkpt lat="44.69453" lon="5.58664">
        <ele>849</ele>
        <time>2019-05-19T13:17:19Z</time>
      </trkpt>
      <trkpt lat="44.69437" lon="5.58652">
        <ele>847</ele>
        <time>2019-05-19T13:17:23Z</time>
      </trkpt>
      <trkpt lat="44.69417" lon="5.58639">
        <ele>845</ele>
        <time>2019-05-19T13:17:28Z</time>
      </trkpt>
      <trkpt lat="44.69398" lon="5.58625">
        <ele>844</ele>
        <time>2019-05-19T13:17:33Z</time>
      </trkpt>
      <trkpt lat="44.69386" lon="5.58615">
        <ele>843</ele>
        <time>2019-05-19T13:17:36Z</time>
      </trkpt>
      <trkpt lat="44.69395" lon="5.58603">
        <ele>840</ele>
        <time>2019-05-19T13:17:39Z</time>
      </trkpt>
      <trkpt lat="44.69412" lon="5.58605">
        <ele>840</ele>
        <time>2019-05-19T13:17:43Z</time>
      </trkpt>
      <trkpt lat="44.6943" lon="5.58598">
        <ele>838</ele>
        <time>2019-05-19T13:17:48Z</time>
      </trkpt>
      <trkpt lat="44.69454" lon="5.58593">
        <ele>836</ele>
        <time>2019-05-19T13:17:53Z</time>
      </trkpt>
      <trkpt lat="44.69479" lon="5.58588">
        <ele>833</ele>
        <time>2019-05-19T13:17:59Z</time>
      </trkpt>
      <trkpt lat="44.69505" lon="5.58583">
        <ele>831</ele>
        <time>2019-05-19T13:18:05Z</time>
      </trkpt>
      <trkpt lat="44.69537" lon="5.58579">
        <ele>829</ele>
        <time>2019-05-19T13:18:13Z</time>
      </trkpt>
      <trkpt lat="44.69568" lon="5.58581">
        <ele>830</ele>
        <time>2019-05-19T13:18:20Z</time>
      </trkpt>
      <trkpt lat="44.69589" lon="5.58574">
        <ele>827</ele>
        <time>2019-05-19T13:18:25Z</time>
      </trkpt>
      <trkpt lat="44.69579" lon="5.58566">
        <ele>826</ele>
        <time>2019-05-19T13:18:28Z</time>
      </trkpt>
      <trkpt lat="44.69565" lon="5.58561">
        <ele>825</ele>
        <time>2019-05-19T13:18:31Z</time>
      </trkpt>
      <trkpt lat="44.69541" lon="5.58556">
        <ele>824</ele>
        <time>2019-05-19T13:18:37Z</time>
      </trkpt>
      <trkpt lat="44.69515" lon="5.58547">
        <ele>822</ele>
        <time>2019-05-19T13:18:43Z</time>
      </trkpt>
      <trkpt lat="44.69488" lon="5.58545">
        <ele>823</ele>
        <time>2019-05-19T13:18:49Z</time>
      </trkpt>
      <trkpt lat="44.69473" lon="5.58544">
        <ele>824</ele>
        <time>2019-05-19T13:18:53Z</time>
      </trkpt>
      <trkpt lat="44.69451" lon="5.58528">
        <ele>822</ele>
        <time>2019-05-19T13:18:59Z</time>
      </trkpt>
      <trkpt lat="44.69425" lon="5.58515">
        <ele>821</ele>
        <time>2019-05-19T13:19:05Z</time>
      </trkpt>
      <trkpt lat="44.69411" lon="5.58499">
        <ele>818</ele>
        <time>2019-05-19T13:19:09Z</time>
      </trkpt>
      <trkpt lat="44.69426" lon="5.58496">
        <ele>816</ele>
        <time>2019-05-19T13:19:13Z</time>
      </trkpt>
      <trkpt lat="44.69452" lon="5.58507">
        <ele>817</ele>
        <time>2019-05-19T13:19:19Z</time>
      </trkpt>
      <trkpt lat="44.69489" lon="5.58504">
        <ele>814</ele>
        <time>2019-05-19T13:19:28Z</time>
      </trkpt>
      <trkpt lat="44.69517" lon="5.58495">
        <ele>811</ele>
        <time>2019-05-19T13:19:35Z</time>
      </trkpt>
      <trkpt lat="44.69539" lon="5.58485">
        <ele>808</ele>
        <time>2019-05-19T13:19:40Z</time>
      </trkpt>
      <trkpt lat="44.69522" lon="5.5848">
        <ele>808</ele>
        <time>2019-05-19T13:19:44Z</time>
      </trkpt>
      <trkpt lat="44.69495" lon="5.5848">
        <ele>809</ele>
        <time>2019-05-19T13:19:50Z</time>
      </trkpt>
      <trkpt lat="44.69454" lon="5.58478">
        <ele>811</ele>
        <time>2019-05-19T13:20:00Z</time>
      </trkpt>
      <trkpt lat="44.69429" lon="5.58467">
        <ele>810</ele>
        <time>2019-05-19T13:20:06Z</time>
      </trkpt>
      <trkpt lat="44.69406" lon="5.58441">
        <ele>805</ele>
        <time>2019-05-19T13:20:13Z</time>
      </trkpt>
      <trkpt lat="44.69377" lon="5.58438">
        <ele>807</ele>
        <time>2019-05-19T13:20:20Z</time>
      </trkpt>
      <trkpt lat="44.69365" lon="5.58414">
        <ele>803</ele>
        <time>2019-05-19T13:20:25Z</time>
      </trkpt>
      <trkpt lat="44.69347" lon="5.58383">
        <ele>803</ele>
        <time>2019-05-19T13:20:31Z</time>
      </trkpt>
      <trkpt lat="44.69337" lon="5.58352">
        <ele>801</ele>
        <time>2019-05-19T13:20:37Z</time>
      </trkpt>
      <trkpt lat="44.69316" lon="5.58329">
        <ele>801</ele>
        <time>2019-05-19T13:20:43Z</time>
      </trkpt>
      <trkpt lat="44.69285" lon="5.58306">
        <ele>803</ele>
        <time>2019-05-19T13:20:51Z</time>
      </trkpt>
      <trkpt lat="44.69263" lon="5.58301">
        <ele>801</ele>
        <time>2019-05-19T13:20:56Z</time>
      </trkpt>
      <trkpt lat="44.69228" lon="5.58293">
        <ele>796</ele>
        <time>2019-05-19T13:21:05Z</time>
      </trkpt>
      <trkpt lat="44.69192" lon="5.5828">
        <ele>789</ele>
        <time>2019-05-19T13:21:13Z</time>
      </trkpt>
      <trkpt lat="44.6916" lon="5.58296">
        <ele>789</ele>
        <time>2019-05-19T13:21:21Z</time>
      </trkpt>
      <trkpt lat="44.6912" lon="5.58292">
        <ele>791</ele>
        <time>2019-05-19T13:21:31Z</time>
      </trkpt>
      <trkpt lat="44.69081" lon="5.58258">
        <ele>786</ele>
        <time>2019-05-19T13:21:41Z</time>
      </trkpt>
      <trkpt lat="44.69049" lon="5.58217">
        <ele>791</ele>
        <time>2019-05-19T13:21:52Z</time>
      </trkpt>
      <trkpt lat="44.69021" lon="5.58176">
        <ele>788</ele>
        <time>2019-05-19T13:22:01Z</time>
      </trkpt>
      <trkpt lat="44.69007" lon="5.58132">
        <ele>787</ele>
        <time>2019-05-19T13:22:09Z</time>
      </trkpt>
      <trkpt lat="44.69006" lon="5.5811">
        <ele>788</ele>
        <time>2019-05-19T13:22:13Z</time>
      </trkpt>
      <trkpt lat="44.69004" lon="5.58084">
        <ele>787</ele>
        <time>2019-05-19T13:22:17Z</time>
      </trkpt>
      <trkpt lat="44.69001" lon="5.58071">
        <ele>789</ele>
        <time>2019-05-19T13:22:19Z</time>
      </trkpt>
      <trkpt lat="44.69002" lon="5.58035">
        <ele>802</ele>
        <time>2019-05-19T13:22:25Z</time>
      </trkpt>
      <trkpt lat="44.68993" lon="5.57978">
        <ele>831</ele>
        <time>2019-05-19T13:22:35Z</time>
      </trkpt>
      <trkpt lat="44.68953" lon="5.57956">
        <ele>817</ele>
        <time>2019-05-19T13:22:45Z</time>
      </trkpt>
      <trkpt lat="44.68895" lon="5.57952">
        <ele>786</ele>
        <time>2019-05-19T13:22:59Z</time>
      </trkpt>
      <trkpt lat="44.68877" lon="5.57933">
        <ele>789</ele>
        <time>2019-05-19T13:23:04Z</time>
      </trkpt>
      <trkpt lat="44.68881" lon="5.57857">
        <ele>817</ele>
        <time>2019-05-19T13:23:16Z</time>
      </trkpt>
      <trkpt lat="44.68868" lon="5.57803">
        <ele>845</ele>
        <time>2019-05-19T13:23:26Z</time>
      </trkpt>
      <trkpt lat="44.68814" lon="5.57742">
        <ele>862</ele>
        <time>2019-05-19T13:23:42Z</time>
      </trkpt>
      <trkpt lat="44.68776" lon="5.57643">
        <ele>841</ele>
        <time>2019-05-19T13:24:01Z</time>
      </trkpt>
      <trkpt lat="44.68755" lon="5.57592">
        <ele>816</ele>
        <time>2019-05-19T13:24:11Z</time>
      </trkpt>
      <trkpt lat="44.68721" lon="5.57539">
        <ele>822</ele>
        <time>2019-05-19T13:24:22Z</time>
      </trkpt>
      <trkpt lat="44.68693" lon="5.57522">
        <ele>817</ele>
        <time>2019-05-19T13:24:30Z</time>
      </trkpt>
      <trkpt lat="44.68663" lon="5.57518">
        <ele>808</ele>
        <time>2019-05-19T13:24:37Z</time>
      </trkpt>
      <trkpt lat="44.68574" lon="5.57525">
        <ele>819</ele>
        <time>2019-05-19T13:24:57Z</time>
      </trkpt>
      <trkpt lat="44.68551" lon="5.57513">
        <ele>813</ele>
        <time>2019-05-19T13:25:03Z</time>
      </trkpt>
      <trkpt lat="44.68409" lon="5.57404">
        <ele>768</ele>
        <time>2019-05-19T13:25:41Z</time>
      </trkpt>
      <trkpt lat="44.68365" lon="5.57384">
        <ele>772</ele>
        <time>2019-05-19T13:25:52Z</time>
      </trkpt>
      <trkpt lat="44.68341" lon="5.57375">
        <ele>768</ele>
        <time>2019-05-19T13:25:57Z</time>
      </trkpt>
      <trkpt lat="44.68301" lon="5.57305">
        <ele>774</ele>
        <time>2019-05-19T13:26:12Z</time>
      </trkpt>
      <trkpt lat="44.68271" lon="5.57256">
        <ele>763</ele>
        <time>2019-05-19T13:26:23Z</time>
      </trkpt>
      <trkpt lat="44.6824" lon="5.57204">
        <ele>763</ele>
        <time>2019-05-19T13:26:34Z</time>
      </trkpt>
      <trkpt lat="44.68217" lon="5.57137">
        <ele>768</ele>
        <time>2019-05-19T13:26:47Z</time>
      </trkpt>
      <trkpt lat="44.68209" lon="5.57083">
        <ele>771</ele>
        <time>2019-05-19T13:26:56Z</time>
      </trkpt>
      <trkpt lat="44.68187" lon="5.57054">
        <ele>774</ele>
        <time>2019-05-19T13:27:03Z</time>
      </trkpt>
      <trkpt lat="44.68168" lon="5.57043">
        <ele>770</ele>
        <time>2019-05-19T13:27:08Z</time>
      </trkpt>
      <trkpt lat="44.6811" lon="5.57029">
        <ele>758</ele>
        <time>2019-05-19T13:27:22Z</time>
      </trkpt>
      <trkpt lat="44.68054" lon="5.56946">
        <ele>756</ele>
        <time>2019-05-19T13:27:41Z</time>
      </trkpt>
      <trkpt lat="44.6798" lon="5.56815">
        <ele>750</ele>
        <time>2019-05-19T13:28:08Z</time>
      </trkpt>
      <trkpt lat="44.67948" lon="5.56745">
        <ele>739</ele>
        <time>2019-05-19T13:28:22Z</time>
      </trkpt>
      <trkpt lat="44.67972" lon="5.56776">
        <ele>750</ele>
        <time>2019-05-19T13:28:30Z</time>
      </trkpt>
      <trkpt lat="44.68016" lon="5.56865">
        <ele>757</ele>
        <time>2019-05-19T13:28:48Z</time>
      </trkpt>
      <trkpt lat="44.68055" lon="5.5692">
        <ele>760</ele>
        <time>2019-05-19T13:29:01Z</time>
      </trkpt>
      <trkpt lat="44.68106" lon="5.56952">
        <ele>774</ele>
        <time>2019-05-19T13:29:14Z</time>
      </trkpt>
      <trkpt lat="44.68114" lon="5.57007">
        <ele>757</ele>
        <time>2019-05-19T13:29:23Z</time>
      </trkpt>
      <trkpt lat="44.68168" lon="5.57008">
        <ele>782</ele>
        <time>2019-05-19T13:29:36Z</time>
      </trkpt>
      <trkpt lat="44.68185" lon="5.57034">
        <ele>781</ele>
        <time>2019-05-19T13:29:41Z</time>
      </trkpt>
      <trkpt lat="44.68214" lon="5.57051">
        <ele>786</ele>
        <time>2019-05-19T13:29:49Z</time>
      </trkpt>
      <trkpt lat="44.68229" lon="5.57086">
        <ele>778</ele>
        <time>2019-05-19T13:29:56Z</time>
      </trkpt>
      <trkpt lat="44.68251" lon="5.57102">
        <ele>783</ele>
        <time>2019-05-19T13:30:01Z</time>
      </trkpt>
      <trkpt lat="44.68258" lon="5.57136">
        <ele>781</ele>
        <time>2019-05-19T13:30:07Z</time>
      </trkpt>
      <trkpt lat="44.68269" lon="5.57205">
        <ele>773</ele>
        <time>2019-05-19T13:30:19Z</time>
      </trkpt>
      <trkpt lat="44.68271" lon="5.5717">
        <ele>783</ele>
        <time>2019-05-19T13:30:25Z</time>
      </trkpt>
      <trkpt lat="44.68275" lon="5.57099">
        <ele>801</ele>
        <time>2019-05-19T13:30:37Z</time>
      </trkpt>
      <trkpt lat="44.68254" lon="5.57047">
        <ele>805</ele>
        <time>2019-05-19T13:30:47Z</time>
      </trkpt>
      <trkpt lat="44.68277" lon="5.57066">
        <ele>812</ele>
        <time>2019-05-19T13:30:53Z</time>
      </trkpt>
      <trkpt lat="44.68295" lon="5.57099">
        <ele>815</ele>
        <time>2019-05-19T13:31:00Z</time>
      </trkpt>
      <trkpt lat="44.68298" lon="5.57135">
        <ele>810</ele>
        <time>2019-05-19T13:31:06Z</time>
      </trkpt>
      <trkpt lat="44.68299" lon="5.57169">
        <ele>804</ele>
        <time>2019-05-19T13:31:11Z</time>
      </trkpt>
      <trkpt lat="44.6831" lon="5.57131">
        <ele>820</ele>
        <time>2019-05-19T13:31:18Z</time>
      </trkpt>
      <trkpt lat="44.6831" lon="5.57096">
        <ele>827</ele>
        <time>2019-05-19T13:31:24Z</time>
      </trkpt>
      <trkpt lat="44.68264" lon="5.5698">
        <ele>840</ele>
        <time>2019-05-19T13:31:46Z</time>
      </trkpt>
      <trkpt lat="44.68219" lon="5.56959">
        <ele>832</ele>
        <time>2019-05-19T13:31:57Z</time>
      </trkpt>
      <trkpt lat="44.68186" lon="5.56965">
        <ele>814</ele>
        <time>2019-05-19T13:32:05Z</time>
      </trkpt>
      <trkpt lat="44.6822" lon="5.56941">
        <ele>842</ele>
        <time>2019-05-19T13:32:14Z</time>
      </trkpt>
      <trkpt lat="44.68287" lon="5.56954">
        <ele>860</ele>
        <time>2019-05-19T13:32:30Z</time>
      </trkpt>
      <trkpt lat="44.683" lon="5.56989">
        <ele>852</ele>
        <time>2019-05-19T13:32:36Z</time>
      </trkpt>
      <trkpt lat="44.68325" lon="5.57036">
        <ele>851</ele>
        <time>2019-05-19T13:32:46Z</time>
      </trkpt>
      <trkpt lat="44.68313" lon="5.56976">
        <ele>862</ele>
        <time>2019-05-19T13:32:56Z</time>
      </trkpt>
      <trkpt lat="44.68305" lon="5.56945">
        <ele>870</ele>
        <time>2019-05-19T13:33:02Z</time>
      </trkpt>
      <trkpt lat="44.68293" lon="5.56924">
        <ele>874</ele>
        <time>2019-05-19T13:33:06Z</time>
      </trkpt>
      <trkpt lat="44.68264" lon="5.56908">
        <ele>871</ele>
        <time>2019-05-19T13:33:13Z</time>
      </trkpt>
      <trkpt lat="44.68222" lon="5.56894">
        <ele>862</ele>
        <time>2019-05-19T13:33:24Z</time>
      </trkpt>
      <trkpt lat="44.68219" lon="5.56803">
        <ele>885</ele>
        <time>2019-05-19T13:33:39Z</time>
      </trkpt>
      <trkpt lat="44.6821" lon="5.56787">
        <ele>885</ele>
        <time>2019-05-19T13:33:42Z</time>
      </trkpt>
      <trkpt lat="44.68181" lon="5.56789">
        <ele>875</ele>
        <time>2019-05-19T13:33:49Z</time>
      </trkpt>
      <trkpt lat="44.68179" lon="5.56765">
        <ele>876</ele>
        <time>2019-05-19T13:33:53Z</time>
      </trkpt>
      <trkpt lat="44.68181" lon="5.56713">
        <ele>885</ele>
        <time>2019-05-19T13:34:01Z</time>
      </trkpt>
      <trkpt lat="44.68171" lon="5.56656">
        <ele>890</ele>
        <time>2019-05-19T13:34:11Z</time>
      </trkpt>
      <trkpt lat="44.68152" lon="5.56618">
        <ele>890</ele>
        <time>2019-05-19T13:34:19Z</time>
      </trkpt>
      <trkpt lat="44.68135" lon="5.56576">
        <ele>893</ele>
        <time>2019-05-19T13:34:27Z</time>
      </trkpt>
      <trkpt lat="44.68139" lon="5.56534">
        <ele>901</ele>
        <time>2019-05-19T13:34:34Z</time>
      </trkpt>
      <trkpt lat="44.68145" lon="5.56486">
        <ele>913</ele>
        <time>2019-05-19T13:34:42Z</time>
      </trkpt>
      <trkpt lat="44.68142" lon="5.56458">
        <ele>920</ele>
        <time>2019-05-19T13:34:47Z</time>
      </trkpt>
      <trkpt lat="44.68054" lon="5.56451">
        <ele>895</ele>
        <time>2019-05-19T13:35:07Z</time>
      </trkpt>
      <trkpt lat="44.68033" lon="5.56425">
        <ele>898</ele>
        <time>2019-05-19T13:35:14Z</time>
      </trkpt>
      <trkpt lat="44.68004" lon="5.56368">
        <ele>901</ele>
        <time>2019-05-19T13:35:26Z</time>
      </trkpt>
      <trkpt lat="44.68003" lon="5.56344">
        <ele>905</ele>
        <time>2019-05-19T13:35:30Z</time>
      </trkpt>
      <trkpt lat="44.68007" lon="5.56292">
        <ele>908</ele>
        <time>2019-05-19T13:35:38Z</time>
      </trkpt>
      <trkpt lat="44.68023" lon="5.56237">
        <ele>916</ele>
        <time>2019-05-19T13:35:48Z</time>
      </trkpt>
      <trkpt lat="44.68023" lon="5.56208">
        <ele>914</ele>
        <time>2019-05-19T13:35:53Z</time>
      </trkpt>
      <trkpt lat="44.68014" lon="5.56171">
        <ele>904</ele>
        <time>2019-05-19T13:35:59Z</time>
      </trkpt>
      <trkpt lat="44.6803" lon="5.56069">
        <ele>909</ele>
        <time>2019-05-19T13:36:17Z</time>
      </trkpt>
      <trkpt lat="44.6803" lon="5.56005">
        <ele>905</ele>
        <time>2019-05-19T13:36:27Z</time>
      </trkpt>
      <trkpt lat="44.68038" lon="5.55976">
        <ele>908</ele>
        <time>2019-05-19T13:36:33Z</time>
      </trkpt>
      <trkpt lat="44.6807" lon="5.55945">
        <ele>918</ele>
        <time>2019-05-19T13:36:42Z</time>
      </trkpt>
      <trkpt lat="44.681" lon="5.55929">
        <ele>925</ele>
        <time>2019-05-19T13:36:49Z</time>
      </trkpt>
      <trkpt lat="44.681" lon="5.55914">
        <ele>924</ele>
        <time>2019-05-19T13:36:52Z</time>
      </trkpt>
      <trkpt lat="44.68057" lon="5.5587">
        <ele>931</ele>
        <time>2019-05-19T13:37:04Z</time>
      </trkpt>
      <trkpt lat="44.67994" lon="5.5586">
        <ele>929</ele>
        <time>2019-05-19T13:37:19Z</time>
      </trkpt>
      <trkpt lat="44.67931" lon="5.55901">
        <ele>927</ele>
        <time>2019-05-19T13:37:35Z</time>
      </trkpt>
      <trkpt lat="44.67907" lon="5.55935">
        <ele>919</ele>
        <time>2019-05-19T13:37:43Z</time>
      </trkpt>
      <trkpt lat="44.67891" lon="5.5597">
        <ele>905</ele>
        <time>2019-05-19T13:37:50Z</time>
      </trkpt>
      <trkpt lat="44.67869" lon="5.5599">
        <ele>896</ele>
        <time>2019-05-19T13:37:56Z</time>
      </trkpt>
      <trkpt lat="44.67846" lon="5.55999">
        <ele>893</ele>
        <time>2019-05-19T13:38:02Z</time>
      </trkpt>
      <trkpt lat="44.67821" lon="5.55956">
        <ele>905</ele>
        <time>2019-05-19T13:38:11Z</time>
      </trkpt>
      <trkpt lat="44.67787" lon="5.55934">
        <ele>900</ele>
        <time>2019-05-19T13:38:20Z</time>
      </trkpt>
      <trkpt lat="44.67761" lon="5.55923">
        <ele>894</ele>
        <time>2019-05-19T13:38:26Z</time>
      </trkpt>
      <trkpt lat="44.67756" lon="5.55893">
        <ele>893</ele>
        <time>2019-05-19T13:38:31Z</time>
      </trkpt>
      <trkpt lat="44.67795" lon="5.55783">
        <ele>903</ele>
        <time>2019-05-19T13:38:51Z</time>
      </trkpt>
      <trkpt lat="44.67813" lon="5.55703">
        <ele>901</ele>
        <time>2019-05-19T13:39:05Z</time>
      </trkpt>
      <trkpt lat="44.67845" lon="5.55657">
        <ele>909</ele>
        <time>2019-05-19T13:39:16Z</time>
      </trkpt>
      <trkpt lat="44.67877" lon="5.55567">
        <ele>915</ele>
        <time>2019-05-19T13:39:33Z</time>
      </trkpt>
      <trkpt lat="44.67899" lon="5.55496">
        <ele>923</ele>
        <time>2019-05-19T13:39:46Z</time>
      </trkpt>
      <trkpt lat="44.67895" lon="5.55478">
        <ele>928</ele>
        <time>2019-05-19T13:39:49Z</time>
      </trkpt>
      <trkpt lat="44.67798" lon="5.55501">
        <ele>918</ele>
        <time>2019-05-19T13:40:12Z</time>
      </trkpt>
      <trkpt lat="44.67762" lon="5.55485">
        <ele>930</ele>
        <time>2019-05-19T13:40:21Z</time>
      </trkpt>
      <trkpt lat="44.67613" lon="5.55577">
        <ele>919</ele>
        <time>2019-05-19T13:40:59Z</time>
      </trkpt>
      <trkpt lat="44.67596" lon="5.55585">
        <ele>920</ele>
        <time>2019-05-19T13:41:03Z</time>
      </trkpt>
      <trkpt lat="44.67583" lon="5.55576">
        <ele>922</ele>
        <time>2019-05-19T13:41:06Z</time>
      </trkpt>
      <trkpt lat="44.67583" lon="5.55527">
        <ele>924</ele>
        <time>2019-05-19T13:41:14Z</time>
      </trkpt>
      <trkpt lat="44.67599" lon="5.55393">
        <ele>937</ele>
        <time>2019-05-19T13:41:37Z</time>
      </trkpt>
      <trkpt lat="44.67599" lon="5.55358">
        <ele>945</ele>
        <time>2019-05-19T13:41:43Z</time>
      </trkpt>
      <trkpt lat="44.67592" lon="5.55336">
        <ele>947</ele>
        <time>2019-05-19T13:41:47Z</time>
      </trkpt>
      <trkpt lat="44.67565" lon="5.55333">
        <ele>942</ele>
        <time>2019-05-19T13:41:53Z</time>
      </trkpt>
      <trkpt lat="44.67441" lon="5.5532">
        <ele>933</ele>
        <time>2019-05-19T13:42:22Z</time>
      </trkpt>
      <trkpt lat="44.67425" lon="5.55291">
        <ele>937</ele>
        <time>2019-05-19T13:42:28Z</time>
      </trkpt>
      <trkpt lat="44.67428" lon="5.55228">
        <ele>955</ele>
        <time>2019-05-19T13:42:39Z</time>
      </trkpt>
      <trkpt lat="44.67422" lon="5.55209">
        <ele>960</ele>
        <time>2019-05-19T13:42:42Z</time>
      </trkpt>
      <trkpt lat="44.67315" lon="5.55149">
        <ele>962</ele>
        <time>2019-05-19T13:43:09Z</time>
      </trkpt>
      <trkpt lat="44.67296" lon="5.55119">
        <ele>965</ele>
        <time>2019-05-19T13:43:16Z</time>
      </trkpt>
      <trkpt lat="44.67286" lon="5.5508">
        <ele>971</ele>
        <time>2019-05-19T13:43:22Z</time>
      </trkpt>
      <trkpt lat="44.67273" lon="5.55041">
        <ele>981</ele>
        <time>2019-05-19T13:43:30Z</time>
      </trkpt>
      <trkpt lat="44.67249" lon="5.55018">
        <ele>982</ele>
        <time>2019-05-19T13:43:36Z</time>
      </trkpt>
      <trkpt lat="44.67203" lon="5.5498">
        <ele>984</ele>
        <time>2019-05-19T13:43:49Z</time>
      </trkpt>
      <trkpt lat="44.67162" lon="5.54939">
        <ele>985</ele>
        <time>2019-05-19T13:44:01Z</time>
      </trkpt>
      <trkpt lat="44.67149" lon="5.54907">
        <ele>986</ele>
        <time>2019-05-19T13:44:07Z</time>
      </trkpt>
      <trkpt lat="44.67145" lon="5.54874">
        <ele>986</ele>
        <time>2019-05-19T13:44:12Z</time>
      </trkpt>
      <trkpt lat="44.67154" lon="5.54842">
        <ele>991</ele>
        <time>2019-05-19T13:44:18Z</time>
      </trkpt>
      <trkpt lat="44.67228" lon="5.54738">
        <ele>1005</ele>
        <time>2019-05-19T13:44:42Z</time>
      </trkpt>
      <trkpt lat="44.67242" lon="5.54693">
        <ele>1002</ele>
        <time>2019-05-19T13:44:51Z</time>
      </trkpt>
      <trkpt lat="44.67258" lon="5.54666">
        <ele>1002</ele>
        <time>2019-05-19T13:44:56Z</time>
      </trkpt>
      <trkpt lat="44.6729" lon="5.54656">
        <ele>1006</ele>
        <time>2019-05-19T13:45:04Z</time>
      </trkpt>
      <trkpt lat="44.6733" lon="5.5466">
        <ele>1016</ele>
        <time>2019-05-19T13:45:13Z</time>
      </trkpt>
      <trkpt lat="44.6743" lon="5.54699">
        <ele>1030</ele>
        <time>2019-05-19T13:45:38Z</time>
      </trkpt>
      <trkpt lat="44.67487" lon="5.54702">
        <ele>1035</ele>
        <time>2019-05-19T13:45:51Z</time>
      </trkpt>
      <trkpt lat="44.67528" lon="5.54692">
        <ele>1039</ele>
        <time>2019-05-19T13:46:01Z</time>
      </trkpt>
      <trkpt lat="44.67555" lon="5.54666">
        <ele>1038</ele>
        <time>2019-05-19T13:46:08Z</time>
      </trkpt>
      <trkpt lat="44.67568" lon="5.54642">
        <ele>1037</ele>
        <time>2019-05-19T13:46:13Z</time>
      </trkpt>
      <trkpt lat="44.67586" lon="5.54615">
        <ele>1035</ele>
        <time>2019-05-19T13:46:20Z</time>
      </trkpt>
      <trkpt lat="44.67581" lon="5.54639">
        <ele>1032.6</ele>
      </trkpt>
      <trkpt lat="44.67581" lon="5.54662">
        <ele>1038.8</ele>
      </trkpt>
      <trkpt lat="44.67573" lon="5.54687">
        <ele>1046.2</ele>
      </trkpt>
      <trkpt lat="44.67568" lon="5.54709">
        <ele>1052.7</ele>
      </trkpt>
      <trkpt lat="44.67555" lon="5.54732">
        <ele>1059.1</ele>
      </trkpt>
      <trkpt lat="44.67536" lon="5.54753">
        <ele>1064</ele>
      </trkpt>
      <trkpt lat="44.67515" lon="5.54772">
        <ele>1068.2</ele>
      </trkpt>
      <trkpt lat="44.67495" lon="5.54786">
        <ele>1070.6</ele>
      </trkpt>
      <trkpt lat="44.67473" lon="5.54799">
        <ele>1071.3</ele>
      </trkpt>
      <trkpt lat="44.6745" lon="5.54811">
        <ele>1072.1</ele>
      </trkpt>
      <trkpt lat="44.67431" lon="5.54824">
        <ele>1073.3</ele>
      </trkpt>
      <trkpt lat="44.67422" lon="5.54839">
        <ele>1076</ele>
      </trkpt>
      <trkpt lat="44.67424" lon="5.54866">
        <ele>1078.6</ele>
      </trkpt>
      <trkpt lat="44.67432" lon="5.54891">
        <ele>1081.6</ele>
      </trkpt>
      <trkpt lat="44.67431" lon="5.5489">
        <ele>1073.6</ele>
        <time>2018-05-02T10:02:10Z</time>
      </trkpt>
      <trkpt lat="44.67446" lon="5.54908">
        <ele>1072.8</ele>
        <time>2018-05-02T10:02:31Z</time>
      </trkpt>
      <trkpt lat="44.67462" lon="5.54922">
        <ele>1071.6</ele>
        <time>2018-05-02T10:02:37Z</time>
      </trkpt>
      <trkpt lat="44.6748" lon="5.5493">
        <ele>1071.6</ele>
        <time>2018-05-02T10:02:44Z</time>
      </trkpt>
      <trkpt lat="44.67498" lon="5.54936">
        <ele>1072.6</ele>
        <time>2018-05-02T10:03:20Z</time>
      </trkpt>
      <trkpt lat="44.67516" lon="5.54942">
        <ele>1076.6</ele>
        <time>2018-05-02T10:40:13Z</time>
      </trkpt>
      <trkpt lat="44.67534" lon="5.54951">
        <ele>1076.2</ele>
        <time>2018-05-02T10:40:19Z</time>
      </trkpt>
      <trkpt lat="44.67552" lon="5.5497">
        <ele>1074.9</ele>
        <time>2018-05-02T10:40:24Z</time>
      </trkpt>
      <trkpt lat="44.67565" lon="5.54988">
        <ele>1073.8</ele>
        <time>2018-05-02T10:40:28Z</time>
      </trkpt>
      <trkpt lat="44.67581" lon="5.55006">
        <ele>1073.6</ele>
        <time>2018-05-02T10:40:35Z</time>
      </trkpt>
      <trkpt lat="44.676" lon="5.55009">
        <ele>1074.5</ele>
        <time>2018-05-02T10:40:42Z</time>
      </trkpt>
      <trkpt lat="44.67619" lon="5.55004">
        <ele>1075.3</ele>
        <time>2018-05-02T10:40:49Z</time>
      </trkpt>
      <trkpt lat="44.67637" lon="5.55001">
        <ele>1075.6</ele>
        <time>2018-05-02T10:40:55Z</time>
      </trkpt>
      <trkpt lat="44.67657" lon="5.54998">
        <ele>1074.6</ele>
        <time>2018-05-02T10:41:01Z</time>
      </trkpt>
      <trkpt lat="44.67675" lon="5.54999">
        <ele>1075.2</ele>
        <time>2018-05-02T10:41:08Z</time>
      </trkpt>
      <trkpt lat="44.67694" lon="5.55002">
        <ele>1075.6</ele>
        <time>2018-05-02T10:41:16Z</time>
      </trkpt>
      <trkpt lat="44.67712" lon="5.55011">
        <ele>1076.2</ele>
        <time>2018-05-02T10:41:23Z</time>
      </trkpt>
      <trkpt lat="44.67729" lon="5.55022">
        <ele>1076.6</ele>
        <time>2018-05-02T10:41:29Z</time>
      </trkpt>
      <trkpt lat="44.67746" lon="5.55037">
        <ele>1077.5</ele>
        <time>2018-05-02T10:41:35Z</time>
      </trkpt>
      <trkpt lat="44.67761" lon="5.55056">
        <ele>1076.6</ele>
        <time>2018-05-02T10:41:42Z</time>
      </trkpt>
      <trkpt lat="44.67774" lon="5.55075">
        <ele>1076.6</ele>
        <time>2018-05-02T10:41:48Z</time>
      </trkpt>
      <trkpt lat="44.67783" lon="5.551">
        <ele>1076.6</ele>
        <time>2018-05-02T10:41:54Z</time>
      </trkpt>
      <trkpt lat="44.67795" lon="5.55124">
        <ele>1076.6</ele>
        <time>2018-05-02T10:42:00Z</time>
      </trkpt>
      <trkpt lat="44.67814" lon="5.55128">
        <ele>1079.6</ele>
        <time>2018-05-02T10:43:13Z</time>
      </trkpt>
      <trkpt lat="44.67831" lon="5.55118">
        <ele>1080.8</ele>
        <time>2018-05-02T10:43:22Z</time>
      </trkpt>
      <trkpt lat="44.67848" lon="5.55109">
        <ele>1081.5</ele>
        <time>2018-05-02T10:43:39Z</time>
      </trkpt>
      <trkpt lat="44.67867" lon="5.55097">
        <ele>1081.3</ele>
        <time>2018-05-02T10:43:47Z</time>
      </trkpt>
      <trkpt lat="44.67887" lon="5.5509">
        <ele>1080.6</ele>
        <time>2018-05-02T10:43:53Z</time>
      </trkpt>
      <trkpt lat="44.67909" lon="5.55084">
        <ele>1079.6</ele>
        <time>2018-05-02T10:43:58Z</time>
      </trkpt>
      <trkpt lat="44.67929" lon="5.55081">
        <ele>1078.6</ele>
        <time>2018-05-02T10:44:02Z</time>
      </trkpt>
      <trkpt lat="44.67947" lon="5.55082">
        <ele>1077.6</ele>
        <time>2018-05-02T10:44:06Z</time>
      </trkpt>
      <trkpt lat="44.67964" lon="5.55094">
        <ele>1078.6</ele>
        <time>2018-05-02T10:44:13Z</time>
      </trkpt>
      <trkpt lat="44.67977" lon="5.55111">
        <ele>1079.2</ele>
        <time>2018-05-02T10:44:20Z</time>
      </trkpt>
      <trkpt lat="44.67993" lon="5.55127">
        <ele>1078.6</ele>
        <time>2018-05-02T10:44:27Z</time>
      </trkpt>
      <trkpt lat="44.68009" lon="5.55143">
        <ele>1079.5</ele>
        <time>2018-05-02T10:44:33Z</time>
      </trkpt>
      <trkpt lat="44.68022" lon="5.55162">
        <ele>1078.8</ele>
        <time>2018-05-02T10:45:29Z</time>
      </trkpt>
      <trkpt lat="44.68038" lon="5.55175">
        <ele>1077.6</ele>
        <time>2018-05-02T10:45:34Z</time>
      </trkpt>
      <trkpt lat="44.68059" lon="5.55181">
        <ele>1076.6</ele>
        <time>2018-05-02T10:45:38Z</time>
      </trkpt>
      <trkpt lat="44.6808" lon="5.55185">
        <ele>1076.6</ele>
        <time>2018-05-02T10:45:44Z</time>
      </trkpt>
      <trkpt lat="44.68097" lon="5.55192">
        <ele>1075.6</ele>
        <time>2018-05-02T10:45:51Z</time>
      </trkpt>
      <trkpt lat="44.68117" lon="5.552">
        <ele>1075.6</ele>
        <time>2018-05-02T10:45:58Z</time>
      </trkpt>
      <trkpt lat="44.68134" lon="5.5521">
        <ele>1075.6</ele>
        <time>2018-05-02T10:46:05Z</time>
      </trkpt>
      <trkpt lat="44.68143" lon="5.55232">
        <ele>1076.3</ele>
        <time>2018-05-02T10:46:16Z</time>
      </trkpt>
      <trkpt lat="44.68147" lon="5.5526">
        <ele>1077.5</ele>
        <time>2018-05-02T10:46:25Z</time>
      </trkpt>
      <trkpt lat="44.68158" lon="5.55282">
        <ele>1076.6</ele>
        <time>2018-05-02T10:46:33Z</time>
      </trkpt>
      <trkpt lat="44.68173" lon="5.55299">
        <ele>1074.4</ele>
        <time>2018-05-02T10:46:41Z</time>
      </trkpt>
      <trkpt lat="44.68189" lon="5.55314">
        <ele>1072.6</ele>
        <time>2018-05-02T10:46:48Z</time>
      </trkpt>
      <trkpt lat="44.68207" lon="5.55328">
        <ele>1071.6</ele>
        <time>2018-05-02T10:46:56Z</time>
      </trkpt>
      <trkpt lat="44.68223" lon="5.55344">
        <ele>1072.6</ele>
        <time>2018-05-02T10:47:02Z</time>
      </trkpt>
      <trkpt lat="44.68238" lon="5.55357">
        <ele>1074.5</ele>
        <time>2018-05-02T10:47:11Z</time>
      </trkpt>
      <trkpt lat="44.68241" lon="5.55383">
        <ele>1078.1</ele>
        <time>2018-05-02T10:47:21Z</time>
      </trkpt>
      <trkpt lat="44.68232" lon="5.55408">
        <ele>1081.2</ele>
        <time>2018-05-02T10:47:28Z</time>
      </trkpt>
      <trkpt lat="44.6822" lon="5.55428">
        <ele>1082.5</ele>
        <time>2018-05-02T10:47:33Z</time>
      </trkpt>
      <trkpt lat="44.68208" lon="5.55453">
        <ele>1085.1</ele>
        <time>2018-05-02T10:47:38Z</time>
      </trkpt>
      <trkpt lat="44.68193" lon="5.55472">
        <ele>1083.6</ele>
        <time>2018-05-02T10:47:43Z</time>
      </trkpt>
      <trkpt lat="44.68181" lon="5.55492">
        <ele>1082.8</ele>
        <time>2018-05-02T10:47:48Z</time>
      </trkpt>
      <trkpt lat="44.68167" lon="5.55515">
        <ele>1080.7</ele>
        <time>2018-05-02T10:47:53Z</time>
      </trkpt>
      <trkpt lat="44.68154" lon="5.55538">
        <ele>1077.9</ele>
        <time>2018-05-02T10:47:57Z</time>
      </trkpt>
      <trkpt lat="44.68142" lon="5.55559">
        <ele>1073.9</ele>
        <time>2018-05-02T10:48:04Z</time>
      </trkpt>
      <trkpt lat="44.68143" lon="5.55586">
        <ele>1068</ele>
        <time>2018-05-02T10:48:09Z</time>
      </trkpt>
      <trkpt lat="44.68156" lon="5.55605">
        <ele>1063</ele>
        <time>2018-05-02T10:48:14Z</time>
      </trkpt>
      <trkpt lat="44.6817" lon="5.55626">
        <ele>1058.7</ele>
        <time>2018-05-02T10:48:19Z</time>
      </trkpt>
      <trkpt lat="44.68183" lon="5.55645">
        <ele>1055.9</ele>
        <time>2018-05-02T10:48:24Z</time>
      </trkpt>
      <trkpt lat="44.68197" lon="5.55664">
        <ele>1054.6</ele>
        <time>2018-05-02T10:48:28Z</time>
      </trkpt>
      <trkpt lat="44.68211" lon="5.55683">
        <ele>1053.6</ele>
        <time>2018-05-02T10:48:32Z</time>
      </trkpt>
      <trkpt lat="44.68224" lon="5.55703">
        <ele>1052.6</ele>
        <time>2018-05-02T10:48:36Z</time>
      </trkpt>
      <trkpt lat="44.68239" lon="5.55721">
        <ele>1050.7</ele>
        <time>2018-05-02T10:48:40Z</time>
      </trkpt>
      <trkpt lat="44.68255" lon="5.55738">
        <ele>1048.2</ele>
        <time>2018-05-02T10:48:43Z</time>
      </trkpt>
      <trkpt lat="44.68274" lon="5.55752">
        <ele>1044.9</ele>
        <time>2018-05-02T10:48:48Z</time>
      </trkpt>
      <trkpt lat="44.68294" lon="5.55763">
        <ele>1043.6</ele>
        <time>2018-05-02T10:48:53Z</time>
      </trkpt>
      <trkpt lat="44.68311" lon="5.55777">
        <ele>1041.9</ele>
        <time>2018-05-02T10:48:58Z</time>
      </trkpt>
      <trkpt lat="44.68328" lon="5.55785">
        <ele>1033.6</ele>
        <time>2018-05-02T10:50:21Z</time>
      </trkpt>
      <trkpt lat="44.68346" lon="5.55798">
        <ele>1034.2</ele>
        <time>2018-05-02T10:50:26Z</time>
      </trkpt>
      <trkpt lat="44.68366" lon="5.55813">
        <ele>1035.7</ele>
        <time>2018-05-02T10:50:30Z</time>
      </trkpt>
      <trkpt lat="44.68382" lon="5.55827">
        <ele>1035.6</ele>
        <time>2018-05-02T10:50:40Z</time>
      </trkpt>
      <trkpt lat="44.68377" lon="5.55852">
        <ele>1035.6</ele>
        <time>2018-05-02T10:51:01Z</time>
      </trkpt>
      <trkpt lat="44.6837" lon="5.55877">
        <ele>1037.2</ele>
        <time>2018-05-02T10:51:09Z</time>
      </trkpt>
      <trkpt lat="44.68362" lon="5.559">
        <ele>1038.3</ele>
        <time>2018-05-02T10:51:18Z</time>
      </trkpt>
      <trkpt lat="44.68356" lon="5.55924">
        <ele>1038.6</ele>
        <time>2018-05-02T10:51:30Z</time>
      </trkpt>
      <trkpt lat="44.68354" lon="5.5595">
        <ele>1039.3</ele>
        <time>2018-05-02T10:51:41Z</time>
      </trkpt>
      <trkpt lat="44.68353" lon="5.55976">
        <ele>1040.5</ele>
        <time>2018-05-02T10:51:54Z</time>
      </trkpt>
      <trkpt lat="44.68348" lon="5.56001">
        <ele>1038.6</ele>
        <time>2018-05-02T10:52:07Z</time>
      </trkpt>
      <trkpt lat="44.68344" lon="5.56027">
        <ele>1040.6</ele>
        <time>2018-05-02T10:52:20Z</time>
      </trkpt>
      <trkpt lat="44.68337" lon="5.56052">
        <ele>1041.8</ele>
        <time>2018-05-02T10:52:33Z</time>
      </trkpt>
      <trkpt lat="44.68333" lon="5.56077">
        <ele>1042.6</ele>
        <time>2018-05-02T10:52:54Z</time>
      </trkpt>
      <trkpt lat="44.68346" lon="5.56095">
        <ele>1040.6</ele>
        <time>2018-05-02T10:53:45Z</time>
      </trkpt>
      <trkpt lat="44.6833" lon="5.56108">
        <ele>1034.6</ele>
        <time>2018-05-02T10:54:34Z</time>
      </trkpt>
      <trkpt lat="44.68321" lon="5.56132">
        <ele>1036.2</ele>
        <time>2018-05-02T10:54:48Z</time>
      </trkpt>
      <trkpt lat="44.6831" lon="5.56155">
        <ele>1038.5</ele>
        <time>2018-05-02T10:55:00Z</time>
      </trkpt>
      <trkpt lat="44.683" lon="5.56178">
        <ele>1039.5</ele>
        <time>2018-05-02T10:55:08Z</time>
      </trkpt>
      <trkpt lat="44.68305" lon="5.56202">
        <ele>1046.8</ele>
        <time>2018-05-02T10:56:10Z</time>
      </trkpt>
      <trkpt lat="44.68321" lon="5.56222">
        <ele>1046.6</ele>
        <time>2018-05-02T10:56:17Z</time>
      </trkpt>
      <trkpt lat="44.68332" lon="5.56244">
        <ele>1045.8</ele>
        <time>2018-05-02T10:56:23Z</time>
      </trkpt>
      <trkpt lat="44.68347" lon="5.56259">
        <ele>1046.6</ele>
        <time>2018-05-02T10:56:30Z</time>
      </trkpt>
      <trkpt lat="44.6836" lon="5.56277">
        <ele>1047.2</ele>
        <time>2018-05-02T10:56:36Z</time>
      </trkpt>
      <trkpt lat="44.68375" lon="5.56297">
        <ele>1048.2</ele>
        <time>2018-05-02T10:56:42Z</time>
      </trkpt>
      <trkpt lat="44.68389" lon="5.56319">
        <ele>1049.6</ele>
        <time>2018-05-02T10:56:48Z</time>
      </trkpt>
      <trkpt lat="44.68399" lon="5.56343">
        <ele>1049.6</ele>
        <time>2018-05-02T10:56:56Z</time>
      </trkpt>
      <trkpt lat="44.68403" lon="5.5637">
        <ele>1049.6</ele>
        <time>2018-05-02T10:57:03Z</time>
      </trkpt>
      <trkpt lat="44.6841" lon="5.56394">
        <ele>1052.5</ele>
        <time>2018-05-02T10:57:11Z</time>
      </trkpt>
      <trkpt lat="44.68424" lon="5.56411">
        <ele>1053.6</ele>
        <time>2018-05-02T10:57:21Z</time>
      </trkpt>
      <trkpt lat="44.6844" lon="5.56424">
        <ele>1053.6</ele>
        <time>2018-05-02T10:57:31Z</time>
      </trkpt>
      <trkpt lat="44.68456" lon="5.5644">
        <ele>1055.6</ele>
        <time>2018-05-02T10:57:40Z</time>
      </trkpt>
      <trkpt lat="44.6847" lon="5.56456">
        <ele>1056.5</ele>
        <time>2018-05-02T10:57:48Z</time>
      </trkpt>
      <trkpt lat="44.68483" lon="5.56476">
        <ele>1058.5</ele>
        <time>2018-05-02T10:57:56Z</time>
      </trkpt>
      <trkpt lat="44.68494" lon="5.56498">
        <ele>1059.8</ele>
        <time>2018-05-02T10:58:04Z</time>
      </trkpt>
      <trkpt lat="44.68507" lon="5.56516">
        <ele>1062.5</ele>
        <time>2018-05-02T10:58:13Z</time>
      </trkpt>
      <trkpt lat="44.68527" lon="5.56523">
        <ele>1061.8</ele>
        <time>2018-05-02T10:58:21Z</time>
      </trkpt>
      <trkpt lat="44.68545" lon="5.56525">
        <ele>1059.6</ele>
        <time>2018-05-02T10:58:27Z</time>
      </trkpt>
      <trkpt lat="44.68564" lon="5.56526">
        <ele>1057.9</ele>
        <time>2018-05-02T10:58:31Z</time>
      </trkpt>
      <trkpt lat="44.68582" lon="5.56523">
        <ele>1057.8</ele>
        <time>2018-05-02T10:58:34Z</time>
      </trkpt>
      <trkpt lat="44.68601" lon="5.56518">
        <ele>1057.6</ele>
        <time>2018-05-02T10:58:37Z</time>
      </trkpt>
      <trkpt lat="44.68617" lon="5.56507">
        <ele>1055.9</ele>
        <time>2018-05-02T10:58:40Z</time>
      </trkpt>
      <trkpt lat="44.68631" lon="5.56488">
        <ele>1053.9</ele>
        <time>2018-05-02T10:58:43Z</time>
      </trkpt>
      <trkpt lat="44.68647" lon="5.56466">
        <ele>1052.7</ele>
        <time>2018-05-02T10:58:46Z</time>
      </trkpt>
      <trkpt lat="44.68662" lon="5.56446">
        <ele>1051.6</ele>
        <time>2018-05-02T10:58:49Z</time>
      </trkpt>
      <trkpt lat="44.6868" lon="5.56435">
        <ele>1050.8</ele>
        <time>2018-05-02T10:58:53Z</time>
      </trkpt>
      <trkpt lat="44.68703" lon="5.56443">
        <ele>1050.6</ele>
        <time>2018-05-02T10:58:58Z</time>
      </trkpt>
      <trkpt lat="44.68722" lon="5.56452">
        <ele>1048.9</ele>
        <time>2018-05-02T10:59:02Z</time>
      </trkpt>
      <trkpt lat="44.68741" lon="5.56458">
        <ele>1046.9</ele>
        <time>2018-05-02T10:59:07Z</time>
      </trkpt>
      <trkpt lat="44.68764" lon="5.5645">
        <ele>1042.3</ele>
        <time>2018-05-02T10:59:11Z</time>
      </trkpt>
      <trkpt lat="44.68783" lon="5.56436">
        <ele>1039</ele>
        <time>2018-05-02T10:59:15Z</time>
      </trkpt>
      <trkpt lat="44.68803" lon="5.56437">
        <ele>1035.9</ele>
        <time>2018-05-02T10:59:19Z</time>
      </trkpt>
      <trkpt lat="44.68821" lon="5.56434">
        <ele>1027.6</ele>
        <time>2018-05-02T11:00:18Z</time>
      </trkpt>
      <trkpt lat="44.68841" lon="5.56435">
        <ele>1025</ele>
        <time>2018-05-02T11:00:23Z</time>
      </trkpt>
      <trkpt lat="44.68859" lon="5.56438">
        <ele>1022.9</ele>
        <time>2018-05-02T11:00:27Z</time>
      </trkpt>
      <trkpt lat="44.68873" lon="5.56419">
        <ele>1016.5</ele>
        <time>2018-05-02T11:01:47Z</time>
      </trkpt>
      <trkpt lat="44.68875" lon="5.56393">
        <ele>1014.5</ele>
        <time>2018-05-02T11:01:59Z</time>
      </trkpt>
      <trkpt lat="44.68874" lon="5.56367">
        <ele>1011.9</ele>
        <time>2018-05-02T11:02:08Z</time>
      </trkpt>
      <trkpt lat="44.68874" lon="5.5634">
        <ele>1014.2</ele>
        <time>2018-05-02T11:02:20Z</time>
      </trkpt>
      <trkpt lat="44.68889" lon="5.56325">
        <ele>1019.5</ele>
        <time>2018-05-02T11:02:39Z</time>
      </trkpt>
      <trkpt lat="44.68907" lon="5.56318">
        <ele>1023.5</ele>
        <time>2018-05-02T11:02:51Z</time>
      </trkpt>
      <trkpt lat="44.68919" lon="5.56298">
        <ele>1025.5</ele>
        <time>2018-05-02T11:03:39Z</time>
      </trkpt>
      <trkpt lat="44.68933" lon="5.5628">
        <ele>1026.5</ele>
        <time>2018-05-02T11:03:50Z</time>
      </trkpt>
      <trkpt lat="44.68947" lon="5.5626">
        <ele>1029.2</ele>
        <time>2018-05-02T11:04:01Z</time>
      </trkpt>
      <trkpt lat="44.6896" lon="5.5624">
        <ele>1031.5</ele>
        <time>2018-05-02T11:04:13Z</time>
      </trkpt>
      <trkpt lat="44.6897" lon="5.56218">
        <ele>1033.5</ele>
        <time>2018-05-02T11:04:23Z</time>
      </trkpt>
      <trkpt lat="44.68982" lon="5.56238">
        <ele>1038.2</ele>
        <time>2018-05-02T11:04:43Z</time>
      </trkpt>
      <trkpt lat="44.68993" lon="5.5626">
        <ele>1041.2</ele>
        <time>2018-05-02T11:04:52Z</time>
      </trkpt>
      <trkpt lat="44.69003" lon="5.56283">
        <ele>1040.6</ele>
        <time>2018-05-02T11:05:02Z</time>
      </trkpt>
      <trkpt lat="44.69015" lon="5.56305">
        <ele>1042.4</ele>
        <time>2018-05-02T11:05:13Z</time>
      </trkpt>
      <trkpt lat="44.69029" lon="5.56324">
        <ele>1038.7</ele>
        <time>2018-05-02T11:05:22Z</time>
      </trkpt>
      <trkpt lat="44.69047" lon="5.56333">
        <ele>1034.7</ele>
        <time>2018-05-02T11:05:30Z</time>
      </trkpt>
      <trkpt lat="44.69065" lon="5.56339">
        <ele>1031.6</ele>
        <time>2018-05-02T11:05:39Z</time>
      </trkpt>
      <trkpt lat="44.69084" lon="5.5634">
        <ele>1033.2</ele>
        <time>2018-05-02T11:05:55Z</time>
      </trkpt>
      <trkpt lat="44.69103" lon="5.56335">
        <ele>1036.2</ele>
        <time>2018-05-02T11:06:05Z</time>
      </trkpt>
      <trkpt lat="44.69122" lon="5.56338">
        <ele>1037.6</ele>
        <time>2018-05-02T11:06:15Z</time>
      </trkpt>
      <trkpt lat="44.6914" lon="5.56337">
        <ele>1040.5</ele>
        <time>2018-05-02T11:06:24Z</time>
      </trkpt>
      <trkpt lat="44.69159" lon="5.56335">
        <ele>1043.5</ele>
        <time>2018-05-02T11:06:34Z</time>
      </trkpt>
      <trkpt lat="44.69178" lon="5.56329">
        <ele>1046.5</ele>
        <time>2018-05-02T11:06:50Z</time>
      </trkpt>
      <trkpt lat="44.69198" lon="5.56328">
        <ele>1046.2</ele>
        <time>2018-05-02T11:07:04Z</time>
      </trkpt>
      <trkpt lat="44.69215" lon="5.56317">
        <ele>1046.6</ele>
        <time>2018-05-02T11:07:18Z</time>
      </trkpt>
      <trkpt lat="44.69234" lon="5.56326">
        <ele>1051.2</ele>
        <time>2018-05-02T11:07:30Z</time>
      </trkpt>
      <trkpt lat="44.69254" lon="5.56325">
        <ele>1052.4</ele>
        <time>2018-05-02T11:07:38Z</time>
      </trkpt>
      <trkpt lat="44.69272" lon="5.56321">
        <ele>1052.6</ele>
        <time>2018-05-02T11:07:49Z</time>
      </trkpt>
      <trkpt lat="44.69288" lon="5.56307">
        <ele>1055.2</ele>
        <time>2018-05-02T11:08:07Z</time>
      </trkpt>
      <trkpt lat="44.69298" lon="5.56286">
        <ele>1053.6</ele>
        <time>2018-05-02T11:08:17Z</time>
      </trkpt>
      <trkpt lat="44.69304" lon="5.56261">
        <ele>1059.1</ele>
        <time>2018-05-02T11:08:29Z</time>
      </trkpt>
      <trkpt lat="44.69312" lon="5.56237">
        <ele>1057.6</ele>
        <time>2018-05-02T11:08:45Z</time>
      </trkpt>
      <trkpt lat="44.69322" lon="5.56214">
        <ele>1062.6</ele>
        <time>2018-05-02T11:09:04Z</time>
      </trkpt>
      <trkpt lat="44.69329" lon="5.5619">
        <ele>1066.5</ele>
        <time>2018-05-02T11:09:18Z</time>
      </trkpt>
      <trkpt lat="44.69334" lon="5.56163">
        <ele>1066.6</ele>
        <time>2018-05-02T11:09:27Z</time>
      </trkpt>
      <trkpt lat="44.6934" lon="5.56139">
        <ele>1074.1</ele>
        <time>2018-05-02T11:09:41Z</time>
      </trkpt>
      <trkpt lat="44.69349" lon="5.56162">
        <ele>1073.6</ele>
        <time>2018-05-02T11:10:15Z</time>
      </trkpt>
      <trkpt lat="44.69358" lon="5.56185">
        <ele>1074.5</ele>
        <time>2018-05-02T11:10:23Z</time>
      </trkpt>
      <trkpt lat="44.69371" lon="5.56205">
        <ele>1072.7</ele>
        <time>2018-05-02T11:10:31Z</time>
      </trkpt>
      <trkpt lat="44.69387" lon="5.56222">
        <ele>1076.2</ele>
        <time>2018-05-02T11:10:42Z</time>
      </trkpt>
      <trkpt lat="44.694" lon="5.56242">
        <ele>1078.5</ele>
        <time>2018-05-02T11:10:52Z</time>
      </trkpt>
      <trkpt lat="44.69412" lon="5.56262">
        <ele>1079.6</ele>
        <time>2018-05-02T11:11:02Z</time>
      </trkpt>
      <trkpt lat="44.69424" lon="5.56282">
        <ele>1082.3</ele>
        <time>2018-05-02T11:12:15Z</time>
      </trkpt>
      <trkpt lat="44.69433" lon="5.56307">
        <ele>1081.6</ele>
        <time>2018-05-02T11:12:28Z</time>
      </trkpt>
      <trkpt lat="44.69452" lon="5.56303">
        <ele>1081.6</ele>
        <time>2018-05-02T11:12:38Z</time>
      </trkpt>
      <trkpt lat="44.69471" lon="5.5631">
        <ele>1083.2</ele>
        <time>2018-05-02T11:12:48Z</time>
      </trkpt>
      <trkpt lat="44.69486" lon="5.56323">
        <ele>1084.2</ele>
        <time>2018-05-02T11:12:58Z</time>
      </trkpt>
      <trkpt lat="44.69495" lon="5.56299">
        <ele>1083.6</ele>
        <time>2018-05-02T11:13:10Z</time>
      </trkpt>
      <trkpt lat="44.69507" lon="5.56322">
        <ele>1085.3</ele>
        <time>2018-05-02T11:13:27Z</time>
      </trkpt>
      <trkpt lat="44.69524" lon="5.56334">
        <ele>1086.6</ele>
        <time>2018-05-02T11:13:35Z</time>
      </trkpt>
      <trkpt lat="44.69533" lon="5.56358">
        <ele>1088.2</ele>
        <time>2018-05-02T11:13:44Z</time>
      </trkpt>
      <trkpt lat="44.69542" lon="5.5638">
        <ele>1089.5</ele>
        <time>2018-05-02T11:13:52Z</time>
      </trkpt>
      <trkpt lat="44.69558" lon="5.56363">
        <ele>1091.3</ele>
        <time>2018-05-02T11:14:03Z</time>
      </trkpt>
      <trkpt lat="44.69574" lon="5.56351">
        <ele>1093.3</ele>
        <time>2018-05-02T11:14:16Z</time>
      </trkpt>
      <trkpt lat="44.69589" lon="5.56334">
        <ele>1094.6</ele>
        <time>2018-05-02T11:14:24Z</time>
      </trkpt>
      <trkpt lat="44.696" lon="5.56313">
        <ele>1096.5</ele>
        <time>2018-05-02T11:14:33Z</time>
      </trkpt>
      <trkpt lat="44.69619" lon="5.56312">
        <ele>1100.4</ele>
        <time>2018-05-02T11:14:42Z</time>
      </trkpt>
      <trkpt lat="44.69638" lon="5.56308">
        <ele>1102.5</ele>
        <time>2018-05-02T11:14:49Z</time>
      </trkpt>
      <trkpt lat="44.69657" lon="5.56302">
        <ele>1101.6</ele>
        <time>2018-05-02T11:14:56Z</time>
      </trkpt>
      <trkpt lat="44.69673" lon="5.56285">
        <ele>1103.2</ele>
        <time>2018-05-02T11:15:03Z</time>
      </trkpt>
      <trkpt lat="44.69691" lon="5.56284">
        <ele>1102.6</ele>
        <time>2018-05-02T11:15:13Z</time>
      </trkpt>
      <trkpt lat="44.6971" lon="5.56293">
        <ele>1104.5</ele>
        <time>2018-05-02T11:15:24Z</time>
      </trkpt>
      <trkpt lat="44.69723" lon="5.56314">
        <ele>1107.2</ele>
        <time>2018-05-02T11:15:31Z</time>
      </trkpt>
      <trkpt lat="44.69741" lon="5.56326">
        <ele>1106.8</ele>
        <time>2018-05-02T11:15:38Z</time>
      </trkpt>
      <trkpt lat="44.69759" lon="5.56334">
        <ele>1106.6</ele>
        <time>2018-05-02T11:15:45Z</time>
      </trkpt>
      <trkpt lat="44.69779" lon="5.56335">
        <ele>1105.5</ele>
        <time>2018-05-02T11:15:51Z</time>
      </trkpt>
      <trkpt lat="44.69793" lon="5.56316">
        <ele>1106.2</ele>
        <time>2018-05-02T11:15:59Z</time>
      </trkpt>
      <trkpt lat="44.69808" lon="5.56297">
        <ele>1107.3</ele>
        <time>2018-05-02T11:16:08Z</time>
      </trkpt>
      <trkpt lat="44.69823" lon="5.56284">
        <ele>1108.6</ele>
        <time>2018-05-02T11:16:15Z</time>
      </trkpt>
      <trkpt lat="44.69838" lon="5.56263">
        <ele>1108.5</ele>
        <time>2018-05-02T11:16:23Z</time>
      </trkpt>
      <trkpt lat="44.69851" lon="5.56242">
        <ele>1108.6</ele>
        <time>2018-05-02T11:16:30Z</time>
      </trkpt>
      <trkpt lat="44.69865" lon="5.56222">
        <ele>1109.5</ele>
        <time>2018-05-02T11:16:37Z</time>
      </trkpt>
      <trkpt lat="44.69878" lon="5.56201">
        <ele>1110.6</ele>
        <time>2018-05-02T11:16:44Z</time>
      </trkpt>
      <trkpt lat="44.69888" lon="5.5618">
        <ele>1113.4</ele>
        <time>2018-05-02T11:16:51Z</time>
      </trkpt>
      <trkpt lat="44.69898" lon="5.56159">
        <ele>1116.5</ele>
        <time>2018-05-02T11:16:59Z</time>
      </trkpt>
      <trkpt lat="44.69909" lon="5.56134">
        <ele>1118.5</ele>
        <time>2018-05-02T11:17:07Z</time>
      </trkpt>
      <trkpt lat="44.6992" lon="5.56112">
        <ele>1118.6</ele>
        <time>2018-05-02T11:17:14Z</time>
      </trkpt>
      <trkpt lat="44.69933" lon="5.56092">
        <ele>1119.5</ele>
        <time>2018-05-02T11:17:22Z</time>
      </trkpt>
      <trkpt lat="44.6995" lon="5.56082">
        <ele>1123.5</ele>
        <time>2018-05-02T11:17:31Z</time>
      </trkpt>
      <trkpt lat="44.69969" lon="5.56079">
        <ele>1126.5</ele>
        <time>2018-05-02T11:17:39Z</time>
      </trkpt>
      <trkpt lat="44.69987" lon="5.56089">
        <ele>1128.6</ele>
        <time>2018-05-02T11:18:51Z</time>
      </trkpt>
      <trkpt lat="44.69993" lon="5.56115">
        <ele>1127.6</ele>
        <time>2018-05-02T11:19:01Z</time>
      </trkpt>
      <trkpt lat="44.69998" lon="5.56143">
        <ele>1127.6</ele>
        <time>2018-05-02T11:19:09Z</time>
      </trkpt>
      <trkpt lat="44.7" lon="5.56171">
        <ele>1126.6</ele>
        <time>2018-05-02T11:19:17Z</time>
      </trkpt>
      <trkpt lat="44.70005" lon="5.56196">
        <ele>1126.6</ele>
        <time>2018-05-02T11:19:24Z</time>
      </trkpt>
      <trkpt lat="44.70012" lon="5.56224">
        <ele>1127.5</ele>
        <time>2018-05-02T11:19:31Z</time>
      </trkpt>
      <trkpt lat="44.70022" lon="5.56246">
        <ele>1127.3</ele>
        <time>2018-05-02T11:19:36Z</time>
      </trkpt>
      <trkpt lat="44.70033" lon="5.5627">
        <ele>1126.8</ele>
        <time>2018-05-02T11:19:42Z</time>
      </trkpt>
      <trkpt lat="44.70042" lon="5.56295">
        <ele>1125.6</ele>
        <time>2018-05-02T11:19:48Z</time>
      </trkpt>
      <trkpt lat="44.70047" lon="5.56321">
        <ele>1127.2</ele>
        <time>2018-05-02T11:19:53Z</time>
      </trkpt>
      <trkpt lat="44.70052" lon="5.56347">
        <ele>1129.2</ele>
        <time>2018-05-02T11:19:58Z</time>
      </trkpt>
      <trkpt lat="44.70056" lon="5.56377">
        <ele>1130.5</ele>
        <time>2018-05-02T11:20:03Z</time>
      </trkpt>
      <trkpt lat="44.70057" lon="5.56406">
        <ele>1129.6</ele>
        <time>2018-05-02T11:20:08Z</time>
      </trkpt>
      <trkpt lat="44.70057" lon="5.56436">
        <ele>1130.5</ele>
        <time>2018-05-02T11:20:14Z</time>
      </trkpt>
      <trkpt lat="44.70055" lon="5.56462">
        <ele>1131.5</ele>
        <time>2018-05-02T11:20:19Z</time>
      </trkpt>
      <trkpt lat="44.7006" lon="5.56488">
        <ele>1129.9</ele>
        <time>2018-05-02T11:20:23Z</time>
      </trkpt>
      <trkpt lat="44.70067" lon="5.56518">
        <ele>1126.9</ele>
        <time>2018-05-02T11:20:28Z</time>
      </trkpt>
      <trkpt lat="44.70076" lon="5.56543">
        <ele>1127.2</ele>
        <time>2018-05-02T11:20:34Z</time>
      </trkpt>
      <trkpt lat="44.7009" lon="5.56563">
        <ele>1126.6</ele>
        <time>2018-05-02T11:20:40Z</time>
      </trkpt>
      <trkpt lat="44.70106" lon="5.56578">
        <ele>1126.6</ele>
        <time>2018-05-02T11:20:46Z</time>
      </trkpt>
      <trkpt lat="44.70122" lon="5.56596">
        <ele>1127.2</ele>
        <time>2018-05-02T11:20:50Z</time>
      </trkpt>
      <trkpt lat="44.70143" lon="5.566">
        <ele>1128.5</ele>
        <time>2018-05-02T11:20:56Z</time>
      </trkpt>
      <trkpt lat="44.70162" lon="5.56589">
        <ele>1128.6</ele>
        <time>2018-05-02T11:21:02Z</time>
      </trkpt>
      <trkpt lat="44.7018" lon="5.56576">
        <ele>1129.6</ele>
        <time>2018-05-02T11:21:08Z</time>
      </trkpt>
      <trkpt lat="44.70197" lon="5.56567">
        <ele>1129.6</ele>
        <time>2018-05-02T11:21:14Z</time>
      </trkpt>
      <trkpt lat="44.70217" lon="5.5656">
        <ele>1130.5</ele>
        <time>2018-05-02T11:21:20Z</time>
      </trkpt>
      <trkpt lat="44.70235" lon="5.56553">
        <ele>1130.6</ele>
        <time>2018-05-02T11:21:25Z</time>
      </trkpt>
      <trkpt lat="44.70253" lon="5.56542">
        <ele>1129.6</ele>
        <time>2018-05-02T11:21:30Z</time>
      </trkpt>
      <trkpt lat="44.70271" lon="5.56533">
        <ele>1130.6</ele>
        <time>2018-05-02T11:21:35Z</time>
      </trkpt>
      <trkpt lat="44.7029" lon="5.5653">
        <ele>1131.5</ele>
        <time>2018-05-02T11:21:40Z</time>
      </trkpt>
      <trkpt lat="44.703" lon="5.56556">
        <ele>1131.6</ele>
        <time>2018-05-02T11:21:51Z</time>
      </trkpt>
      <trkpt lat="44.70302" lon="5.56581">
        <ele>1133.6</ele>
        <time>2018-05-02T11:22:43Z</time>
      </trkpt>
      <trkpt lat="44.70298" lon="5.56606">
        <ele>1134.6</ele>
        <time>2018-05-02T11:22:50Z</time>
      </trkpt>
      <trkpt lat="44.70292" lon="5.56631">
        <ele>1134.3</ele>
        <time>2018-05-02T11:22:58Z</time>
      </trkpt>
      <trkpt lat="44.70284" lon="5.56656">
        <ele>1134.6</ele>
        <time>2018-05-02T11:23:42Z</time>
      </trkpt>
      <trkpt lat="44.70277" lon="5.5668">
        <ele>1134.5</ele>
        <time>2018-05-02T11:23:49Z</time>
      </trkpt>
      <trkpt lat="44.70271" lon="5.56704">
        <ele>1135.2</ele>
        <time>2018-05-02T11:23:55Z</time>
      </trkpt>
      <trkpt lat="44.70266" lon="5.56729">
        <ele>1134.6</ele>
        <time>2018-05-02T11:24:01Z</time>
      </trkpt>
      <trkpt lat="44.7026" lon="5.56753">
        <ele>1134.6</ele>
        <time>2018-05-02T11:24:07Z</time>
      </trkpt>
      <trkpt lat="44.70253" lon="5.56777">
        <ele>1133.8</ele>
        <time>2018-05-02T11:24:13Z</time>
      </trkpt>
      <trkpt lat="44.70241" lon="5.56797">
        <ele>1133.6</ele>
        <time>2018-05-02T11:24:19Z</time>
      </trkpt>
      <trkpt lat="44.70224" lon="5.56812">
        <ele>1135.5</ele>
        <time>2018-05-02T11:24:26Z</time>
      </trkpt>
      <trkpt lat="44.70207" lon="5.56823">
        <ele>1134.6</ele>
        <time>2018-05-02T11:24:31Z</time>
      </trkpt>
      <trkpt lat="44.70194" lon="5.56841">
        <ele>1134.5</ele>
        <time>2018-05-02T11:24:36Z</time>
      </trkpt>
      <trkpt lat="44.70185" lon="5.56864">
        <ele>1134.6</ele>
        <time>2018-05-02T11:24:41Z</time>
      </trkpt>
      <trkpt lat="44.70169" lon="5.56882">
        <ele>1135.5</ele>
        <time>2018-05-02T11:24:47Z</time>
      </trkpt>
      <trkpt lat="44.7015" lon="5.56886">
        <ele>1136.5</ele>
        <time>2018-05-02T11:24:52Z</time>
      </trkpt>
      <trkpt lat="44.70132" lon="5.56889">
        <ele>1137.5</ele>
        <time>2018-05-02T11:24:59Z</time>
      </trkpt>
      <trkpt lat="44.70113" lon="5.569">
        <ele>1137.6</ele>
        <time>2018-05-02T11:25:07Z</time>
      </trkpt>
      <trkpt lat="44.70097" lon="5.56913">
        <ele>1137.5</ele>
        <time>2018-05-02T11:25:13Z</time>
      </trkpt>
      <trkpt lat="44.70085" lon="5.56932">
        <ele>1138.5</ele>
        <time>2018-05-02T11:25:20Z</time>
      </trkpt>
      <trkpt lat="44.70076" lon="5.56956">
        <ele>1139.6</ele>
        <time>2018-05-02T11:25:29Z</time>
      </trkpt>
      <trkpt lat="44.70068" lon="5.5698">
        <ele>1141.5</ele>
        <time>2018-05-02T11:25:36Z</time>
      </trkpt>
      <trkpt lat="44.7006" lon="5.57004">
        <ele>1142.5</ele>
        <time>2018-05-02T11:25:43Z</time>
      </trkpt>
      <trkpt lat="44.70054" lon="5.57029">
        <ele>1143.5</ele>
        <time>2018-05-02T11:25:49Z</time>
      </trkpt>
      <trkpt lat="44.70047" lon="5.57054">
        <ele>1144.5</ele>
        <time>2018-05-02T11:25:55Z</time>
      </trkpt>
      <trkpt lat="44.70041" lon="5.57081">
        <ele>1145.6</ele>
        <time>2018-05-02T11:26:02Z</time>
      </trkpt>
      <trkpt lat="44.70026" lon="5.57103">
        <ele>1146.5</ele>
        <time>2018-05-02T11:26:09Z</time>
      </trkpt>
      <trkpt lat="44.70011" lon="5.57121">
        <ele>1146.6</ele>
        <time>2018-05-02T11:26:16Z</time>
      </trkpt>
      <trkpt lat="44.69997" lon="5.57138">
        <ele>1148.5</ele>
        <time>2018-05-02T11:26:23Z</time>
      </trkpt>
      <trkpt lat="44.70016" lon="5.5714">
        <ele>1155.2</ele>
        <time>2018-05-02T11:26:35Z</time>
      </trkpt>
      <trkpt lat="44.70032" lon="5.57129">
        <ele>1156.5</ele>
        <time>2018-05-02T11:26:42Z</time>
      </trkpt>
      <trkpt lat="44.70047" lon="5.57112">
        <ele>1158.5</ele>
        <time>2018-05-02T11:26:50Z</time>
      </trkpt>
      <trkpt lat="44.7006" lon="5.5709">
        <ele>1160.5</ele>
        <time>2018-05-02T11:26:58Z</time>
      </trkpt>
      <trkpt lat="44.70068" lon="5.57065">
        <ele>1162.2</ele>
        <time>2018-05-02T11:27:06Z</time>
      </trkpt>
      <trkpt lat="44.70078" lon="5.57043">
        <ele>1162.6</ele>
        <time>2018-05-02T11:27:14Z</time>
      </trkpt>
      <trkpt lat="44.70087" lon="5.57018">
        <ele>1164.6</ele>
        <time>2018-05-02T11:27:22Z</time>
      </trkpt>
      <trkpt lat="44.701" lon="5.56996">
        <ele>1165.6</ele>
        <time>2018-05-02T11:27:30Z</time>
      </trkpt>
      <trkpt lat="44.70112" lon="5.56974">
        <ele>1166.6</ele>
        <time>2018-05-02T11:27:38Z</time>
      </trkpt>
      <trkpt lat="44.70127" lon="5.56959">
        <ele>1167.6</ele>
        <time>2018-05-02T11:27:46Z</time>
      </trkpt>
      <trkpt lat="44.70145" lon="5.56955">
        <ele>1167.6</ele>
        <time>2018-05-02T11:27:53Z</time>
      </trkpt>
      <trkpt lat="44.70165" lon="5.56956">
        <ele>1169.2</ele>
        <time>2018-05-02T11:28:00Z</time>
      </trkpt>
      <trkpt lat="44.70184" lon="5.56958">
        <ele>1169.6</ele>
        <time>2018-05-02T11:28:09Z</time>
      </trkpt>
      <trkpt lat="44.70201" lon="5.56951">
        <ele>1169.6</ele>
        <time>2018-05-02T11:28:16Z</time>
      </trkpt>
      <trkpt lat="44.7022" lon="5.56942">
        <ele>1171.6</ele>
        <time>2018-05-02T11:28:23Z</time>
      </trkpt>
      <trkpt lat="44.70233" lon="5.56921">
        <ele>1172.5</ele>
        <time>2018-05-02T11:28:31Z</time>
      </trkpt>
      <trkpt lat="44.70248" lon="5.56903">
        <ele>1173.3</ele>
        <time>2018-05-02T11:28:40Z</time>
      </trkpt>
      <trkpt lat="44.70266" lon="5.56898">
        <ele>1173.6</ele>
        <time>2018-05-02T11:28:49Z</time>
      </trkpt>
      <trkpt lat="44.70281" lon="5.56884">
        <ele>1174.6</ele>
        <time>2018-05-02T11:28:57Z</time>
      </trkpt>
      <trkpt lat="44.70293" lon="5.56865">
        <ele>1175.6</ele>
        <time>2018-05-02T11:29:04Z</time>
      </trkpt>
      <trkpt lat="44.70307" lon="5.56846">
        <ele>1177.4</ele>
        <time>2018-05-02T11:29:12Z</time>
      </trkpt>
      <trkpt lat="44.70321" lon="5.56829">
        <ele>1177.6</ele>
        <time>2018-05-02T11:29:20Z</time>
      </trkpt>
      <trkpt lat="44.70333" lon="5.56811">
        <ele>1178.6</ele>
        <time>2018-05-02T11:29:28Z</time>
      </trkpt>
      <trkpt lat="44.70341" lon="5.56787">
        <ele>1180.5</ele>
        <time>2018-05-02T11:29:36Z</time>
      </trkpt>
      <trkpt lat="44.70351" lon="5.56764">
        <ele>1182.5</ele>
        <time>2018-05-02T11:29:44Z</time>
      </trkpt>
      <trkpt lat="44.70362" lon="5.56742">
        <ele>1185.4</ele>
        <time>2018-05-02T11:29:52Z</time>
      </trkpt>
      <trkpt lat="44.70378" lon="5.56728">
        <ele>1185.8</ele>
        <time>2018-05-02T11:30:02Z</time>
      </trkpt>
      <trkpt lat="44.70396" lon="5.56717">
        <ele>1187.5</ele>
        <time>2018-05-02T11:30:13Z</time>
      </trkpt>
      <trkpt lat="44.70413" lon="5.56704">
        <ele>1188.5</ele>
        <time>2018-05-02T11:30:21Z</time>
      </trkpt>
      <trkpt lat="44.70423" lon="5.56682">
        <ele>1189.2</ele>
        <time>2018-05-02T11:30:30Z</time>
      </trkpt>
      <trkpt lat="44.7043" lon="5.56657">
        <ele>1192.5</ele>
        <time>2018-05-02T11:30:38Z</time>
      </trkpt>
      <trkpt lat="44.70439" lon="5.56632">
        <ele>1195.5</ele>
        <time>2018-05-02T11:30:46Z</time>
      </trkpt>
      <trkpt lat="44.70448" lon="5.5661">
        <ele>1197.2</ele>
        <time>2018-05-02T11:30:54Z</time>
      </trkpt>
      <trkpt lat="44.70462" lon="5.56591">
        <ele>1197.6</ele>
        <time>2018-05-02T11:31:03Z</time>
      </trkpt>
      <trkpt lat="44.70478" lon="5.56579">
        <ele>1199.5</ele>
        <time>2018-05-02T11:31:14Z</time>
      </trkpt>
      <trkpt lat="44.70497" lon="5.5657">
        <ele>1201.5</ele>
        <time>2018-05-02T11:31:24Z</time>
      </trkpt>
      <trkpt lat="44.70513" lon="5.56559">
        <ele>1203.2</ele>
        <time>2018-05-02T11:31:33Z</time>
      </trkpt>
      <trkpt lat="44.70531" lon="5.5655">
        <ele>1207.2</ele>
        <time>2018-05-02T11:31:43Z</time>
      </trkpt>
      <trkpt lat="44.70551" lon="5.56538">
        <ele>1208.5</ele>
        <time>2018-05-02T11:31:53Z</time>
      </trkpt>
      <trkpt lat="44.70569" lon="5.56527">
        <ele>1211.5</ele>
        <time>2018-05-02T11:32:02Z</time>
      </trkpt>
      <trkpt lat="44.70586" lon="5.56513">
        <ele>1213.6</ele>
        <time>2018-05-02T11:32:11Z</time>
      </trkpt>
      <trkpt lat="44.70602" lon="5.56496">
        <ele>1215.6</ele>
        <time>2018-05-02T11:32:20Z</time>
      </trkpt>
      <trkpt lat="44.70617" lon="5.56481">
        <ele>1216.5</ele>
        <time>2018-05-02T11:32:29Z</time>
      </trkpt>
      <trkpt lat="44.70636" lon="5.56469">
        <ele>1221.2</ele>
        <time>2018-05-02T11:32:38Z</time>
      </trkpt>
      <trkpt lat="44.70653" lon="5.56458">
        <ele>1223.5</ele>
        <time>2018-05-02T11:32:48Z</time>
      </trkpt>
      <trkpt lat="44.70669" lon="5.56445">
        <ele>1225.5</ele>
        <time>2018-05-02T11:32:55Z</time>
      </trkpt>
      <trkpt lat="44.70685" lon="5.5643">
        <ele>1226.6</ele>
        <time>2018-05-02T11:33:03Z</time>
      </trkpt>
      <trkpt lat="44.70701" lon="5.56417">
        <ele>1230.2</ele>
        <time>2018-05-02T11:33:11Z</time>
      </trkpt>
      <trkpt lat="44.70714" lon="5.56398">
        <ele>1232.5</ele>
        <time>2018-05-02T11:33:21Z</time>
      </trkpt>
      <trkpt lat="44.70696" lon="5.56393">
        <ele>1234.6</ele>
        <time>2018-05-02T11:33:34Z</time>
      </trkpt>
      <trkpt lat="44.70676" lon="5.56387">
        <ele>1235.6</ele>
        <time>2018-05-02T11:33:42Z</time>
      </trkpt>
      <trkpt lat="44.70657" lon="5.5638">
        <ele>1234.8</ele>
        <time>2018-05-02T11:33:51Z</time>
      </trkpt>
      <trkpt lat="44.70639" lon="5.56374">
        <ele>1235.6</ele>
        <time>2018-05-02T11:33:58Z</time>
      </trkpt>
      <trkpt lat="44.7062" lon="5.56368">
        <ele>1235.3</ele>
        <time>2018-05-02T11:34:08Z</time>
      </trkpt>
      <trkpt lat="44.70604" lon="5.56359">
        <ele>1234.6</ele>
        <time>2018-05-02T11:34:17Z</time>
      </trkpt>
      <trkpt lat="44.70589" lon="5.56344">
        <ele>1234.6</ele>
        <time>2018-05-02T11:34:28Z</time>
      </trkpt>
      <trkpt lat="44.70572" lon="5.56332">
        <ele>1235.6</ele>
        <time>2018-05-02T11:34:40Z</time>
      </trkpt>
      <trkpt lat="44.70558" lon="5.56315">
        <ele>1235.6</ele>
        <time>2018-05-02T11:34:50Z</time>
      </trkpt>
      <trkpt lat="44.70543" lon="5.56298">
        <ele>1235.6</ele>
        <time>2018-05-02T11:35:00Z</time>
      </trkpt>
      <trkpt lat="44.70528" lon="5.56281">
        <ele>1236.2</ele>
        <time>2018-05-02T11:35:09Z</time>
      </trkpt>
      <trkpt lat="44.70511" lon="5.56271">
        <ele>1251.2</ele>
        <time>2018-05-02T11:35:59Z</time>
      </trkpt>
      <trkpt lat="44.70501" lon="5.56248">
        <ele>1256.1</ele>
        <time>2018-05-02T11:36:06Z</time>
      </trkpt>
      <trkpt lat="44.70488" lon="5.56229">
        <ele>1258.5</ele>
        <time>2018-05-02T11:36:14Z</time>
      </trkpt>
      <trkpt lat="44.70471" lon="5.56217">
        <ele>1260.2</ele>
        <time>2018-05-02T11:36:23Z</time>
      </trkpt>
      <trkpt lat="44.70455" lon="5.56202">
        <ele>1259.6</ele>
        <time>2018-05-02T11:36:33Z</time>
      </trkpt>
      <trkpt lat="44.70442" lon="5.56185">
        <ele>1262.2</ele>
        <time>2018-05-02T11:36:41Z</time>
      </trkpt>
      <trkpt lat="44.70426" lon="5.56166">
        <ele>1265.4</ele>
        <time>2018-05-02T11:36:48Z</time>
      </trkpt>
      <trkpt lat="44.70415" lon="5.56144">
        <ele>1267.6</ele>
        <time>2018-05-02T11:36:56Z</time>
      </trkpt>
      <trkpt lat="44.70395" lon="5.5615">
        <ele>1268.6</ele>
        <time>2018-05-02T11:37:05Z</time>
      </trkpt>
      <trkpt lat="44.70377" lon="5.56163">
        <ele>1270.2</ele>
        <time>2018-05-02T11:37:12Z</time>
      </trkpt>
      <trkpt lat="44.70359" lon="5.56176">
        <ele>1271.6</ele>
        <time>2018-05-02T11:37:20Z</time>
      </trkpt>
      <trkpt lat="44.70343" lon="5.56191">
        <ele>1273.5</ele>
        <time>2018-05-02T11:37:28Z</time>
      </trkpt>
      <trkpt lat="44.70325" lon="5.56201">
        <ele>1274.6</ele>
        <time>2018-05-02T11:37:35Z</time>
      </trkpt>
      <trkpt lat="44.70306" lon="5.56202">
        <ele>1273.6</ele>
        <time>2018-05-02T11:37:43Z</time>
      </trkpt>
      <trkpt lat="44.70287" lon="5.56205">
        <ele>1274.2</ele>
        <time>2018-05-02T11:37:50Z</time>
      </trkpt>
      <trkpt lat="44.70273" lon="5.56186">
        <ele>1278.1</ele>
        <time>2018-05-02T11:37:57Z</time>
      </trkpt>
      <trkpt lat="44.70267" lon="5.5616">
        <ele>1282.4</ele>
        <time>2018-05-02T11:38:04Z</time>
      </trkpt>
      <trkpt lat="44.70263" lon="5.56135">
        <ele>1284.5</ele>
        <time>2018-05-02T11:38:13Z</time>
      </trkpt>
      <trkpt lat="44.70259" lon="5.56109">
        <ele>1287.2</ele>
        <time>2018-05-02T11:38:21Z</time>
      </trkpt>
      <trkpt lat="44.70255" lon="5.56083">
        <ele>1289.5</ele>
        <time>2018-05-02T11:38:29Z</time>
      </trkpt>
      <trkpt lat="44.70253" lon="5.56057">
        <ele>1288.6</ele>
        <time>2018-05-02T11:38:37Z</time>
      </trkpt>
      <trkpt lat="44.70248" lon="5.56029">
        <ele>1289.2</ele>
        <time>2018-05-02T11:38:45Z</time>
      </trkpt>
      <trkpt lat="44.70242" lon="5.56005">
        <ele>1291.2</ele>
        <time>2018-05-02T11:38:52Z</time>
      </trkpt>
      <trkpt lat="44.70238" lon="5.55978">
        <ele>1292.6</ele>
        <time>2018-05-02T11:39:00Z</time>
      </trkpt>
      <trkpt lat="44.70231" lon="5.55952">
        <ele>1295.2</ele>
        <time>2018-05-02T11:39:07Z</time>
      </trkpt>
      <trkpt lat="44.70223" lon="5.55926">
        <ele>1296.5</ele>
        <time>2018-05-02T11:39:14Z</time>
      </trkpt>
      <trkpt lat="44.70219" lon="5.55899">
        <ele>1298.5</ele>
        <time>2018-05-02T11:39:22Z</time>
      </trkpt>
      <trkpt lat="44.70214" lon="5.55871">
        <ele>1300.2</ele>
        <time>2018-05-02T11:39:30Z</time>
      </trkpt>
      <trkpt lat="44.70212" lon="5.55843">
        <ele>1302.2</ele>
        <time>2018-05-02T11:39:38Z</time>
      </trkpt>
      <trkpt lat="44.70212" lon="5.55814">
        <ele>1303.5</ele>
        <time>2018-05-02T11:39:46Z</time>
      </trkpt>
      <trkpt lat="44.7021" lon="5.55788">
        <ele>1306.2</ele>
        <time>2018-05-02T11:39:53Z</time>
      </trkpt>
      <trkpt lat="44.70205" lon="5.55762">
        <ele>1307.8</ele>
        <time>2018-05-02T11:40:00Z</time>
      </trkpt>
      <trkpt lat="44.70198" lon="5.55738">
        <ele>1309.2</ele>
        <time>2018-05-02T11:40:06Z</time>
      </trkpt>
      <trkpt lat="44.70187" lon="5.55713">
        <ele>1309.6</ele>
        <time>2018-05-02T11:40:14Z</time>
      </trkpt>
      <trkpt lat="44.70177" lon="5.55689">
        <ele>1310.5</ele>
        <time>2018-05-02T11:40:22Z</time>
      </trkpt>
      <trkpt lat="44.70165" lon="5.55669">
        <ele>1312.2</ele>
        <time>2018-05-02T11:40:29Z</time>
      </trkpt>
      <trkpt lat="44.70153" lon="5.5565">
        <ele>1310.9</ele>
        <time>2018-05-02T11:40:37Z</time>
      </trkpt>
      <trkpt lat="44.70135" lon="5.55642">
        <ele>1310.6</ele>
        <time>2018-05-02T11:40:44Z</time>
      </trkpt>
      <trkpt lat="44.70117" lon="5.55638">
        <ele>1314.9</ele>
        <time>2018-05-02T11:41:01Z</time>
      </trkpt>
      <trkpt lat="44.70097" lon="5.55638">
        <ele>1316.2</ele>
        <time>2018-05-02T11:42:12Z</time>
      </trkpt>
      <trkpt lat="44.70077" lon="5.55638">
        <ele>1315.6</ele>
        <time>2018-05-02T11:42:19Z</time>
      </trkpt>
      <trkpt lat="44.70061" lon="5.55627">
        <ele>1315.2</ele>
        <time>2018-05-02T11:42:27Z</time>
      </trkpt>
      <trkpt lat="44.70046" lon="5.55607">
        <ele>1316.5</ele>
        <time>2018-05-02T11:42:35Z</time>
      </trkpt>
      <trkpt lat="44.70028" lon="5.55601">
        <ele>1317.2</ele>
        <time>2018-05-02T11:42:44Z</time>
      </trkpt>
      <trkpt lat="44.70014" lon="5.55582">
        <ele>1319.2</ele>
        <time>2018-05-02T11:42:51Z</time>
      </trkpt>
      <trkpt lat="44.70004" lon="5.55557">
        <ele>1320.6</ele>
        <time>2018-05-02T11:42:57Z</time>
      </trkpt>
      <trkpt lat="44.7" lon="5.5553">
        <ele>1320.8</ele>
        <time>2018-05-02T11:43:05Z</time>
      </trkpt>
      <trkpt lat="44.69999" lon="5.55503">
        <ele>1320.6</ele>
        <time>2018-05-02T11:43:12Z</time>
      </trkpt>
      <trkpt lat="44.69997" lon="5.55476">
        <ele>1319.8</ele>
        <time>2018-05-02T11:43:20Z</time>
      </trkpt>
      <trkpt lat="44.69991" lon="5.55451">
        <ele>1319.8</ele>
        <time>2018-05-02T11:43:28Z</time>
      </trkpt>
      <trkpt lat="44.69995" lon="5.55426">
        <ele>1319.6</ele>
        <time>2018-05-02T11:43:54Z</time>
      </trkpt>
      <trkpt lat="44.69977" lon="5.55419">
        <ele>1321.5</ele>
        <time>2018-05-02T11:51:37Z</time>
      </trkpt>
      <trkpt lat="44.69972" lon="5.55392">
        <ele>1320.9</ele>
        <time>2018-05-02T11:51:42Z</time>
      </trkpt>
      <trkpt lat="44.69965" lon="5.55365">
        <ele>1319.7</ele>
        <time>2018-05-02T11:51:45Z</time>
      </trkpt>
      <trkpt lat="44.6996" lon="5.55333">
        <ele>1318.6</ele>
        <time>2018-05-02T11:51:48Z</time>
      </trkpt>
      <trkpt lat="44.69956" lon="5.55299">
        <ele>1316.7</ele>
        <time>2018-05-02T11:51:51Z</time>
      </trkpt>
      <trkpt lat="44.69955" lon="5.55261">
        <ele>1314.9</ele>
        <time>2018-05-02T11:51:54Z</time>
      </trkpt>
      <trkpt lat="44.69957" lon="5.55236">
        <ele>1313</ele>
        <time>2018-05-02T11:51:56Z</time>
      </trkpt>
      <trkpt lat="44.69958" lon="5.55204">
        <ele>1310.9</ele>
        <time>2018-05-02T11:51:59Z</time>
      </trkpt>
      <trkpt lat="44.6994" lon="5.55186">
        <ele>1305.9</ele>
        <time>2018-05-02T11:52:03Z</time>
      </trkpt>
      <trkpt lat="44.69919" lon="5.55174">
        <ele>1303.9</ele>
        <time>2018-05-02T11:52:07Z</time>
      </trkpt>
      <trkpt lat="44.69905" lon="5.55153">
        <ele>1302.7</ele>
        <time>2018-05-02T11:52:09Z</time>
      </trkpt>
      <trkpt lat="44.699" lon="5.55126">
        <ele>1300.9</ele>
        <time>2018-05-02T11:52:11Z</time>
      </trkpt>
      <trkpt lat="44.69901" lon="5.55099">
        <ele>1299</ele>
        <time>2018-05-02T11:52:13Z</time>
      </trkpt>
      <trkpt lat="44.69908" lon="5.55074">
        <ele>1297.7</ele>
        <time>2018-05-02T11:52:15Z</time>
      </trkpt>
      <trkpt lat="44.69905" lon="5.55045">
        <ele>1295</ele>
        <time>2018-05-02T11:52:18Z</time>
      </trkpt>
      <trkpt lat="44.69887" lon="5.55022">
        <ele>1292.7</ele>
        <time>2018-05-02T11:52:21Z</time>
      </trkpt>
      <trkpt lat="44.69873" lon="5.55004">
        <ele>1291.7</ele>
        <time>2018-05-02T11:52:23Z</time>
      </trkpt>
      <trkpt lat="44.69862" lon="5.54982">
        <ele>1289.9</ele>
        <time>2018-05-02T11:52:25Z</time>
      </trkpt>
      <trkpt lat="44.69847" lon="5.54955">
        <ele>1288.7</ele>
        <time>2018-05-02T11:52:28Z</time>
      </trkpt>
      <trkpt lat="44.69832" lon="5.54935">
        <ele>1286.7</ele>
        <time>2018-05-02T11:52:31Z</time>
      </trkpt>
      <trkpt lat="44.69823" lon="5.54907">
        <ele>1284.9</ele>
        <time>2018-05-02T11:52:34Z</time>
      </trkpt>
      <trkpt lat="44.69833" lon="5.54877">
        <ele>1283.7</ele>
        <time>2018-05-02T11:52:37Z</time>
      </trkpt>
      <trkpt lat="44.69851" lon="5.54851">
        <ele>1280.3</ele>
        <time>2018-05-02T11:52:40Z</time>
      </trkpt>
      <trkpt lat="44.69867" lon="5.54826">
        <ele>1274.5</ele>
        <time>2018-05-02T11:52:43Z</time>
      </trkpt>
      <trkpt lat="44.69873" lon="5.54794">
        <ele>1271</ele>
        <time>2018-05-02T11:52:46Z</time>
      </trkpt>
      <trkpt lat="44.69879" lon="5.54769">
        <ele>1269.9</ele>
        <time>2018-05-02T11:52:48Z</time>
      </trkpt>
      <trkpt lat="44.69885" lon="5.54744">
        <ele>1268.9</ele>
        <time>2018-05-02T11:52:50Z</time>
      </trkpt>
      <trkpt lat="44.69891" lon="5.5472">
        <ele>1266.1</ele>
        <time>2018-05-02T11:52:52Z</time>
      </trkpt>
      <trkpt lat="44.69905" lon="5.54688">
        <ele>1263</ele>
        <time>2018-05-02T11:52:55Z</time>
      </trkpt>
      <trkpt lat="44.69925" lon="5.54662">
        <ele>1260.2</ele>
        <time>2018-05-02T11:52:58Z</time>
      </trkpt>
      <trkpt lat="44.69937" lon="5.54642">
        <ele>1256.4</ele>
        <time>2018-05-02T11:53:00Z</time>
      </trkpt>
      <trkpt lat="44.69946" lon="5.54609">
        <ele>1253</ele>
        <time>2018-05-02T11:53:03Z</time>
      </trkpt>
      <trkpt lat="44.69943" lon="5.54641">
        <ele>1243.8</ele>
        <time>2018-05-02T11:54:04Z</time>
      </trkpt>
      <trkpt lat="44.69936" lon="5.54665">
        <ele>1242.9</ele>
        <time>2018-05-02T11:54:07Z</time>
      </trkpt>
      <trkpt lat="44.69925" lon="5.54689">
        <ele>1242.6</ele>
        <time>2018-05-02T11:54:10Z</time>
      </trkpt>
      <trkpt lat="44.69914" lon="5.54713">
        <ele>1240.7</ele>
        <time>2018-05-02T11:54:13Z</time>
      </trkpt>
      <trkpt lat="44.69938" lon="5.54705">
        <ele>1235.6</ele>
        <time>2018-05-02T11:54:26Z</time>
      </trkpt>
      <trkpt lat="44.69956" lon="5.5469">
        <ele>1234.8</ele>
        <time>2018-05-02T11:54:29Z</time>
      </trkpt>
      <trkpt lat="44.69973" lon="5.54671">
        <ele>1232.9</ele>
        <time>2018-05-02T11:54:32Z</time>
      </trkpt>
      <trkpt lat="44.6999" lon="5.54651">
        <ele>1230.9</ele>
        <time>2018-05-02T11:54:36Z</time>
      </trkpt>
      <trkpt lat="44.69992" lon="5.54626">
        <ele>1221.2</ele>
        <time>2018-05-02T11:56:06Z</time>
      </trkpt>
      <trkpt lat="44.70001" lon="5.54603">
        <ele>1214.6</ele>
        <time>2018-05-02T11:56:48Z</time>
      </trkpt>
      <trkpt lat="44.70007" lon="5.54577">
        <ele>1213.8</ele>
        <time>2018-05-02T11:56:54Z</time>
      </trkpt>
      <trkpt lat="44.70005" lon="5.54552">
        <ele>1211.9</ele>
        <time>2018-05-02T11:56:58Z</time>
      </trkpt>
      <trkpt lat="44.69993" lon="5.54525">
        <ele>1206.3</ele>
        <time>2018-05-02T11:57:03Z</time>
      </trkpt>
      <trkpt lat="44.6998" lon="5.54503">
        <ele>1202</ele>
        <time>2018-05-02T11:57:07Z</time>
      </trkpt>
      <trkpt lat="44.69985" lon="5.54478">
        <ele>1197.8</ele>
        <time>2018-05-02T11:57:19Z</time>
      </trkpt>
      <trkpt lat="44.69968" lon="5.54456">
        <ele>1194.2</ele>
        <time>2018-05-02T11:57:24Z</time>
      </trkpt>
      <trkpt lat="44.69954" lon="5.54433">
        <ele>1191</ele>
        <time>2018-05-02T11:57:28Z</time>
      </trkpt>
      <trkpt lat="44.69946" lon="5.54408">
        <ele>1186.1</ele>
        <time>2018-05-02T11:57:32Z</time>
      </trkpt>
      <trkpt lat="44.6993" lon="5.54392">
        <ele>1171.9</ele>
        <time>2018-05-02T11:58:46Z</time>
      </trkpt>
      <trkpt lat="44.69928" lon="5.54365">
        <ele>1165.9</ele>
        <time>2018-05-02T11:58:58Z</time>
      </trkpt>
      <trkpt lat="44.69913" lon="5.54345">
        <ele>1146.9</ele>
        <time>2018-05-02T12:01:50Z</time>
      </trkpt>
      <trkpt lat="44.69906" lon="5.5432">
        <ele>1144.9</ele>
        <time>2018-05-02T12:01:54Z</time>
      </trkpt>
      <trkpt lat="44.69898" lon="5.54295">
        <ele>1143.6</ele>
        <time>2018-05-02T12:01:58Z</time>
      </trkpt>
      <trkpt lat="44.69889" lon="5.54268">
        <ele>1141</ele>
        <time>2018-05-02T12:02:01Z</time>
      </trkpt>
      <trkpt lat="44.69878" lon="5.5424">
        <ele>1138.9</ele>
        <time>2018-05-02T12:02:04Z</time>
      </trkpt>
      <trkpt lat="44.69871" lon="5.54215">
        <ele>1136.9</ele>
        <time>2018-05-02T12:02:07Z</time>
      </trkpt>
      <trkpt lat="44.69863" lon="5.54191">
        <ele>1133.9</ele>
        <time>2018-05-02T12:02:11Z</time>
      </trkpt>
      <trkpt lat="44.69847" lon="5.54174">
        <ele>1130</ele>
        <time>2018-05-02T12:02:16Z</time>
      </trkpt>
      <trkpt lat="44.69831" lon="5.54161">
        <ele>1126.9</ele>
        <time>2018-05-02T12:02:21Z</time>
      </trkpt>
      <trkpt lat="44.69816" lon="5.54146">
        <ele>1124.6</ele>
        <time>2018-05-02T12:02:29Z</time>
      </trkpt>
      <trkpt lat="44.69834" lon="5.54144">
        <ele>1109.6</ele>
        <time>2018-05-02T12:08:45Z</time>
      </trkpt>
      <trkpt lat="44.69853" lon="5.54145">
        <ele>1107.7</ele>
        <time>2018-05-02T12:08:48Z</time>
      </trkpt>
      <trkpt lat="44.6985" lon="5.5412">
        <ele>1101.4</ele>
        <time>2018-05-02T12:08:58Z</time>
      </trkpt>
      <trkpt lat="44.69835" lon="5.54097">
        <ele>1096.3</ele>
        <time>2018-05-02T12:09:02Z</time>
      </trkpt>
      <trkpt lat="44.6982" lon="5.54075">
        <ele>1093</ele>
        <time>2018-05-02T12:09:06Z</time>
      </trkpt>
      <trkpt lat="44.69805" lon="5.54057">
        <ele>1090</ele>
        <time>2018-05-02T12:09:09Z</time>
      </trkpt>
      <trkpt lat="44.6979" lon="5.54035">
        <ele>1086.9</ele>
        <time>2018-05-02T12:09:12Z</time>
      </trkpt>
      <trkpt lat="44.69776" lon="5.54018">
        <ele>1082.3</ele>
        <time>2018-05-02T12:09:15Z</time>
      </trkpt>
      <trkpt lat="44.69764" lon="5.53994">
        <ele>1078</ele>
        <time>2018-05-02T12:09:19Z</time>
      </trkpt>
      <trkpt lat="44.69755" lon="5.53971">
        <ele>1073</ele>
        <time>2018-05-02T12:09:24Z</time>
      </trkpt>
      <trkpt lat="44.69771" lon="5.53957">
        <ele>1065.7</ele>
        <time>2018-05-02T12:09:37Z</time>
      </trkpt>
      <trkpt lat="44.69792" lon="5.53959">
        <ele>1044.6</ele>
        <time>2018-05-02T12:12:03Z</time>
      </trkpt>
      <trkpt lat="44.6978" lon="5.53936">
        <ele>1040.7</ele>
        <time>2018-05-02T12:12:20Z</time>
      </trkpt>
      <trkpt lat="44.69769" lon="5.53915">
        <ele>1036.9</ele>
        <time>2018-05-02T12:12:24Z</time>
      </trkpt>
      <trkpt lat="44.69761" lon="5.53887">
        <ele>1034.7</ele>
        <time>2018-05-02T12:12:28Z</time>
      </trkpt>
      <trkpt lat="44.69755" lon="5.53861">
        <ele>1030.7</ele>
        <time>2018-05-02T12:12:33Z</time>
      </trkpt>
      <trkpt lat="44.69774" lon="5.53863">
        <ele>1030.8</ele>
        <time>2018-05-02T12:12:56Z</time>
      </trkpt>
      <trkpt lat="44.69776" lon="5.53837">
        <ele>1026.9</ele>
        <time>2018-05-02T12:13:05Z</time>
      </trkpt>
      <trkpt lat="44.69782" lon="5.53813">
        <ele>1021.9</ele>
        <time>2018-05-02T12:13:12Z</time>
      </trkpt>
      <trkpt lat="44.69804" lon="5.53817">
        <ele>1019</ele>
        <time>2018-05-02T12:13:16Z</time>
      </trkpt>
      <trkpt lat="44.69827" lon="5.53816">
        <ele>1014.1</ele>
        <time>2018-05-02T12:13:20Z</time>
      </trkpt>
      <trkpt lat="44.6985" lon="5.53813">
        <ele>1008.2</ele>
        <time>2018-05-02T12:13:24Z</time>
      </trkpt>
      <trkpt lat="44.69868" lon="5.53813">
        <ele>1004.8</ele>
        <time>2018-05-02T12:13:27Z</time>
      </trkpt>
      <trkpt lat="44.69891" lon="5.53819">
        <ele>1000</ele>
        <time>2018-05-02T12:13:31Z</time>
      </trkpt>
      <trkpt lat="44.69912" lon="5.53822">
        <ele>996</ele>
        <time>2018-05-02T12:13:35Z</time>
      </trkpt>
      <trkpt lat="44.6993" lon="5.53822">
        <ele>987.9</ele>
        <time>2018-05-02T12:13:41Z</time>
      </trkpt>
      <trkpt lat="44.6995" lon="5.53817">
        <ele>975.8</ele>
        <time>2018-05-02T12:13:54Z</time>
      </trkpt>
      <trkpt lat="44.69968" lon="5.53815">
        <ele>972.1</ele>
        <time>2018-05-02T12:13:57Z</time>
      </trkpt>
      <trkpt lat="44.69987" lon="5.53813">
        <ele>969.7</ele>
        <time>2018-05-02T12:14:00Z</time>
      </trkpt>
      <trkpt lat="44.70009" lon="5.53816">
        <ele>965</ele>
        <time>2018-05-02T12:14:04Z</time>
      </trkpt>
      <trkpt lat="44.69997" lon="5.53794">
        <ele>955.3</ele>
        <time>2018-05-02T12:14:15Z</time>
      </trkpt>
      <trkpt lat="44.69985" lon="5.53771">
        <ele>951</ele>
        <time>2018-05-02T12:14:18Z</time>
      </trkpt>
      <trkpt lat="44.69994" lon="5.53749">
        <ele>944.9</ele>
        <time>2018-05-02T12:14:28Z</time>
      </trkpt>
      <trkpt lat="44.70001" lon="5.53721">
        <ele>940</ele>
        <time>2018-05-02T12:14:35Z</time>
      </trkpt>
      <trkpt lat="44.70002" lon="5.53696">
        <ele>937</ele>
        <time>2018-05-02T12:14:39Z</time>
      </trkpt>
      <trkpt lat="44.7" lon="5.53667">
        <ele>931.3</ele>
        <time>2018-05-02T12:14:43Z</time>
      </trkpt>
      <trkpt lat="44.69997" lon="5.53636">
        <ele>927</ele>
        <time>2018-05-02T12:14:47Z</time>
      </trkpt>
      <trkpt lat="44.69992" lon="5.53611">
        <ele>924.9</ele>
        <time>2018-05-02T12:14:50Z</time>
      </trkpt>
      <trkpt lat="44.69977" lon="5.53587">
        <ele>921</ele>
        <time>2018-05-02T12:14:54Z</time>
      </trkpt>
      <trkpt lat="44.69967" lon="5.53565">
        <ele>917.3</ele>
        <time>2018-05-02T12:14:57Z</time>
      </trkpt>
      <trkpt lat="44.69961" lon="5.53537">
        <ele>914</ele>
        <time>2018-05-02T12:15:00Z</time>
      </trkpt>
      <trkpt lat="44.69957" lon="5.53509">
        <ele>910</ele>
        <time>2018-05-02T12:15:03Z</time>
      </trkpt>
      <trkpt lat="44.69944" lon="5.53484">
        <ele>904.3</ele>
        <time>2018-05-02T12:15:07Z</time>
      </trkpt>
      <trkpt lat="44.69931" lon="5.53457">
        <ele>899</ele>
        <time>2018-05-02T12:15:11Z</time>
      </trkpt>
      <trkpt lat="44.69929" lon="5.53428">
        <ele>896</ele>
        <time>2018-05-02T12:15:14Z</time>
      </trkpt>
      <trkpt lat="44.69925" lon="5.53399">
        <ele>890.4</ele>
        <time>2018-05-02T12:15:17Z</time>
      </trkpt>
      <trkpt lat="44.69916" lon="5.53377">
        <ele>886.1</ele>
        <time>2018-05-02T12:15:20Z</time>
      </trkpt>
      <trkpt lat="44.69922" lon="5.53347">
        <ele>880</ele>
        <time>2018-05-02T12:15:25Z</time>
      </trkpt>
      <trkpt lat="44.69944" lon="5.53339">
        <ele>865.9</ele>
        <time>2018-05-02T12:15:57Z</time>
      </trkpt>
      <trkpt lat="44.69961" lon="5.53322">
        <ele>861</ele>
        <time>2018-05-02T12:16:01Z</time>
      </trkpt>
      <trkpt lat="44.69983" lon="5.53316">
        <ele>857.9</ele>
        <time>2018-05-02T12:16:06Z</time>
      </trkpt>
      <trkpt lat="44.70002" lon="5.53329">
        <ele>855.9</ele>
        <time>2018-05-02T12:16:10Z</time>
      </trkpt>
      <trkpt lat="44.70016" lon="5.53312">
        <ele>851</ele>
        <time>2018-05-02T12:16:19Z</time>
      </trkpt>
      <trkpt lat="44.70014" lon="5.53286">
        <ele>825.5</ele>
        <time>2018-05-02T12:25:09Z</time>
      </trkpt>
      <trkpt lat="44.70012" lon="5.53259">
        <ele>824.6</ele>
        <time>2018-05-02T12:27:10Z</time>
      </trkpt>
      <trkpt lat="44.70015" lon="5.53232">
        <ele>824.5</ele>
        <time>2018-05-02T12:27:18Z</time>
      </trkpt>
      <trkpt lat="44.70016" lon="5.53206">
        <ele>824.8</ele>
        <time>2018-05-02T12:27:25Z</time>
      </trkpt>
      <trkpt lat="44.70019" lon="5.5318">
        <ele>823.6</ele>
        <time>2018-05-02T12:27:31Z</time>
      </trkpt>
      <trkpt lat="44.70016" lon="5.53205">
        <ele>827.2</ele>
        <time>2018-05-02T12:32:01Z</time>
      </trkpt>
      <trkpt lat="44.70016" lon="5.53231">
        <ele>824.5</ele>
        <time>2018-05-02T12:38:36Z</time>
      </trkpt>
      <trkpt lat="44.70015" lon="5.53205">
        <ele>827.2</ele>
        <time>2018-05-02T12:40:18Z</time>
      </trkpt>
      <trkpt lat="44.70019" lon="5.5318">
        <ele>827.5</ele>
        <time>2018-05-02T12:41:11Z</time>
      </trkpt>
      <trkpt lat="44.70022" lon="5.53155">
        <ele>826.5</ele>
        <time>2018-05-02T12:46:45Z</time>
      </trkpt>
      <trkpt lat="44.70027" lon="5.5313">
        <ele>821.5</ele>
        <time>2018-05-02T12:50:47Z</time>
      </trkpt>
      <trkpt lat="44.70022" lon="5.53154">
        <ele>819.5</ele>
        <time>2018-05-02T12:57:53Z</time>
      </trkpt>
      <trkpt lat="44.70019" lon="5.5318">
        <ele>822.5</ele>
        <time>2018-05-02T12:58:24Z</time>
      </trkpt>
      <trkpt lat="44.70022" lon="5.53152">
        <ele>822.5</ele>
        <time>2018-05-02T12:58:34Z</time>
      </trkpt>
      <trkpt lat="44.70029" lon="5.53125">
        <ele>821.8</ele>
        <time>2018-05-02T12:58:38Z</time>
      </trkpt>
      <trkpt lat="44.7004" lon="5.53102">
        <ele>820.5</ele>
        <time>2018-05-02T12:58:43Z</time>
      </trkpt>
      <trkpt lat="44.70052" lon="5.53081">
        <ele>820.5</ele>
        <time>2018-05-02T12:58:49Z</time>
      </trkpt>
      <trkpt lat="44.70061" lon="5.53055">
        <ele>820.5</ele>
        <time>2018-05-02T12:58:54Z</time>
      </trkpt>
      <trkpt lat="44.70074" lon="5.53032">
        <ele>813.5</ele>
        <time>2018-05-02T13:32:31Z</time>
      </trkpt>
      <trkpt lat="44.70094" lon="5.53032">
        <ele>812.6</ele>
        <time>2018-05-02T13:32:35Z</time>
      </trkpt>
      <trkpt lat="44.70112" lon="5.5304">
        <ele>809.6</ele>
        <time>2018-05-02T13:36:43Z</time>
      </trkpt>
      <trkpt lat="44.70132" lon="5.5305">
        <ele>807.7</ele>
        <time>2018-05-02T13:36:47Z</time>
      </trkpt>
      <trkpt lat="44.70155" lon="5.53057">
        <ele>804.9</ele>
        <time>2018-05-02T13:36:51Z</time>
      </trkpt>
      <trkpt lat="44.70175" lon="5.53069">
        <ele>802</ele>
        <time>2018-05-02T13:36:55Z</time>
      </trkpt>
      <trkpt lat="44.70194" lon="5.53077">
        <ele>798</ele>
        <time>2018-05-02T13:36:59Z</time>
      </trkpt>
      <trkpt lat="44.70211" lon="5.53085">
        <ele>795</ele>
        <time>2018-05-02T13:37:03Z</time>
      </trkpt>
      <trkpt lat="44.70233" lon="5.53092">
        <ele>790</ele>
        <time>2018-05-02T13:37:08Z</time>
      </trkpt>
      <trkpt lat="44.70252" lon="5.53096">
        <ele>786</ele>
        <time>2018-05-02T13:37:12Z</time>
      </trkpt>
      <trkpt lat="44.70272" lon="5.53093">
        <ele>780</ele>
        <time>2018-05-02T13:37:17Z</time>
      </trkpt>
      <trkpt lat="44.70291" lon="5.53091">
        <ele>776</ele>
        <time>2018-05-02T13:37:21Z</time>
      </trkpt>
      <trkpt lat="44.70312" lon="5.5309">
        <ele>773.9</ele>
        <time>2018-05-02T13:37:25Z</time>
      </trkpt>
      <trkpt lat="44.70334" lon="5.53096">
        <ele>770.9</ele>
        <time>2018-05-02T13:37:31Z</time>
      </trkpt>
      <trkpt lat="44.70356" lon="5.53106">
        <ele>769.6</ele>
        <time>2018-05-02T13:37:35Z</time>
      </trkpt>
      <trkpt lat="44.70378" lon="5.53108">
        <ele>766.7</ele>
        <time>2018-05-02T13:37:39Z</time>
      </trkpt>
      <trkpt lat="44.70397" lon="5.53107">
        <ele>764.7</ele>
        <time>2018-05-02T13:37:43Z</time>
      </trkpt>
      <trkpt lat="44.7042" lon="5.53104">
        <ele>762.7</ele>
        <time>2018-05-02T13:37:47Z</time>
      </trkpt>
      <trkpt lat="44.70441" lon="5.53104">
        <ele>760</ele>
        <time>2018-05-02T13:37:51Z</time>
      </trkpt>
      <trkpt lat="44.7046" lon="5.53107">
        <ele>756.7</ele>
        <time>2018-05-02T13:37:55Z</time>
      </trkpt>
      <trkpt lat="44.70482" lon="5.53109">
        <ele>752.9</ele>
        <time>2018-05-02T13:37:59Z</time>
      </trkpt>
      <trkpt lat="44.70501" lon="5.53116">
        <ele>750</ele>
        <time>2018-05-02T13:38:03Z</time>
      </trkpt>
      <trkpt lat="44.70521" lon="5.5312">
        <ele>747.7</ele>
        <time>2018-05-02T13:38:07Z</time>
      </trkpt>
      <trkpt lat="44.70543" lon="5.53118">
        <ele>745.7</ele>
        <time>2018-05-02T13:38:11Z</time>
      </trkpt>
      <trkpt lat="44.70561" lon="5.53109">
        <ele>743</ele>
        <time>2018-05-02T13:38:14Z</time>
      </trkpt>
      <trkpt lat="44.70579" lon="5.53099">
        <ele>739.3</ele>
        <time>2018-05-02T13:38:17Z</time>
      </trkpt>
      <trkpt lat="44.70598" lon="5.53086">
        <ele>735</ele>
        <time>2018-05-02T13:38:21Z</time>
      </trkpt>
      <trkpt lat="44.70618" lon="5.53084">
        <ele>731.1</ele>
        <time>2018-05-02T13:38:24Z</time>
      </trkpt>
      <trkpt lat="44.70638" lon="5.53081">
        <ele>724.1</ele>
        <time>2018-05-02T13:38:28Z</time>
      </trkpt>
      <trkpt lat="44.70645" lon="5.53054">
        <ele>710.1</ele>
        <time>2018-05-02T13:38:43Z</time>
      </trkpt>
      <trkpt lat="44.70663" lon="5.53042">
        <ele>703.8</ele>
        <time>2018-05-02T13:39:05Z</time>
      </trkpt>
      <trkpt lat="44.70682" lon="5.53045">
        <ele>700.9</ele>
        <time>2018-05-02T13:39:13Z</time>
      </trkpt>
      <trkpt lat="44.70691" lon="5.53071">
        <ele>693.4</ele>
        <time>2018-05-02T13:39:17Z</time>
      </trkpt>
      <trkpt lat="44.70688" lon="5.53102">
        <ele>684</ele>
        <time>2018-05-02T13:39:56Z</time>
      </trkpt>
      <trkpt lat="44.70687" lon="5.53132">
        <ele>679.9</ele>
        <time>2018-05-02T13:40:01Z</time>
      </trkpt>
      <trkpt lat="44.70706" lon="5.53136">
        <ele>679.5</ele>
        <time>2018-05-02T13:40:20Z</time>
      </trkpt>
      <trkpt lat="44.70725" lon="5.53128">
        <ele>679.5</ele>
        <time>2018-05-02T13:40:33Z</time>
      </trkpt>
      <trkpt lat="44.70743" lon="5.53125">
        <ele>681.5</ele>
        <time>2018-05-02T13:40:43Z</time>
      </trkpt>
      <trkpt lat="44.70761" lon="5.53129">
        <ele>682.5</ele>
        <time>2018-05-02T13:40:52Z</time>
      </trkpt>
      <trkpt lat="44.70782" lon="5.53131">
        <ele>682.5</ele>
        <time>2018-05-02T13:41:00Z</time>
      </trkpt>
      <trkpt lat="44.70801" lon="5.53123">
        <ele>683.5</ele>
        <time>2018-05-02T13:41:09Z</time>
      </trkpt>
      <trkpt lat="44.70819" lon="5.53114">
        <ele>683.5</ele>
        <time>2018-05-02T13:41:18Z</time>
      </trkpt>
      <trkpt lat="44.70838" lon="5.53108">
        <ele>683.5</ele>
        <time>2018-05-02T13:41:28Z</time>
      </trkpt>
      <trkpt lat="44.70856" lon="5.53097">
        <ele>684.5</ele>
        <time>2018-05-02T13:41:40Z</time>
      </trkpt>
      <trkpt lat="44.70874" lon="5.53089">
        <ele>685.6</ele>
        <time>2018-05-02T13:41:50Z</time>
      </trkpt>
      <trkpt lat="44.70891" lon="5.53081">
        <ele>687.2</ele>
        <time>2018-05-02T13:42:00Z</time>
      </trkpt>
      <trkpt lat="44.70907" lon="5.53068">
        <ele>688.5</ele>
        <time>2018-05-02T13:42:08Z</time>
      </trkpt>
      <trkpt lat="44.7092" lon="5.5305">
        <ele>689.5</ele>
        <time>2018-05-02T13:42:14Z</time>
      </trkpt>
      <trkpt lat="44.70941" lon="5.5305">
        <ele>691.5</ele>
        <time>2018-05-02T13:42:21Z</time>
      </trkpt>
      <trkpt lat="44.7096" lon="5.53064">
        <ele>692.5</ele>
        <time>2018-05-02T13:42:26Z</time>
      </trkpt>
      <trkpt lat="44.70974" lon="5.53082">
        <ele>692.5</ele>
        <time>2018-05-02T13:42:30Z</time>
      </trkpt>
      <trkpt lat="44.70987" lon="5.53105">
        <ele>690</ele>
        <time>2018-05-02T13:42:33Z</time>
      </trkpt>
      <trkpt lat="44.71002" lon="5.53128">
        <ele>687.7</ele>
        <time>2018-05-02T13:42:36Z</time>
      </trkpt>
      <trkpt lat="44.71016" lon="5.5315">
        <ele>686.6</ele>
        <time>2018-05-02T13:42:39Z</time>
      </trkpt>
      <trkpt lat="44.71032" lon="5.53132">
        <ele>684.6</ele>
        <time>2018-05-02T13:42:47Z</time>
      </trkpt>
      <trkpt lat="44.71049" lon="5.53124">
        <ele>684.5</ele>
        <time>2018-05-02T13:42:55Z</time>
      </trkpt>
      <trkpt lat="44.71068" lon="5.53118">
        <ele>684.5</ele>
        <time>2018-05-02T13:43:03Z</time>
      </trkpt>
      <trkpt lat="44.71086" lon="5.53112">
        <ele>684.5</ele>
        <time>2018-05-02T13:43:09Z</time>
      </trkpt>
      <trkpt lat="44.71107" lon="5.53108">
        <ele>684.5</ele>
        <time>2018-05-02T13:43:15Z</time>
      </trkpt>
      <trkpt lat="44.71128" lon="5.5311">
        <ele>684.5</ele>
        <time>2018-05-02T13:43:20Z</time>
      </trkpt>
      <trkpt lat="44.71148" lon="5.53109">
        <ele>684.5</ele>
        <time>2018-05-02T13:43:25Z</time>
      </trkpt>
      <trkpt lat="44.71169" lon="5.53109">
        <ele>684.5</ele>
        <time>2018-05-02T13:43:30Z</time>
      </trkpt>
      <trkpt lat="44.71187" lon="5.53111">
        <ele>685.5</ele>
        <time>2018-05-02T13:43:35Z</time>
      </trkpt>
      <trkpt lat="44.71205" lon="5.53102">
        <ele>685.5</ele>
        <time>2018-05-02T13:43:40Z</time>
      </trkpt>
      <trkpt lat="44.71226" lon="5.53087">
        <ele>684.6</ele>
        <time>2018-05-02T13:43:43Z</time>
      </trkpt>
      <trkpt lat="44.71247" lon="5.53071">
        <ele>682.9</ele>
        <time>2018-05-02T13:43:46Z</time>
      </trkpt>
      <trkpt lat="44.71269" lon="5.53057">
        <ele>680.9</ele>
        <time>2018-05-02T13:43:49Z</time>
      </trkpt>
      <trkpt lat="44.71291" lon="5.53043">
        <ele>678.7</ele>
        <time>2018-05-02T13:43:52Z</time>
      </trkpt>
      <trkpt lat="44.71314" lon="5.53029">
        <ele>677.6</ele>
        <time>2018-05-02T13:43:55Z</time>
      </trkpt>
      <trkpt lat="44.71336" lon="5.53014">
        <ele>675.9</ele>
        <time>2018-05-02T13:43:58Z</time>
      </trkpt>
      <trkpt lat="44.71353" lon="5.53">
        <ele>673</ele>
        <time>2018-05-02T13:44:01Z</time>
      </trkpt>
      <trkpt lat="44.71375" lon="5.52995">
        <ele>669.3</ele>
        <time>2018-05-02T13:44:04Z</time>
      </trkpt>
      <trkpt lat="44.71396" lon="5.53">
        <ele>664.4</ele>
        <time>2018-05-02T13:44:07Z</time>
      </trkpt>
      <trkpt lat="44.71416" lon="5.53007">
        <ele>659.5</ele>
        <time>2018-05-02T13:45:24Z</time>
      </trkpt>
      <trkpt lat="44.71435" lon="5.53012">
        <ele>657.6</ele>
        <time>2018-05-02T13:46:46Z</time>
      </trkpt>
      <trkpt lat="44.71454" lon="5.53008">
        <ele>657.5</ele>
        <time>2018-05-02T13:46:50Z</time>
      </trkpt>
      <trkpt lat="44.71475" lon="5.53017">
        <ele>656.8</ele>
        <time>2018-05-02T13:46:54Z</time>
      </trkpt>
      <trkpt lat="44.71491" lon="5.53029">
        <ele>654.9</ele>
        <time>2018-05-02T13:46:58Z</time>
      </trkpt>
      <trkpt lat="44.71502" lon="5.5305">
        <ele>652.9</ele>
        <time>2018-05-02T13:47:02Z</time>
      </trkpt>
      <trkpt lat="44.71522" lon="5.53047">
        <ele>650.7</ele>
        <time>2018-05-02T13:47:08Z</time>
      </trkpt>
      <trkpt lat="44.71544" lon="5.53042">
        <ele>647.9</ele>
        <time>2018-05-02T13:47:12Z</time>
      </trkpt>
      <trkpt lat="44.7156" lon="5.53028">
        <ele>645.5</ele>
        <time>2018-05-02T13:49:09Z</time>
      </trkpt>
      <trkpt lat="44.71577" lon="5.53058">
        <ele>692.6</ele>
      </trkpt>
      <trkpt lat="44.71581" lon="5.53068">
        <ele>694.8</ele>
      </trkpt>
      <trkpt lat="44.71581" lon="5.5308">
        <ele>694.7</ele>
      </trkpt>
      <trkpt lat="44.71582" lon="5.5309">
        <ele>694.3</ele>
      </trkpt>
      <trkpt lat="44.71587" lon="5.53103">
        <ele>694.3</ele>
      </trkpt>
      <trkpt lat="44.71586" lon="5.53115">
        <ele>691.7</ele>
      </trkpt>
      <trkpt lat="44.71586" lon="5.53131">
        <ele>688.5</ele>
      </trkpt>
      <trkpt lat="44.71592" lon="5.53144">
        <ele>689.5</ele>
      </trkpt>
      <trkpt lat="44.71596" lon="5.53154">
        <ele>689.8</ele>
      </trkpt>
      <trkpt lat="44.71601" lon="5.53167">
        <ele>689.7</ele>
      </trkpt>
      <trkpt lat="44.71605" lon="5.53179">
        <ele>688.8</ele>
      </trkpt>
      <trkpt lat="44.71611" lon="5.53186">
        <ele>690.1</ele>
      </trkpt>
      <trkpt lat="44.71618" lon="5.53196">
        <ele>690.9</ele>
      </trkpt>
      <trkpt lat="44.71626" lon="5.53203">
        <ele>693.6</ele>
      </trkpt>
      <trkpt lat="44.71633" lon="5.53206">
        <ele>695.8</ele>
      </trkpt>
      <trkpt lat="44.7164" lon="5.5321">
        <ele>698</ele>
      </trkpt>
      <trkpt lat="44.71644" lon="5.5322">
        <ele>697.2</ele>
      </trkpt>
      <trkpt lat="44.7165" lon="5.53229">
        <ele>697.1</ele>
      </trkpt>
      <trkpt lat="44.71657" lon="5.53236">
        <ele>698.2</ele>
      </trkpt>
      <trkpt lat="44.71661" lon="5.53246">
        <ele>697.3</ele>
      </trkpt>
      <trkpt lat="44.71665" lon="5.53256">
        <ele>696</ele>
      </trkpt>
      <trkpt lat="44.71674" lon="5.53262">
        <ele>698.8</ele>
      </trkpt>
      <trkpt lat="44.71678" lon="5.53272">
        <ele>698.1</ele>
      </trkpt>
      <trkpt lat="44.71683" lon="5.53282">
        <ele>697.6</ele>
      </trkpt>
      <trkpt lat="44.71689" lon="5.53292">
        <ele>697.8</ele>
      </trkpt>
      <trkpt lat="44.71693" lon="5.53301">
        <ele>697.2</ele>
      </trkpt>
      <trkpt lat="44.717" lon="5.53311">
        <ele>697.1</ele>
      </trkpt>
      <trkpt lat="44.71702" lon="5.53321">
        <ele>695.2</ele>
      </trkpt>
      <trkpt lat="44.71711" lon="5.53331">
        <ele>695.9</ele>
      </trkpt>
      <trkpt lat="44.71715" lon="5.5334">
        <ele>694.7</ele>
      </trkpt>
      <trkpt lat="44.71723" lon="5.5335">
        <ele>694.7</ele>
      </trkpt>
      <trkpt lat="44.71728" lon="5.5336">
        <ele>692.7</ele>
      </trkpt>
      <trkpt lat="44.71734" lon="5.53367">
        <ele>692.6</ele>
      </trkpt>
      <trkpt lat="44.71741" lon="5.53377">
        <ele>690.4</ele>
      </trkpt>
      <trkpt lat="44.71749" lon="5.53387">
        <ele>689.1</ele>
      </trkpt>
      <trkpt lat="44.71756" lon="5.53393">
        <ele>687.9</ele>
      </trkpt>
      <trkpt lat="44.71765" lon="5.53403">
        <ele>687.1</ele>
      </trkpt>
      <trkpt lat="44.71771" lon="5.5341">
        <ele>686.7</ele>
      </trkpt>
      <trkpt lat="44.71778" lon="5.5342">
        <ele>684.9</ele>
      </trkpt>
      <trkpt lat="44.71784" lon="5.53433">
        <ele>683.3</ele>
      </trkpt>
      <trkpt lat="44.71791" lon="5.53443">
        <ele>682.5</ele>
      </trkpt>
      <trkpt lat="44.71797" lon="5.53449">
        <ele>681.9</ele>
      </trkpt>
      <trkpt lat="44.71804" lon="5.53453">
        <ele>682.9</ele>
      </trkpt>
      <trkpt lat="44.71812" lon="5.53463">
        <ele>681.4</ele>
      </trkpt>
      <trkpt lat="44.71821" lon="5.53466">
        <ele>682</ele>
      </trkpt>
      <trkpt lat="44.7183" lon="5.5347">
        <ele>682.6</ele>
      </trkpt>
      <trkpt lat="44.71839" lon="5.53471">
        <ele>685.6</ele>
      </trkpt>
      <trkpt lat="44.71848" lon="5.53474">
        <ele>687.5</ele>
      </trkpt>
      <trkpt lat="44.71857" lon="5.53481">
        <ele>688.5</ele>
      </trkpt>
      <trkpt lat="44.71863" lon="5.53488">
        <ele>688.7</ele>
      </trkpt>
      <trkpt lat="44.7187" lon="5.53494">
        <ele>689.1</ele>
      </trkpt>
      <trkpt lat="44.71879" lon="5.53495">
        <ele>692.7</ele>
      </trkpt>
      <trkpt lat="44.71888" lon="5.53499">
        <ele>695.4</ele>
      </trkpt>
      <trkpt lat="44.71895" lon="5.53502">
        <ele>697.5</ele>
      </trkpt>
      <trkpt lat="44.71903" lon="5.53506">
        <ele>700.3</ele>
      </trkpt>
      <trkpt lat="44.71912" lon="5.53509">
        <ele>702.7</ele>
      </trkpt>
      <trkpt lat="44.71919" lon="5.53519">
        <ele>702</ele>
      </trkpt>
      <trkpt lat="44.71925" lon="5.53523">
        <ele>703.2</ele>
      </trkpt>
      <trkpt lat="44.71932" lon="5.5353">
        <ele>703.5</ele>
      </trkpt>
      <trkpt lat="44.71941" lon="5.53536">
        <ele>704.3</ele>
      </trkpt>
      <trkpt lat="44.71947" lon="5.53546">
        <ele>703.8</ele>
      </trkpt>
      <trkpt lat="44.71956" lon="5.53559">
        <ele>702.9</ele>
      </trkpt>
      <trkpt lat="44.71965" lon="5.53569">
        <ele>703.1</ele>
      </trkpt>
      <trkpt lat="44.71971" lon="5.53576">
        <ele>703.7</ele>
      </trkpt>
      <trkpt lat="44.71978" lon="5.53586">
        <ele>702.9</ele>
      </trkpt>
      <trkpt lat="44.71984" lon="5.53593">
        <ele>703.5</ele>
      </trkpt>
      <trkpt lat="44.71991" lon="5.53596">
        <ele>705.3</ele>
      </trkpt>
      <trkpt lat="44.71997" lon="5.53606">
        <ele>703.7</ele>
      </trkpt>
      <trkpt lat="44.72004" lon="5.53613">
        <ele>704</ele>
      </trkpt>
      <trkpt lat="44.72013" lon="5.53619">
        <ele>706</ele>
      </trkpt>
      <trkpt lat="44.72022" lon="5.5362">
        <ele>710.4</ele>
      </trkpt>
      <trkpt lat="44.72031" lon="5.53624">
        <ele>713.7</ele>
      </trkpt>
      <trkpt lat="44.72037" lon="5.5363">
        <ele>714.9</ele>
      </trkpt>
      <trkpt lat="44.72046" lon="5.53634">
        <ele>719.1</ele>
      </trkpt>
      <trkpt lat="44.72052" lon="5.53644">
        <ele>719.2</ele>
      </trkpt>
      <trkpt lat="44.72059" lon="5.5365">
        <ele>721.2</ele>
      </trkpt>
      <trkpt lat="44.72066" lon="5.53657">
        <ele>722.9</ele>
      </trkpt>
      <trkpt lat="44.72072" lon="5.5367">
        <ele>723.3</ele>
      </trkpt>
      <trkpt lat="44.72076" lon="5.5368">
        <ele>723.3</ele>
      </trkpt>
      <trkpt lat="44.72083" lon="5.53693">
        <ele>723.8</ele>
      </trkpt>
      <trkpt lat="44.72087" lon="5.53703">
        <ele>724</ele>
      </trkpt>
      <trkpt lat="44.72093" lon="5.53712">
        <ele>725.7</ele>
      </trkpt>
      <trkpt lat="44.721" lon="5.53722">
        <ele>727.8</ele>
      </trkpt>
      <trkpt lat="44.72106" lon="5.53726">
        <ele>731.3</ele>
      </trkpt>
      <trkpt lat="44.7211" lon="5.53739">
        <ele>731.1</ele>
      </trkpt>
      <trkpt lat="44.72117" lon="5.53748">
        <ele>733.7</ele>
      </trkpt>
      <trkpt lat="44.72119" lon="5.53758">
        <ele>734.5</ele>
      </trkpt>
      <trkpt lat="44.72123" lon="5.53771">
        <ele>736.8</ele>
      </trkpt>
      <trkpt lat="44.72125" lon="5.53784">
        <ele>737.8</ele>
      </trkpt>
      <trkpt lat="44.72127" lon="5.53793">
        <ele>738.9</ele>
      </trkpt>
      <trkpt lat="44.72126" lon="5.53809">
        <ele>738.1</ele>
      </trkpt>
      <trkpt lat="44.72122" lon="5.53821">
        <ele>734.1</ele>
      </trkpt>
      <trkpt lat="44.72117" lon="5.5383">
        <ele>730.1</ele>
      </trkpt>
      <trkpt lat="44.72119" lon="5.5384">
        <ele>731.1</ele>
      </trkpt>
      <trkpt lat="44.72119" lon="5.53846">
        <ele>730.8</ele>
      </trkpt>
      <trkpt lat="44.72123" lon="5.5388">
        <ele>732.4</ele>
        <time>2014-12-31T10:52:34Z</time>
      </trkpt>
      <trkpt lat="44.72134" lon="5.53963">
        <ele>727.3</ele>
        <time>2014-12-31T10:52:34Z</time>
      </trkpt>
      <trkpt lat="44.72201" lon="5.54094">
        <ele>717.1</ele>
        <time>2014-12-31T10:52:34Z</time>
      </trkpt>
      <trkpt lat="44.7225" lon="5.54132">
        <ele>731.2</ele>
        <time>2014-12-31T10:52:34Z</time>
      </trkpt>
      <trkpt lat="44.72335" lon="5.54294">
        <ele>746.4</ele>
        <time>2014-12-31T10:52:34Z</time>
      </trkpt>
      <trkpt lat="44.72407" lon="5.54492">
        <ele>764.8</ele>
        <time>2014-12-31T10:52:34Z</time>
      </trkpt>
      <trkpt lat="44.72418" lon="5.5459">
        <ele>755.7</ele>
        <time>2014-12-31T10:52:34Z</time>
      </trkpt>
      <trkpt lat="44.72437" lon="5.54646">
        <ele>746.8</ele>
        <time>2014-12-31T10:52:34Z</time>
      </trkpt>
      <trkpt lat="44.72528" lon="5.54765">
        <ele>727.6</ele>
        <time>2014-12-31T10:52:34Z</time>
      </trkpt>
      <trkpt lat="44.72533" lon="5.54791">
        <ele>721.9</ele>
        <time>2014-12-31T10:52:34Z</time>
      </trkpt>
      <trkpt lat="44.72551" lon="5.54837">
        <ele>712.7</ele>
        <time>2015-03-01T20:16:17Z</time>
      </trkpt>
      <trkpt lat="44.72558" lon="5.54844">
        <ele>713.8</ele>
        <time>2015-03-14T16:17:32Z</time>
      </trkpt>
      <trkpt lat="44.7256" lon="5.54853">
        <ele>714.8</ele>
        <time>2015-03-26T00:00:59Z</time>
      </trkpt>
      <trkpt lat="44.72564" lon="5.54863">
        <ele>715.8</ele>
        <time>2015-04-07T19:50:14Z</time>
      </trkpt>
      <trkpt lat="44.7257" lon="5.54873">
        <ele>716.9</ele>
        <time>2015-04-22T23:12:06Z</time>
      </trkpt>
      <trkpt lat="44.72577" lon="5.54883">
        <ele>717.9</ele>
        <time>2015-05-07T22:54:12Z</time>
      </trkpt>
      <trkpt lat="44.72581" lon="5.54892">
        <ele>718.9</ele>
        <time>2015-05-20T21:07:18Z</time>
      </trkpt>
      <trkpt lat="44.7259" lon="5.54899">
        <ele>720</ele>
        <time>2015-06-05T20:59:55Z</time>
      </trkpt>
      <trkpt lat="44.72596" lon="5.54906">
        <ele>721</ele>
        <time>2015-06-18T16:21:12Z</time>
      </trkpt>
      <trkpt lat="44.72603" lon="5.54916">
        <ele>722.1</ele>
        <time>2015-07-03T19:15:06Z</time>
      </trkpt>
      <trkpt lat="44.72609" lon="5.54926">
        <ele>723.8</ele>
        <time>2015-07-18T22:24:59Z</time>
      </trkpt>
      <trkpt lat="44.72614" lon="5.54935">
        <ele>725.6</ele>
        <time>2015-08-01T00:45:50Z</time>
      </trkpt>
      <trkpt lat="44.72622" lon="5.54939">
        <ele>726.6</ele>
        <time>2015-08-15T14:44:31Z</time>
      </trkpt>
      <trkpt lat="44.72631" lon="5.54939">
        <ele>727</ele>
        <time>2015-08-29T19:59:44Z</time>
      </trkpt>
      <trkpt lat="44.7264" lon="5.54937">
        <ele>727</ele>
        <time>2015-09-13T12:10:17Z</time>
      </trkpt>
      <trkpt lat="44.72649" lon="5.54937">
        <ele>727.4</ele>
        <time>2015-09-27T18:01:28Z</time>
      </trkpt>
      <trkpt lat="44.72658" lon="5.54944">
        <ele>728.6</ele>
        <time>2015-10-13T16:58:09Z</time>
      </trkpt>
      <trkpt lat="44.72667" lon="5.54945">
        <ele>728.9</ele>
        <time>2015-10-27T22:49:20Z</time>
      </trkpt>
      <trkpt lat="44.72676" lon="5.54952">
        <ele>729.4</ele>
        <time>2015-11-12T19:42:08Z</time>
      </trkpt>
      <trkpt lat="44.72687" lon="5.54955">
        <ele>729.4</ele>
        <time>2015-11-30T20:47:45Z</time>
      </trkpt>
      <trkpt lat="44.72696" lon="5.54959">
        <ele>729.4</ele>
        <time>2015-12-15T11:58:22Z</time>
      </trkpt>
      <trkpt lat="44.72703" lon="5.54963">
        <ele>729.5</ele>
        <time>2015-12-26T20:09:47Z</time>
      </trkpt>
      <trkpt lat="44.72712" lon="5.54966">
        <ele>729.4</ele>
        <time>2016-01-10T11:16:24Z</time>
      </trkpt>
      <trkpt lat="44.72723" lon="5.5497">
        <ele>729.2</ele>
        <time>2016-01-28T12:26:01Z</time>
      </trkpt>
      <trkpt lat="44.72729" lon="5.54974">
        <ele>729</ele>
        <time>2016-02-08T20:05:29Z</time>
      </trkpt>
      <trkpt lat="44.72736" lon="5.5498">
        <ele>729</ele>
        <time>2016-02-21T13:30:52Z</time>
      </trkpt>
      <trkpt lat="44.72745" lon="5.54987">
        <ele>728.8</ele>
        <time>2016-03-08T10:19:41Z</time>
      </trkpt>
      <trkpt lat="44.72751" lon="5.54994">
        <ele>728.8</ele>
        <time>2016-03-21T07:04:53Z</time>
      </trkpt>
      <trkpt lat="44.72758" lon="5.55">
        <ele>729.3</ele>
        <time>2016-04-03T00:30:17Z</time>
      </trkpt>
      <trkpt lat="44.72765" lon="5.55004">
        <ele>731.1</ele>
        <time>2016-04-14T14:33:21Z</time>
      </trkpt>
      <trkpt lat="44.72773" lon="5.55011">
        <ele>734.2</ele>
        <time>2016-05-01T01:41:17Z</time>
      </trkpt>
      <trkpt lat="44.72782" lon="5.55011">
        <ele>734.6</ele>
        <time>2016-05-15T07:32:27Z</time>
      </trkpt>
      <trkpt lat="44.72789" lon="5.55015">
        <ele>736.6</ele>
        <time>2016-05-26T20:31:35Z</time>
      </trkpt>
      <trkpt lat="44.72798" lon="5.55018">
        <ele>738.8</ele>
        <time>2016-06-10T19:37:43Z</time>
      </trkpt>
      <trkpt lat="44.72809" lon="5.55019">
        <ele>739.4</ele>
        <time>2016-06-28T13:07:48Z</time>
      </trkpt>
      <trkpt lat="44.72818" lon="5.5502">
        <ele>740.5</ele>
        <time>2016-07-12T20:46:52Z</time>
      </trkpt>
      <trkpt lat="44.72829" lon="5.5502">
        <ele>741.2</ele>
        <time>2016-07-30T18:08:43Z</time>
      </trkpt>
      <trkpt lat="44.72838" lon="5.55024">
        <ele>743.6</ele>
        <time>2016-08-14T19:22:43Z</time>
      </trkpt>
      <trkpt lat="44.72847" lon="5.55028">
        <ele>745.9</ele>
        <time>2016-08-29T19:20:48Z</time>
      </trkpt>
      <trkpt lat="44.72854" lon="5.55031">
        <ele>748</ele>
        <time>2016-09-10T08:23:56Z</time>
      </trkpt>
      <trkpt lat="44.72863" lon="5.55038">
        <ele>751.3</ele>
        <time>2016-09-26T21:11:46Z</time>
      </trkpt>
      <trkpt lat="44.72874" lon="5.55045">
        <ele>754.6</ele>
        <time>2016-10-16T12:31:03Z</time>
      </trkpt>
      <trkpt lat="44.72883" lon="5.55045">
        <ele>755.4</ele>
        <time>2016-10-30T19:10:11Z</time>
      </trkpt>
      <trkpt lat="44.72889" lon="5.55052">
        <ele>758.2</ele>
        <time>2016-11-13T06:06:31Z</time>
      </trkpt>
      <trkpt lat="44.72898" lon="5.55056">
        <ele>759.4</ele>
        <time>2016-11-27T23:40:59Z</time>
      </trkpt>
      <trkpt lat="44.72905" lon="5.55059">
        <ele>761</ele>
        <time>2016-12-09T09:12:19Z</time>
      </trkpt>
      <trkpt lat="44.72914" lon="5.5506">
        <ele>761.5</ele>
        <time>2016-12-23T15:15:30Z</time>
      </trkpt>
      <trkpt lat="44.72921" lon="5.55057">
        <ele>760.3</ele>
        <time>2017-01-04T02:50:42Z</time>
      </trkpt>
      <trkpt lat="44.7293" lon="5.55054">
        <ele>759.8</ele>
        <time>2017-01-18T15:41:28Z</time>
      </trkpt>
      <trkpt lat="44.72939" lon="5.55055">
        <ele>760.6</ele>
        <time>2017-02-01T22:20:36Z</time>
      </trkpt>
      <trkpt lat="44.72948" lon="5.55055">
        <ele>761</ele>
        <time>2017-02-16T04:11:46Z</time>
      </trkpt>
      <trkpt lat="44.72957" lon="5.55056">
        <ele>761.7</ele>
        <time>2017-03-02T09:58:57Z</time>
      </trkpt>
      <trkpt lat="44.72966" lon="5.55057">
        <ele>762.1</ele>
        <time>2017-03-16T15:58:08Z</time>
      </trkpt>
      <trkpt lat="44.72975" lon="5.55057">
        <ele>762.4</ele>
        <time>2017-03-30T21:41:19Z</time>
      </trkpt>
      <trkpt lat="44.72986" lon="5.55058">
        <ele>763.1</ele>
        <time>2017-04-17T15:15:24Z</time>
      </trkpt>
      <trkpt lat="44.72997" lon="5.55058">
        <ele>763.5</ele>
        <time>2017-05-05T08:29:30Z</time>
      </trkpt>
      <trkpt lat="44.73008" lon="5.55059">
        <ele>763.9</ele>
        <time>2017-05-23T05:23:23Z</time>
      </trkpt>
      <trkpt lat="44.73017" lon="5.55059">
        <ele>764</ele>
        <time>2017-06-06T07:10:48Z</time>
      </trkpt>
      <trkpt lat="44.73026" lon="5.5506">
        <ele>764.3</ele>
        <time>2017-06-20T13:01:59Z</time>
      </trkpt>
      <trkpt lat="44.73035" lon="5.55057">
        <ele>764</ele>
        <time>2017-07-05T05:52:30Z</time>
      </trkpt>
      <trkpt lat="44.73044" lon="5.55055">
        <ele>763.8</ele>
        <time>2017-07-19T22:07:03Z</time>
      </trkpt>
      <trkpt lat="44.73053" lon="5.55062">
        <ele>764.7</ele>
        <time>2017-08-04T19:51:48Z</time>
      </trkpt>
      <trkpt lat="44.7306" lon="5.55065">
        <ele>765.2</ele>
        <time>2017-08-16T00:03:28Z</time>
      </trkpt>
      <trkpt lat="44.73069" lon="5.55066">
        <ele>765.2</ele>
        <time>2017-08-30T05:10:41Z</time>
      </trkpt>
      <trkpt lat="44.73078" lon="5.55066">
        <ele>765.2</ele>
        <time>2017-09-13T10:45:53Z</time>
      </trkpt>
      <trkpt lat="44.73087" lon="5.55073">
        <ele>766.4</ele>
        <time>2017-09-29T09:30:34Z</time>
      </trkpt>
      <trkpt lat="44.73093" lon="5.55083">
        <ele>768</ele>
        <time>2017-10-14T15:00:19Z</time>
      </trkpt>
      <trkpt lat="44.73102" lon="5.55093">
        <ele>770.9</ele>
        <time>2017-11-01T20:05:41Z</time>
      </trkpt>
      <trkpt lat="44.73108" lon="5.55099">
        <ele>772.9</ele>
        <time>2017-11-15T00:18:26Z</time>
      </trkpt>
      <trkpt lat="44.73115" lon="5.55109">
        <ele>775.4</ele>
        <time>2017-11-30T08:40:00Z</time>
      </trkpt>
      <trkpt lat="44.73121" lon="5.55116">
        <ele>777.1</ele>
        <time>2017-12-13T10:32:53Z</time>
      </trkpt>
      <trkpt lat="44.73128" lon="5.55126">
        <ele>779.2</ele>
        <time>2017-12-28T18:22:29Z</time>
      </trkpt>
      <trkpt lat="44.73134" lon="5.55136">
        <ele>781.5</ele>
        <time>2018-01-13T03:51:59Z</time>
      </trkpt>
      <trkpt lat="44.73141" lon="5.55145">
        <ele>783.3</ele>
        <time>2018-01-28T09:57:41Z</time>
      </trkpt>
      <trkpt lat="44.73147" lon="5.55155">
        <ele>785.3</ele>
        <time>2018-02-12T17:07:19Z</time>
      </trkpt>
      <trkpt lat="44.73167" lon="5.55172">
        <ele>789.5</ele>
        <time>2018-03-21T18:37:09Z</time>
      </trkpt>
      <trkpt lat="44.73159" lon="5.55177">
        <ele>790.2</ele>
        <time>2018-04-04T09:57:13Z</time>
      </trkpt>
      <trkpt lat="44.73128" lon="5.55189">
        <ele>792.4</ele>
        <time>2018-04-04T09:57:13Z</time>
      </trkpt>
      <trkpt lat="44.73093" lon="5.55205">
        <ele>795</ele>
        <time>2018-04-04T09:57:13Z</time>
      </trkpt>
      <trkpt lat="44.73155" lon="5.55254">
        <ele>812.4</ele>
        <time>2018-04-04T09:57:13Z</time>
      </trkpt>
      <trkpt lat="44.73252" lon="5.55277">
        <ele>828.2</ele>
        <time>2018-04-04T09:57:13Z</time>
      </trkpt>
      <trkpt lat="44.73367" lon="5.55313">
        <ele>837.6</ele>
        <time>2018-04-04T09:57:13Z</time>
      </trkpt>
      <trkpt lat="44.73435" lon="5.55327">
        <ele>838.1</ele>
        <time>2018-04-04T09:57:13Z</time>
      </trkpt>
      <trkpt lat="44.73446" lon="5.55333">
        <ele>839.7</ele>
      </trkpt>
      <trkpt lat="44.73455" lon="5.5534">
        <ele>842.3</ele>
      </trkpt>
      <trkpt lat="44.73461" lon="5.55344">
        <ele>843.7</ele>
      </trkpt>
      <trkpt lat="44.7347" lon="5.55351">
        <ele>845.9</ele>
      </trkpt>
      <trkpt lat="44.73479" lon="5.55354">
        <ele>847</ele>
      </trkpt>
      <trkpt lat="44.73488" lon="5.55361">
        <ele>848.7</ele>
      </trkpt>
      <trkpt lat="44.73497" lon="5.55365">
        <ele>849.4</ele>
      </trkpt>
      <trkpt lat="44.73506" lon="5.55368">
        <ele>850.8</ele>
      </trkpt>
      <trkpt lat="44.73514" lon="5.55375">
        <ele>853.1</ele>
      </trkpt>
      <trkpt lat="44.73521" lon="5.55379">
        <ele>854.4</ele>
      </trkpt>
      <trkpt lat="44.7353" lon="5.55383">
        <ele>855.5</ele>
      </trkpt>
      <trkpt lat="44.73539" lon="5.55389">
        <ele>857.1</ele>
      </trkpt>
      <trkpt lat="44.73547" lon="5.55396">
        <ele>858.2</ele>
      </trkpt>
      <trkpt lat="44.73556" lon="5.554">
        <ele>858.7</ele>
      </trkpt>
      <trkpt lat="44.73563" lon="5.55403">
        <ele>858.9</ele>
      </trkpt>
      <trkpt lat="44.73572" lon="5.5541">
        <ele>859.2</ele>
      </trkpt>
      <trkpt lat="44.73581" lon="5.55414">
        <ele>859</ele>
      </trkpt>
      <trkpt lat="44.73587" lon="5.55417">
        <ele>859.5</ele>
      </trkpt>
      <trkpt lat="44.73596" lon="5.55418">
        <ele>860.7</ele>
      </trkpt>
      <trkpt lat="44.73605" lon="5.55422">
        <ele>861.9</ele>
      </trkpt>
      <trkpt lat="44.73614" lon="5.55422">
        <ele>863</ele>
      </trkpt>
      <trkpt lat="44.73623" lon="5.55429">
        <ele>864.3</ele>
      </trkpt>
      <trkpt lat="44.73632" lon="5.55429">
        <ele>865.2</ele>
      </trkpt>
      <trkpt lat="44.73641" lon="5.55436">
        <ele>866.2</ele>
      </trkpt>
      <trkpt lat="44.7365" lon="5.5544">
        <ele>866.9</ele>
      </trkpt>
      <trkpt lat="44.73659" lon="5.55444">
        <ele>867.5</ele>
      </trkpt>
      <trkpt lat="44.73667" lon="5.55442">
        <ele>868.2</ele>
        <time>2019-09-25T17:20:27Z</time>
      </trkpt>
      <trkpt lat="44.7369" lon="5.55441">
        <ele>871.9</ele>
        <time>2019-09-25T17:20:27Z</time>
      </trkpt>
      <trkpt lat="44.73699" lon="5.55413">
        <ele>876.2</ele>
        <time>2019-09-25T17:20:27Z</time>
      </trkpt>
      <trkpt lat="44.7371" lon="5.55394">
        <ele>881.5</ele>
        <time>2019-09-25T17:20:27Z</time>
      </trkpt>
      <trkpt lat="44.73717" lon="5.55352">
        <ele>891.2</ele>
        <time>2019-09-25T17:20:27Z</time>
      </trkpt>
      <trkpt lat="44.73718" lon="5.55306">
        <ele>893.3</ele>
        <time>2019-09-25T17:20:27Z</time>
      </trkpt>
      <trkpt lat="44.7371" lon="5.55268">
        <ele>887.8</ele>
        <time>2019-09-25T17:20:27Z</time>
      </trkpt>
      <trkpt lat="44.7369" lon="5.5523">
        <ele>874</ele>
        <time>2019-09-25T17:20:27Z</time>
      </trkpt>
      <trkpt lat="44.73707" lon="5.55209">
        <ele>873.1</ele>
        <time>2019-09-25T17:20:27Z</time>
      </trkpt>
      <trkpt lat="44.73727" lon="5.55188">
        <ele>871.9</ele>
        <time>2019-09-25T17:20:27Z</time>
      </trkpt>
      <trkpt lat="44.73744" lon="5.55164">
        <ele>867.5</ele>
        <time>2019-09-25T17:20:27Z</time>
      </trkpt>
      <trkpt lat="44.73754" lon="5.55142">
        <ele>863.5</ele>
        <time>2019-09-25T17:20:27Z</time>
      </trkpt>
      <trkpt lat="44.73755" lon="5.55129">
        <ele>859.6</ele>
        <time>2019-09-25T17:20:27Z</time>
      </trkpt>
      <trkpt lat="44.73786" lon="5.55096">
        <ele>856.1</ele>
        <time>2019-09-25T17:20:27Z</time>
      </trkpt>
      <trkpt lat="44.73813" lon="5.55077">
        <ele>857.1</ele>
        <time>2019-09-25T17:20:27Z</time>
      </trkpt>
      <trkpt lat="44.7385" lon="5.55053">
        <ele>861.3</ele>
        <time>2019-09-25T17:20:27Z</time>
      </trkpt>
      <trkpt lat="44.73873" lon="5.55048">
        <ele>866.5</ele>
        <time>2019-09-25T17:20:27Z</time>
      </trkpt>
      <trkpt lat="44.73897" lon="5.55047">
        <ele>873.5</ele>
      </trkpt>
      <trkpt lat="44.73907" lon="5.55041">
        <ele>874.3</ele>
      </trkpt>
      <trkpt lat="44.73916" lon="5.55035">
        <ele>875.4</ele>
      </trkpt>
      <trkpt lat="44.73925" lon="5.55029">
        <ele>876.9</ele>
      </trkpt>
      <trkpt lat="44.73934" lon="5.55024">
        <ele>878.8</ele>
      </trkpt>
      <trkpt lat="44.73941" lon="5.55018">
        <ele>879.3</ele>
      </trkpt>
      <trkpt lat="44.7395" lon="5.55012">
        <ele>881</ele>
      </trkpt>
      <trkpt lat="44.73959" lon="5.55009">
        <ele>883.5</ele>
      </trkpt>
      <trkpt lat="44.73968" lon="5.55004">
        <ele>884.6</ele>
      </trkpt>
      <trkpt lat="44.73978" lon="5.54995">
        <ele>886</ele>
      </trkpt>
      <trkpt lat="44.73987" lon="5.54992">
        <ele>888.4</ele>
      </trkpt>
      <trkpt lat="44.73994" lon="5.54986">
        <ele>889.6</ele>
      </trkpt>
      <trkpt lat="44.74003" lon="5.5498">
        <ele>891.9</ele>
      </trkpt>
      <trkpt lat="44.7401" lon="5.54974">
        <ele>894.6</ele>
      </trkpt>
      <trkpt lat="44.74017" lon="5.54965">
        <ele>896.5</ele>
      </trkpt>
      <trkpt lat="44.74024" lon="5.54956">
        <ele>898</ele>
      </trkpt>
      <trkpt lat="44.74029" lon="5.54947">
        <ele>898.3</ele>
      </trkpt>
      <trkpt lat="44.74038" lon="5.54935">
        <ele>900.2</ele>
      </trkpt>
      <trkpt lat="44.74045" lon="5.54929">
        <ele>901.9</ele>
      </trkpt>
      <trkpt lat="44.7405" lon="5.5492">
        <ele>901.8</ele>
      </trkpt>
      <trkpt lat="44.74052" lon="5.5491">
        <ele>900.8</ele>
      </trkpt>
      <trkpt lat="44.74061" lon="5.54902">
        <ele>902.9</ele>
      </trkpt>
      <trkpt lat="44.74066" lon="5.54889">
        <ele>901.6</ele>
      </trkpt>
      <trkpt lat="44.74069" lon="5.54877">
        <ele>899.4</ele>
      </trkpt>
      <trkpt lat="44.74072" lon="5.54864">
        <ele>896.8</ele>
      </trkpt>
      <trkpt lat="44.74072" lon="5.54848">
        <ele>892.4</ele>
      </trkpt>
      <trkpt lat="44.74077" lon="5.54836">
        <ele>890.7</ele>
      </trkpt>
      <trkpt lat="44.74082" lon="5.54824">
        <ele>890.1</ele>
      </trkpt>
      <trkpt lat="44.74089" lon="5.54812">
        <ele>891.1</ele>
      </trkpt>
      <trkpt lat="44.74096" lon="5.54802">
        <ele>892.4</ele>
      </trkpt>
      <trkpt lat="44.74105" lon="5.54794">
        <ele>894.3</ele>
      </trkpt>
      <trkpt lat="44.7411" lon="5.54784">
        <ele>894.5</ele>
      </trkpt>
      <trkpt lat="44.74117" lon="5.54775">
        <ele>895.3</ele>
      </trkpt>
      <trkpt lat="44.74124" lon="5.54763">
        <ele>895.5</ele>
      </trkpt>
      <trkpt lat="44.74131" lon="5.54751">
        <ele>895.4</ele>
      </trkpt>
      <trkpt lat="44.74136" lon="5.54742">
        <ele>896.3</ele>
      </trkpt>
      <trkpt lat="44.74141" lon="5.54729">
        <ele>897</ele>
      </trkpt>
      <trkpt lat="44.74134" lon="5.54719">
        <ele>894.6</ele>
      </trkpt>
      <trkpt lat="44.74128" lon="5.54706">
        <ele>892.4</ele>
      </trkpt>
      <trkpt lat="44.74121" lon="5.547">
        <ele>890.5</ele>
      </trkpt>
      <trkpt lat="44.74117" lon="5.5469">
        <ele>889.2</ele>
      </trkpt>
      <trkpt lat="44.74111" lon="5.5468">
        <ele>887.6</ele>
      </trkpt>
      <trkpt lat="44.74109" lon="5.54671">
        <ele>887</ele>
      </trkpt>
      <trkpt lat="44.74105" lon="5.54658">
        <ele>888.1</ele>
      </trkpt>
      <trkpt lat="44.74098" lon="5.54648">
        <ele>889.3</ele>
      </trkpt>
      <trkpt lat="44.74096" lon="5.54638">
        <ele>891</ele>
      </trkpt>
      <trkpt lat="44.7409" lon="5.54628">
        <ele>892.4</ele>
      </trkpt>
      <trkpt lat="44.74081" lon="5.54622">
        <ele>892.7</ele>
      </trkpt>
      <trkpt lat="44.74072" lon="5.54615">
        <ele>893.7</ele>
      </trkpt>
      <trkpt lat="44.74063" lon="5.54605">
        <ele>895.7</ele>
      </trkpt>
      <trkpt lat="44.74054" lon="5.54604">
        <ele>895.2</ele>
      </trkpt>
      <trkpt lat="44.74045" lon="5.54604">
        <ele>895</ele>
      </trkpt>
      <trkpt lat="44.74034" lon="5.54603">
        <ele>894.3</ele>
      </trkpt>
      <trkpt lat="44.74027" lon="5.54609">
        <ele>892.4</ele>
      </trkpt>
      <trkpt lat="44.74018" lon="5.54615">
        <ele>889.9</ele>
      </trkpt>
      <trkpt lat="44.74009" lon="5.54614">
        <ele>889.6</ele>
      </trkpt>
      <trkpt lat="44.73998" lon="5.54614">
        <ele>889.2</ele>
      </trkpt>
      <trkpt lat="44.73989" lon="5.54613">
        <ele>890</ele>
      </trkpt>
      <trkpt lat="44.7398" lon="5.54613">
        <ele>891.2</ele>
      </trkpt>
      <trkpt lat="44.73971" lon="5.54612">
        <ele>891.9</ele>
      </trkpt>
      <trkpt lat="44.73962" lon="5.54615">
        <ele>891.8</ele>
      </trkpt>
      <trkpt lat="44.73953" lon="5.54624">
        <ele>889.4</ele>
      </trkpt>
      <trkpt lat="44.73946" lon="5.54633">
        <ele>886.6</ele>
      </trkpt>
      <trkpt lat="44.73939" lon="5.54639">
        <ele>885.1</ele>
      </trkpt>
      <trkpt lat="44.73932" lon="5.54642">
        <ele>884.5</ele>
      </trkpt>
      <trkpt lat="44.73923" lon="5.54638">
        <ele>886.5</ele>
      </trkpt>
      <trkpt lat="44.73914" lon="5.5464">
        <ele>886.6</ele>
      </trkpt>
      <trkpt lat="44.73909" lon="5.5465">
        <ele>883.8</ele>
      </trkpt>
      <trkpt lat="44.73907" lon="5.54659">
        <ele>880.8</ele>
      </trkpt>
      <trkpt lat="44.73902" lon="5.54668">
        <ele>878.6</ele>
      </trkpt>
      <trkpt lat="44.73895" lon="5.54671">
        <ele>879.7</ele>
      </trkpt>
      <trkpt lat="44.73886" lon="5.5467">
        <ele>881.9</ele>
      </trkpt>
      <trkpt lat="44.73877" lon="5.5467">
        <ele>884.6</ele>
      </trkpt>
      <trkpt lat="44.73868" lon="5.54669">
        <ele>887</ele>
      </trkpt>
      <trkpt lat="44.73859" lon="5.54669">
        <ele>889.7</ele>
      </trkpt>
      <trkpt lat="44.73852" lon="5.54672">
        <ele>890.4</ele>
      </trkpt>
      <trkpt lat="44.73843" lon="5.54674">
        <ele>891</ele>
      </trkpt>
      <trkpt lat="44.73836" lon="5.54677">
        <ele>891.4</ele>
      </trkpt>
      <trkpt lat="44.73827" lon="5.54683">
        <ele>891.1</ele>
      </trkpt>
      <trkpt lat="44.73818" lon="5.54679">
        <ele>895.2</ele>
      </trkpt>
      <trkpt lat="44.73809" lon="5.54676">
        <ele>899.2</ele>
      </trkpt>
      <trkpt lat="44.73798" lon="5.54675">
        <ele>901.9</ele>
      </trkpt>
      <trkpt lat="44.73789" lon="5.54674">
        <ele>904.1</ele>
      </trkpt>
      <trkpt lat="44.73782" lon="5.54671">
        <ele>907.7</ele>
      </trkpt>
      <trkpt lat="44.73774" lon="5.54667">
        <ele>912.1</ele>
      </trkpt>
      <trkpt lat="44.73765" lon="5.54664">
        <ele>916.3</ele>
      </trkpt>
      <trkpt lat="44.73756" lon="5.54663">
        <ele>918.5</ele>
      </trkpt>
      <trkpt lat="44.73749" lon="5.54659">
        <ele>922</ele>
      </trkpt>
      <trkpt lat="44.7374" lon="5.54656">
        <ele>924.8</ele>
      </trkpt>
      <trkpt lat="44.73731" lon="5.54655">
        <ele>925.7</ele>
      </trkpt>
      <trkpt lat="44.73722" lon="5.54652">
        <ele>928.5</ele>
      </trkpt>
      <trkpt lat="44.73713" lon="5.54645">
        <ele>932.7</ele>
      </trkpt>
      <trkpt lat="44.73705" lon="5.54638">
        <ele>936.8</ele>
      </trkpt>
      <trkpt lat="44.73696" lon="5.54631">
        <ele>941.6</ele>
      </trkpt>
      <trkpt lat="44.73689" lon="5.54628">
        <ele>943.5</ele>
      </trkpt>
      <trkpt lat="44.73683" lon="5.54621">
        <ele>947.4</ele>
      </trkpt>
      <trkpt lat="44.73676" lon="5.54617">
        <ele>950</ele>
      </trkpt>
      <trkpt lat="44.73667" lon="5.54614">
        <ele>952.9</ele>
      </trkpt>
      <trkpt lat="44.73658" lon="5.54604">
        <ele>957</ele>
      </trkpt>
      <trkpt lat="44.73652" lon="5.546">
        <ele>957.4</ele>
      </trkpt>
      <trkpt lat="44.73643" lon="5.54593">
        <ele>960</ele>
      </trkpt>
      <trkpt lat="44.73639" lon="5.54581">
        <ele>966.2</ele>
      </trkpt>
      <trkpt lat="44.73637" lon="5.54565">
        <ele>974.7</ele>
      </trkpt>
      <trkpt lat="44.73626" lon="5.54555">
        <ele>978.1</ele>
      </trkpt>
      <trkpt lat="44.73619" lon="5.54551">
        <ele>979.3</ele>
      </trkpt>
      <trkpt lat="44.73611" lon="5.54544">
        <ele>981.5</ele>
      </trkpt>
      <trkpt lat="44.73602" lon="5.54537">
        <ele>984.4</ele>
      </trkpt>
      <trkpt lat="44.73593" lon="5.54531">
        <ele>986.5</ele>
      </trkpt>
      <trkpt lat="44.73586" lon="5.54527">
        <ele>987.4</ele>
      </trkpt>
      <trkpt lat="44.73578" lon="5.5452">
        <ele>988.4</ele>
      </trkpt>
      <trkpt lat="44.73569" lon="5.54517">
        <ele>987.3</ele>
      </trkpt>
      <trkpt lat="44.7356" lon="5.5451">
        <ele>987.7</ele>
      </trkpt>
      <trkpt lat="44.73553" lon="5.54503">
        <ele>988.8</ele>
      </trkpt>
      <trkpt lat="44.73544" lon="5.54496">
        <ele>988.8</ele>
      </trkpt>
      <trkpt lat="44.73538" lon="5.54493">
        <ele>988.1</ele>
      </trkpt>
      <trkpt lat="44.73529" lon="5.54486">
        <ele>987.8</ele>
      </trkpt>
      <trkpt lat="44.73518" lon="5.54476">
        <ele>988.6</ele>
      </trkpt>
      <trkpt lat="44.73511" lon="5.54469">
        <ele>989</ele>
      </trkpt>
      <trkpt lat="44.73503" lon="5.54462">
        <ele>988.7</ele>
      </trkpt>
      <trkpt lat="44.73411" lon="5.54435">
        <ele>977.3</ele>
      </trkpt>
      <trkpt lat="44.73407" lon="5.54425">
        <ele>981.5</ele>
      </trkpt>
      <trkpt lat="44.73398" lon="5.54415">
        <ele>984</ele>
      </trkpt>
      <trkpt lat="44.73394" lon="5.54405">
        <ele>987.3</ele>
      </trkpt>
      <trkpt lat="44.73388" lon="5.54396">
        <ele>989.9</ele>
      </trkpt>
      <trkpt lat="44.73381" lon="5.54392">
        <ele>989.4</ele>
      </trkpt>
      <trkpt lat="44.73374" lon="5.54389">
        <ele>989.3</ele>
      </trkpt>
      <trkpt lat="44.73365" lon="5.54382">
        <ele>989.6</ele>
      </trkpt>
      <trkpt lat="44.73357" lon="5.54372">
        <ele>991.1</ele>
      </trkpt>
      <trkpt lat="44.7335" lon="5.54365">
        <ele>991.6</ele>
      </trkpt>
      <trkpt lat="44.73341" lon="5.54358">
        <ele>991.5</ele>
      </trkpt>
      <trkpt lat="44.73333" lon="5.54351">
        <ele>991.2</ele>
      </trkpt>
      <trkpt lat="44.73324" lon="5.54348">
        <ele>991.1</ele>
      </trkpt>
      <trkpt lat="44.73315" lon="5.54338">
        <ele>992.9</ele>
      </trkpt>
      <trkpt lat="44.73306" lon="5.54334">
        <ele>992.8</ele>
      </trkpt>
      <trkpt lat="44.73297" lon="5.5433">
        <ele>992.7</ele>
      </trkpt>
      <trkpt lat="44.73288" lon="5.54327">
        <ele>992.2</ele>
      </trkpt>
      <trkpt lat="44.7328" lon="5.5432">
        <ele>993.4</ele>
      </trkpt>
      <trkpt lat="44.73271" lon="5.54313">
        <ele>994.2</ele>
      </trkpt>
      <trkpt lat="44.73262" lon="5.54306">
        <ele>994.9</ele>
      </trkpt>
      <trkpt lat="44.73253" lon="5.543">
        <ele>995.5</ele>
      </trkpt>
      <trkpt lat="44.73246" lon="5.54296">
        <ele>995.9</ele>
      </trkpt>
      <trkpt lat="44.7324" lon="5.54292">
        <ele>996.5</ele>
      </trkpt>
      <trkpt lat="44.73231" lon="5.54286">
        <ele>997.8</ele>
      </trkpt>
      <trkpt lat="44.73224" lon="5.54279">
        <ele>999.2</ele>
      </trkpt>
      <trkpt lat="44.73218" lon="5.54275">
        <ele>999.7</ele>
      </trkpt>
      <trkpt lat="44.73211" lon="5.54272">
        <ele>1000.3</ele>
      </trkpt>
      <trkpt lat="44.73202" lon="5.54271">
        <ele>999.4</ele>
      </trkpt>
      <trkpt lat="44.73191" lon="5.54271">
        <ele>998.2</ele>
      </trkpt>
      <trkpt lat="44.73182" lon="5.54267">
        <ele>998.5</ele>
      </trkpt>
      <trkpt lat="44.73173" lon="5.5426">
        <ele>1000</ele>
      </trkpt>
      <trkpt lat="44.73164" lon="5.54253">
        <ele>1000.9</ele>
      </trkpt>
      <trkpt lat="44.73156" lon="5.54247">
        <ele>1001.7</ele>
      </trkpt>
      <trkpt lat="44.73147" lon="5.5424">
        <ele>1002.3</ele>
      </trkpt>
      <trkpt lat="44.73138" lon="5.5423">
        <ele>1003.8</ele>
      </trkpt>
      <trkpt lat="44.73132" lon="5.54223">
        <ele>1004.4</ele>
      </trkpt>
      <trkpt lat="44.73125" lon="5.54213">
        <ele>1005.9</ele>
      </trkpt>
      <trkpt lat="44.73119" lon="5.54207">
        <ele>1006.3</ele>
      </trkpt>
      <trkpt lat="44.73112" lon="5.542">
        <ele>1006.7</ele>
      </trkpt>
      <trkpt lat="44.73106" lon="5.54187">
        <ele>1008.4</ele>
      </trkpt>
      <trkpt lat="44.73099" lon="5.54177">
        <ele>1009.1</ele>
      </trkpt>
      <trkpt lat="44.7309" lon="5.54167">
        <ele>1009.5</ele>
      </trkpt>
      <trkpt lat="44.73088" lon="5.54158">
        <ele>1010.2</ele>
      </trkpt>
      <trkpt lat="44.73084" lon="5.54145">
        <ele>1010.9</ele>
      </trkpt>
      <trkpt lat="44.73078" lon="5.54135">
        <ele>1011.1</ele>
      </trkpt>
      <trkpt lat="44.73071" lon="5.54128">
        <ele>1011</ele>
      </trkpt>
      <trkpt lat="44.73063" lon="5.54121">
        <ele>1010.4</ele>
      </trkpt>
      <trkpt lat="44.73056" lon="5.54115">
        <ele>1010.2</ele>
      </trkpt>
      <trkpt lat="44.73049" lon="5.54105">
        <ele>1010.4</ele>
      </trkpt>
      <trkpt lat="44.73045" lon="5.54095">
        <ele>1010.8</ele>
      </trkpt>
      <trkpt lat="44.73043" lon="5.54085">
        <ele>1011.6</ele>
      </trkpt>
      <trkpt lat="44.73039" lon="5.54076">
        <ele>1011.8</ele>
      </trkpt>
      <trkpt lat="44.73033" lon="5.54066">
        <ele>1011.6</ele>
      </trkpt>
      <trkpt lat="44.73028" lon="5.54056">
        <ele>1011.8</ele>
      </trkpt>
      <trkpt lat="44.7302" lon="5.54043">
        <ele>1011.4</ele>
      </trkpt>
      <trkpt lat="44.73016" lon="5.5403">
        <ele>1011.6</ele>
      </trkpt>
      <trkpt lat="44.73016" lon="5.54018">
        <ele>1012.7</ele>
      </trkpt>
      <trkpt lat="44.73021" lon="5.54005">
        <ele>1014.6</ele>
      </trkpt>
      <trkpt lat="44.73023" lon="5.53993">
        <ele>1016.4</ele>
      </trkpt>
      <trkpt lat="44.7303" lon="5.5399">
        <ele>1018</ele>
      </trkpt>
      <trkpt lat="44.73037" lon="5.53987">
        <ele>1019.6</ele>
      </trkpt>
      <trkpt lat="44.73046" lon="5.53991">
        <ele>1020.9</ele>
      </trkpt>
      <trkpt lat="44.73053" lon="5.53994">
        <ele>1021.9</ele>
      </trkpt>
      <trkpt lat="44.73062" lon="5.53998">
        <ele>1023.2</ele>
      </trkpt>
      <trkpt lat="44.7307" lon="5.54005">
        <ele>1024.2</ele>
      </trkpt>
      <trkpt lat="44.73077" lon="5.54012">
        <ele>1024.6</ele>
      </trkpt>
      <trkpt lat="44.73083" lon="5.54022">
        <ele>1024.7</ele>
      </trkpt>
      <trkpt lat="44.73088" lon="5.54031">
        <ele>1025.1</ele>
      </trkpt>
      <trkpt lat="44.73096" lon="5.54044">
        <ele>1026.5</ele>
      </trkpt>
      <trkpt lat="44.73101" lon="5.54035">
        <ele>1029.4</ele>
      </trkpt>
      <trkpt lat="44.73099" lon="5.54019">
        <ele>1030.9</ele>
      </trkpt>
      <trkpt lat="44.73097" lon="5.54007">
        <ele>1031.7</ele>
      </trkpt>
      <trkpt lat="44.73093" lon="5.53994">
        <ele>1031.8</ele>
      </trkpt>
      <trkpt lat="44.73089" lon="5.53981">
        <ele>1031.6</ele>
      </trkpt>
      <trkpt lat="44.73092" lon="5.53968">
        <ele>1034.2</ele>
      </trkpt>
      <trkpt lat="44.73092" lon="5.53956">
        <ele>1035.7</ele>
      </trkpt>
      <trkpt lat="44.73093" lon="5.5394">
        <ele>1037.9</ele>
      </trkpt>
      <trkpt lat="44.73093" lon="5.53927">
        <ele>1039.5</ele>
      </trkpt>
      <trkpt lat="44.73089" lon="5.53914">
        <ele>1039.5</ele>
      </trkpt>
      <trkpt lat="44.73087" lon="5.53905">
        <ele>1040.1</ele>
      </trkpt>
      <trkpt lat="44.73087" lon="5.53892">
        <ele>1042.1</ele>
      </trkpt>
      <trkpt lat="44.73088" lon="5.53877">
        <ele>1044.6</ele>
      </trkpt>
      <trkpt lat="44.73088" lon="5.53864">
        <ele>1046.8</ele>
      </trkpt>
      <trkpt lat="44.73086" lon="5.53851">
        <ele>1047.8</ele>
      </trkpt>
      <trkpt lat="44.7308" lon="5.53841">
        <ele>1047.1</ele>
      </trkpt>
      <trkpt lat="44.73078" lon="5.53829">
        <ele>1048.9</ele>
      </trkpt>
      <trkpt lat="44.73076" lon="5.53819">
        <ele>1050.4</ele>
      </trkpt>
      <trkpt lat="44.73074" lon="5.53806">
        <ele>1052.7</ele>
      </trkpt>
      <trkpt lat="44.73072" lon="5.53794">
        <ele>1055</ele>
      </trkpt>
      <trkpt lat="44.73072" lon="5.53781">
        <ele>1058</ele>
      </trkpt>
      <trkpt lat="44.73073" lon="5.53768">
        <ele>1060.6</ele>
      </trkpt>
      <trkpt lat="44.73075" lon="5.53753">
        <ele>1064.8</ele>
      </trkpt>
      <trkpt lat="44.73074" lon="5.5374">
        <ele>1068</ele>
      </trkpt>
      <trkpt lat="44.73072" lon="5.5373">
        <ele>1070.1</ele>
      </trkpt>
      <trkpt lat="44.73068" lon="5.53718">
        <ele>1072.7</ele>
      </trkpt>
      <trkpt lat="44.73061" lon="5.53705">
        <ele>1074.2</ele>
      </trkpt>
      <trkpt lat="44.73057" lon="5.53695">
        <ele>1075.6</ele>
      </trkpt>
      <trkpt lat="44.73053" lon="5.53682">
        <ele>1077.6</ele>
      </trkpt>
      <trkpt lat="44.73053" lon="5.53669">
        <ele>1081.2</ele>
      </trkpt>
      <trkpt lat="44.73054" lon="5.53657">
        <ele>1084.7</ele>
      </trkpt>
      <trkpt lat="44.73047" lon="5.53644">
        <ele>1084.8</ele>
      </trkpt>
      <trkpt lat="44.73041" lon="5.53634">
        <ele>1084.3</ele>
      </trkpt>
      <trkpt lat="44.73036" lon="5.53624">
        <ele>1084.4</ele>
      </trkpt>
      <trkpt lat="44.73037" lon="5.53612">
        <ele>1087.4</ele>
      </trkpt>
      <trkpt lat="44.73035" lon="5.53599">
        <ele>1089.1</ele>
      </trkpt>
      <trkpt lat="44.73031" lon="5.53586">
        <ele>1090</ele>
      </trkpt>
      <trkpt lat="44.73024" lon="5.53576">
        <ele>1088.6</ele>
      </trkpt>
      <trkpt lat="44.73018" lon="5.53566">
        <ele>1086.8</ele>
      </trkpt>
      <trkpt lat="44.73016" lon="5.53554">
        <ele>1088</ele>
      </trkpt>
      <trkpt lat="44.73016" lon="5.53541">
        <ele>1090.3</ele>
      </trkpt>
      <trkpt lat="44.73012" lon="5.53528">
        <ele>1090.4</ele>
      </trkpt>
      <trkpt lat="44.7301" lon="5.53515">
        <ele>1091.4</ele>
      </trkpt>
      <trkpt lat="44.73002" lon="5.53505">
        <ele>1088.1</ele>
      </trkpt>
      <trkpt lat="44.72997" lon="5.53496">
        <ele>1088.8</ele>
      </trkpt>
      <trkpt lat="44.72998" lon="5.53483">
        <ele>1092.4</ele>
      </trkpt>
      <trkpt lat="44.72998" lon="5.5347">
        <ele>1096.3</ele>
      </trkpt>
      <trkpt lat="44.72994" lon="5.53461">
        <ele>1098.1</ele>
      </trkpt>
      <trkpt lat="44.72992" lon="5.53451">
        <ele>1099.9</ele>
      </trkpt>
      <trkpt lat="44.72988" lon="5.53438">
        <ele>1102.3</ele>
      </trkpt>
      <trkpt lat="44.72981" lon="5.53425">
        <ele>1103.5</ele>
      </trkpt>
      <trkpt lat="44.72975" lon="5.53419">
        <ele>1102.7</ele>
      </trkpt>
      <trkpt lat="44.72971" lon="5.53409">
        <ele>1104.1</ele>
      </trkpt>
      <trkpt lat="44.72964" lon="5.53399">
        <ele>1105.2</ele>
      </trkpt>
      <trkpt lat="44.72958" lon="5.53389">
        <ele>1105.8</ele>
      </trkpt>
      <trkpt lat="44.72951" lon="5.53386">
        <ele>1104.5</ele>
      </trkpt>
      <trkpt lat="44.72945" lon="5.53379">
        <ele>1104.1</ele>
      </trkpt>
      <trkpt lat="44.72936" lon="5.53372">
        <ele>1102.7</ele>
      </trkpt>
      <trkpt lat="44.72927" lon="5.53369">
        <ele>1100.3</ele>
      </trkpt>
      <trkpt lat="44.72923" lon="5.53359">
        <ele>1102.2</ele>
      </trkpt>
      <trkpt lat="44.72918" lon="5.53349">
        <ele>1103.6</ele>
      </trkpt>
      <trkpt lat="44.72921" lon="5.5334">
        <ele>1107.6</ele>
      </trkpt>
      <trkpt lat="44.72915" lon="5.53327">
        <ele>1108.4</ele>
      </trkpt>
      <trkpt lat="44.72908" lon="5.5332">
        <ele>1107.4</ele>
      </trkpt>
      <trkpt lat="44.72906" lon="5.53311">
        <ele>1108.3</ele>
      </trkpt>
      <trkpt lat="44.72906" lon="5.53298">
        <ele>1110.6</ele>
      </trkpt>
      <trkpt lat="44.72907" lon="5.53285">
        <ele>1112.7</ele>
      </trkpt>
      <trkpt lat="44.72903" lon="5.53272">
        <ele>1113.5</ele>
      </trkpt>
      <trkpt lat="44.72896" lon="5.53263">
        <ele>1113.1</ele>
      </trkpt>
      <trkpt lat="44.72894" lon="5.53253">
        <ele>1114</ele>
      </trkpt>
      <trkpt lat="44.7289" lon="5.53243">
        <ele>1112.9</ele>
      </trkpt>
      <trkpt lat="44.72895" lon="5.53231">
        <ele>1114.4</ele>
      </trkpt>
      <trkpt lat="44.729" lon="5.53219">
        <ele>1115.9</ele>
      </trkpt>
      <trkpt lat="44.72905" lon="5.53206">
        <ele>1117.3</ele>
      </trkpt>
      <trkpt lat="44.72907" lon="5.53194">
        <ele>1118.1</ele>
      </trkpt>
      <trkpt lat="44.72908" lon="5.53181">
        <ele>1118</ele>
      </trkpt>
      <trkpt lat="44.7291" lon="5.53172">
        <ele>1118.8</ele>
      </trkpt>
      <trkpt lat="44.72913" lon="5.53163">
        <ele>1118.5</ele>
      </trkpt>
      <trkpt lat="44.72915" lon="5.53153">
        <ele>1117.3</ele>
      </trkpt>
      <trkpt lat="44.72918" lon="5.53141">
        <ele>1115.6</ele>
      </trkpt>
      <trkpt lat="44.72909" lon="5.53137">
        <ele>1111.9</ele>
      </trkpt>
      <trkpt lat="44.73015" lon="5.53061">
        <ele>1127.9</ele>
      </trkpt>
      <trkpt lat="44.73017" lon="5.53045">
        <ele>1125.3</ele>
      </trkpt>
      <trkpt lat="44.73027" lon="5.53033">
        <ele>1126.8</ele>
      </trkpt>
      <trkpt lat="44.73029" lon="5.53021">
        <ele>1125.6</ele>
      </trkpt>
      <trkpt lat="44.73036" lon="5.53009">
        <ele>1126.2</ele>
      </trkpt>
      <trkpt lat="44.73039" lon="5.52999">
        <ele>1125.4</ele>
      </trkpt>
      <trkpt lat="44.73046" lon="5.5299">
        <ele>1127</ele>
      </trkpt>
      <trkpt lat="44.73046" lon="5.52978">
        <ele>1124.8</ele>
      </trkpt>
      <trkpt lat="44.73051" lon="5.52968">
        <ele>1125.4</ele>
      </trkpt>
      <trkpt lat="44.73058" lon="5.52956">
        <ele>1126.5</ele>
      </trkpt>
      <trkpt lat="44.73058" lon="5.52944">
        <ele>1124.5</ele>
      </trkpt>
      <trkpt lat="44.73059" lon="5.52931">
        <ele>1122.5</ele>
      </trkpt>
      <trkpt lat="44.73061" lon="5.52918">
        <ele>1121.5</ele>
      </trkpt>
      <trkpt lat="44.73064" lon="5.52909">
        <ele>1120.5</ele>
      </trkpt>
      <trkpt lat="44.73064" lon="5.52897">
        <ele>1117.3</ele>
      </trkpt>
      <trkpt lat="44.73065" lon="5.52884">
        <ele>1114.1</ele>
      </trkpt>
      <trkpt lat="44.7306" lon="5.52874">
        <ele>1109.8</ele>
      </trkpt>
      <trkpt lat="44.73061" lon="5.52862">
        <ele>1106.6</ele>
      </trkpt>
      <trkpt lat="44.73066" lon="5.52852">
        <ele>1106.2</ele>
      </trkpt>
      <trkpt lat="44.73073" lon="5.52843">
        <ele>1106.9</ele>
      </trkpt>
      <trkpt lat="44.7308" lon="5.52834">
        <ele>1107.5</ele>
      </trkpt>
      <trkpt lat="44.73087" lon="5.52828">
        <ele>1109.1</ele>
      </trkpt>
      <trkpt lat="44.73091" lon="5.52819">
        <ele>1109</ele>
      </trkpt>
      <trkpt lat="44.73094" lon="5.5281">
        <ele>1107.4</ele>
      </trkpt>
      <trkpt lat="44.73096" lon="5.52801">
        <ele>1105.8</ele>
      </trkpt>
      <trkpt lat="44.73106" lon="5.52795">
        <ele>1109.1</ele>
      </trkpt>
      <trkpt lat="44.7311" lon="5.52786">
        <ele>1109.1</ele>
      </trkpt>
      <trkpt lat="44.73115" lon="5.52776">
        <ele>1109.1</ele>
      </trkpt>
      <trkpt lat="44.7312" lon="5.52767">
        <ele>1108.9</ele>
      </trkpt>
      <trkpt lat="44.73125" lon="5.52758">
        <ele>1109</ele>
      </trkpt>
      <trkpt lat="44.73129" lon="5.52746">
        <ele>1108.4</ele>
      </trkpt>
      <trkpt lat="44.73132" lon="5.52733">
        <ele>1107.4</ele>
      </trkpt>
      <trkpt lat="44.73139" lon="5.52724">
        <ele>1109.3</ele>
      </trkpt>
      <trkpt lat="44.73148" lon="5.52715">
        <ele>1112.7</ele>
      </trkpt>
      <trkpt lat="44.73151" lon="5.52706">
        <ele>1112.2</ele>
      </trkpt>
      <trkpt lat="44.73153" lon="5.52696">
        <ele>1111.4</ele>
      </trkpt>
      <trkpt lat="44.73154" lon="5.52684">
        <ele>1109.1</ele>
      </trkpt>
      <trkpt lat="44.73156" lon="5.52671">
        <ele>1107.9</ele>
      </trkpt>
      <trkpt lat="44.73159" lon="5.52656">
        <ele>1106.5</ele>
      </trkpt>
      <trkpt lat="44.73159" lon="5.52643">
        <ele>1104.2</ele>
      </trkpt>
      <trkpt lat="44.7316" lon="5.5263">
        <ele>1102.1</ele>
      </trkpt>
      <trkpt lat="44.7316" lon="5.52615">
        <ele>1099.3</ele>
      </trkpt>
      <trkpt lat="44.73161" lon="5.52602">
        <ele>1097</ele>
      </trkpt>
      <trkpt lat="44.73163" lon="5.5259">
        <ele>1096.2</ele>
      </trkpt>
      <trkpt lat="44.73166" lon="5.52577">
        <ele>1095.2</ele>
      </trkpt>
      <trkpt lat="44.73166" lon="5.52561">
        <ele>1091.8</ele>
      </trkpt>
      <trkpt lat="44.73167" lon="5.52549">
        <ele>1089</ele>
      </trkpt>
      <trkpt lat="44.73171" lon="5.52536">
        <ele>1088.7</ele>
      </trkpt>
      <trkpt lat="44.73179" lon="5.52524">
        <ele>1089.2</ele>
      </trkpt>
      <trkpt lat="44.73183" lon="5.52515">
        <ele>1089.4</ele>
      </trkpt>
      <trkpt lat="44.7319" lon="5.52503">
        <ele>1090.3</ele>
      </trkpt>
      <trkpt lat="44.73195" lon="5.52494">
        <ele>1090.4</ele>
      </trkpt>
      <trkpt lat="44.732" lon="5.52484">
        <ele>1090.4</ele>
      </trkpt>
      <trkpt lat="44.73205" lon="5.52472">
        <ele>1089.1</ele>
      </trkpt>
      <trkpt lat="44.73207" lon="5.52463">
        <ele>1087.9</ele>
      </trkpt>
      <trkpt lat="44.73212" lon="5.52454">
        <ele>1087.6</ele>
      </trkpt>
      <trkpt lat="44.73217" lon="5.52444">
        <ele>1087.4</ele>
      </trkpt>
      <trkpt lat="44.73222" lon="5.52435">
        <ele>1086.9</ele>
      </trkpt>
      <trkpt lat="44.73224" lon="5.52426">
        <ele>1085.5</ele>
      </trkpt>
      <trkpt lat="44.73229" lon="5.52413">
        <ele>1083.6</ele>
      </trkpt>
      <trkpt lat="44.73236" lon="5.52401">
        <ele>1082.4</ele>
      </trkpt>
      <trkpt lat="44.73243" lon="5.52395">
        <ele>1082.9</ele>
      </trkpt>
      <trkpt lat="44.7325" lon="5.52389">
        <ele>1083.8</ele>
      </trkpt>
      <trkpt lat="44.73259" lon="5.52387">
        <ele>1086.5</ele>
      </trkpt>
      <trkpt lat="44.73266" lon="5.52378">
        <ele>1086.2</ele>
      </trkpt>
      <trkpt lat="44.73273" lon="5.52372">
        <ele>1086.9</ele>
      </trkpt>
      <trkpt lat="44.7328" lon="5.52366">
        <ele>1088.1</ele>
      </trkpt>
      <trkpt lat="44.73285" lon="5.52353">
        <ele>1086</ele>
      </trkpt>
      <trkpt lat="44.7329" lon="5.52344">
        <ele>1085.3</ele>
      </trkpt>
      <trkpt lat="44.73292" lon="5.52332">
        <ele>1082.3</ele>
      </trkpt>
      <trkpt lat="44.73295" lon="5.52319">
        <ele>1079.2</ele>
      </trkpt>
      <trkpt lat="44.73297" lon="5.5231">
        <ele>1077</ele>
      </trkpt>
      <trkpt lat="44.733" lon="5.52301">
        <ele>1074.6</ele>
      </trkpt>
      <trkpt lat="44.73302" lon="5.52288">
        <ele>1070.8</ele>
      </trkpt>
      <trkpt lat="44.73305" lon="5.52276">
        <ele>1066.9</ele>
      </trkpt>
      <trkpt lat="44.73308" lon="5.52266">
        <ele>1064.5</ele>
      </trkpt>
      <trkpt lat="44.73308" lon="5.52254">
        <ele>1059.6</ele>
      </trkpt>
      <trkpt lat="44.73311" lon="5.52241">
        <ele>1055.7</ele>
      </trkpt>
      <trkpt lat="44.73311" lon="5.52229">
        <ele>1050.1</ele>
      </trkpt>
      <trkpt lat="44.73311" lon="5.52213">
        <ele>1043.5</ele>
      </trkpt>
      <trkpt lat="44.73312" lon="5.522">
        <ele>1037.9</ele>
      </trkpt>
      <trkpt lat="44.73312" lon="5.52185">
        <ele>1031.1</ele>
      </trkpt>
      <trkpt lat="44.73315" lon="5.52169">
        <ele>1025.1</ele>
      </trkpt>
      <trkpt lat="44.73322" lon="5.52157">
        <ele>1022.6</ele>
      </trkpt>
      <trkpt lat="44.73329" lon="5.52144">
        <ele>1020.2</ele>
      </trkpt>
      <trkpt lat="44.73334" lon="5.52135">
        <ele>1017.6</ele>
      </trkpt>
      <trkpt lat="44.73323" lon="5.52135">
        <ele>1013.4</ele>
      </trkpt>
      <trkpt lat="44.73314" lon="5.52137">
        <ele>1011.3</ele>
      </trkpt>
      <trkpt lat="44.7332" lon="5.52131">
        <ele>1011.1</ele>
      </trkpt>
      <trkpt lat="44.73327" lon="5.52129">
        <ele>1012.5</ele>
      </trkpt>
      <trkpt lat="44.73332" lon="5.52119">
        <ele>1010.3</ele>
      </trkpt>
      <trkpt lat="44.73339" lon="5.52113">
        <ele>1011.1</ele>
      </trkpt>
      <trkpt lat="44.73346" lon="5.52111">
        <ele>1013.3</ele>
      </trkpt>
      <trkpt lat="44.73351" lon="5.52101">
        <ele>1011.9</ele>
      </trkpt>
      <trkpt lat="44.73357" lon="5.52099">
        <ele>1013.6</ele>
      </trkpt>
      <trkpt lat="44.7336" lon="5.52089">
        <ele>1011.4</ele>
      </trkpt>
      <trkpt lat="44.73349" lon="5.52086">
        <ele>1004.2</ele>
      </trkpt>
      <trkpt lat="44.73388" lon="5.52059">
        <ele>1016.8</ele>
      </trkpt>
      <trkpt lat="44.73393" lon="5.5205">
        <ele>1016.6</ele>
      </trkpt>
      <trkpt lat="44.73393" lon="5.52038">
        <ele>1013.6</ele>
      </trkpt>
      <trkpt lat="44.73396" lon="5.52025">
        <ele>1011.3</ele>
      </trkpt>
      <trkpt lat="44.73396" lon="5.52013">
        <ele>1008.1</ele>
      </trkpt>
      <trkpt lat="44.73396" lon="5.52">
        <ele>1004.9</ele>
      </trkpt>
      <trkpt lat="44.73397" lon="5.51987">
        <ele>1000.7</ele>
      </trkpt>
      <trkpt lat="44.73399" lon="5.51975">
        <ele>997.5</ele>
      </trkpt>
      <trkpt lat="44.734" lon="5.51959">
        <ele>992.2</ele>
      </trkpt>
      <trkpt lat="44.73402" lon="5.51947">
        <ele>989.3</ele>
      </trkpt>
      <trkpt lat="44.73405" lon="5.51934">
        <ele>985.9</ele>
      </trkpt>
      <trkpt lat="44.7341" lon="5.51922">
        <ele>983.9</ele>
      </trkpt>
      <trkpt lat="44.73417" lon="5.5191">
        <ele>981.7</ele>
      </trkpt>
      <trkpt lat="44.73422" lon="5.51897">
        <ele>978.2</ele>
      </trkpt>
      <trkpt lat="44.73424" lon="5.51888">
        <ele>974.3</ele>
      </trkpt>
      <trkpt lat="44.73429" lon="5.51876">
        <ele>970.6</ele>
      </trkpt>
      <trkpt lat="44.73436" lon="5.51866">
        <ele>968.5</ele>
      </trkpt>
      <trkpt lat="44.73439" lon="5.51857">
        <ele>965.2</ele>
      </trkpt>
      <trkpt lat="44.73443" lon="5.51848">
        <ele>962.2</ele>
      </trkpt>
      <trkpt lat="44.7345" lon="5.51842">
        <ele>961.1</ele>
      </trkpt>
      <trkpt lat="44.73457" lon="5.51833">
        <ele>958.7</ele>
      </trkpt>
      <trkpt lat="44.73464" lon="5.51827">
        <ele>958.4</ele>
      </trkpt>
      <trkpt lat="44.73469" lon="5.51815">
        <ele>954.6</ele>
      </trkpt>
      <trkpt lat="44.73476" lon="5.51809">
        <ele>954.3</ele>
      </trkpt>
      <trkpt lat="44.73483" lon="5.518">
        <ele>952.4</ele>
      </trkpt>
      <trkpt lat="44.7349" lon="5.51794">
        <ele>951.6</ele>
      </trkpt>
      <trkpt lat="44.73499" lon="5.51791">
        <ele>952.7</ele>
      </trkpt>
      <trkpt lat="44.73508" lon="5.51782">
        <ele>951.9</ele>
      </trkpt>
      <trkpt lat="44.73515" lon="5.51779">
        <ele>952.9</ele>
      </trkpt>
      <trkpt lat="44.73524" lon="5.5177">
        <ele>952.1</ele>
      </trkpt>
      <trkpt lat="44.73531" lon="5.51761">
        <ele>950.8</ele>
      </trkpt>
      <trkpt lat="44.73538" lon="5.51755">
        <ele>950.9</ele>
      </trkpt>
      <trkpt lat="44.73545" lon="5.51746">
        <ele>949.7</ele>
      </trkpt>
      <trkpt lat="44.7355" lon="5.51737">
        <ele>947.9</ele>
      </trkpt>
      <trkpt lat="44.73555" lon="5.51728">
        <ele>946</ele>
      </trkpt>
      <trkpt lat="44.73562" lon="5.51716">
        <ele>943.2</ele>
      </trkpt>
      <trkpt lat="44.73565" lon="5.51703">
        <ele>939.5</ele>
      </trkpt>
      <trkpt lat="44.73569" lon="5.51691">
        <ele>935.8</ele>
      </trkpt>
      <trkpt lat="44.73574" lon="5.51682">
        <ele>933.5</ele>
      </trkpt>
      <trkpt lat="44.73577" lon="5.51672">
        <ele>930.5</ele>
      </trkpt>
      <trkpt lat="44.73579" lon="5.51663">
        <ele>927.6</ele>
      </trkpt>
      <trkpt lat="44.73582" lon="5.51654">
        <ele>924.7</ele>
      </trkpt>
      <trkpt lat="44.73587" lon="5.51644">
        <ele>921.5</ele>
      </trkpt>
      <trkpt lat="44.73596" lon="5.51639">
        <ele>919</ele>
      </trkpt>
      <trkpt lat="44.73605" lon="5.51633">
        <ele>917.1</ele>
      </trkpt>
      <trkpt lat="44.73603" lon="5.51617">
        <ele>911.4</ele>
      </trkpt>
      <trkpt lat="44.73597" lon="5.51607">
        <ele>907.4</ele>
      </trkpt>
      <trkpt lat="44.73588" lon="5.5161">
        <ele>908.1</ele>
      </trkpt>
      <trkpt lat="44.73581" lon="5.51606">
        <ele>906.2</ele>
      </trkpt>
      <trkpt lat="44.73574" lon="5.51603">
        <ele>904.3</ele>
      </trkpt>
      <trkpt lat="44.73565" lon="5.51599">
        <ele>901.7</ele>
      </trkpt>
      <trkpt lat="44.73559" lon="5.51596">
        <ele>899.5</ele>
      </trkpt>
      <trkpt lat="44.7355" lon="5.51595">
        <ele>898.3</ele>
      </trkpt>
      <trkpt lat="44.73541" lon="5.51595">
        <ele>896.8</ele>
      </trkpt>
      <trkpt lat="44.73534" lon="5.51597">
        <ele>896.7</ele>
      </trkpt>
      <trkpt lat="44.73527" lon="5.516">
        <ele>896.7</ele>
      </trkpt>
      <trkpt lat="44.73556" lon="5.51523">
        <ele>870.8</ele>
      </trkpt>
      <trkpt lat="44.73561" lon="5.5151">
        <ele>866.6</ele>
      </trkpt>
      <trkpt lat="44.73568" lon="5.51498">
        <ele>861.9</ele>
      </trkpt>
      <trkpt lat="44.73575" lon="5.51489">
        <ele>859</ele>
      </trkpt>
      <trkpt lat="44.73582" lon="5.51483">
        <ele>857.6</ele>
      </trkpt>
      <trkpt lat="44.73591" lon="5.51477">
        <ele>857.2</ele>
      </trkpt>
      <trkpt lat="44.736" lon="5.51475">
        <ele>858.3</ele>
      </trkpt>
      <trkpt lat="44.7361" lon="5.51469">
        <ele>858.7</ele>
      </trkpt>
      <trkpt lat="44.73619" lon="5.51463">
        <ele>858.7</ele>
      </trkpt>
      <trkpt lat="44.73628" lon="5.51461">
        <ele>860.2</ele>
      </trkpt>
      <trkpt lat="44.73637" lon="5.51458">
        <ele>861.6</ele>
      </trkpt>
      <trkpt lat="44.73646" lon="5.51452">
        <ele>862.4</ele>
      </trkpt>
      <trkpt lat="44.73655" lon="5.51449">
        <ele>864</ele>
      </trkpt>
      <trkpt lat="44.73662" lon="5.51447">
        <ele>865.1</ele>
      </trkpt>
      <trkpt lat="44.73669" lon="5.51444">
        <ele>866.6</ele>
      </trkpt>
      <trkpt lat="44.73676" lon="5.51441">
        <ele>868.8</ele>
      </trkpt>
      <trkpt lat="44.73685" lon="5.51435">
        <ele>871.7</ele>
      </trkpt>
      <trkpt lat="44.73692" lon="5.51429">
        <ele>873</ele>
      </trkpt>
      <trkpt lat="44.73699" lon="5.51417">
        <ele>873.1</ele>
      </trkpt>
      <trkpt lat="44.73701" lon="5.51408">
        <ele>871</ele>
      </trkpt>
      <trkpt lat="44.73706" lon="5.51396">
        <ele>868.5</ele>
      </trkpt>
      <trkpt lat="44.73709" lon="5.51383">
        <ele>865.4</ele>
      </trkpt>
      <trkpt lat="44.73714" lon="5.51371">
        <ele>862.8</ele>
      </trkpt>
      <trkpt lat="44.73721" lon="5.51362">
        <ele>862.5</ele>
      </trkpt>
      <trkpt lat="44.73726" lon="5.51352">
        <ele>861.3</ele>
      </trkpt>
      <trkpt lat="44.73728" lon="5.5134">
        <ele>858</ele>
      </trkpt>
      <trkpt lat="44.73733" lon="5.51328">
        <ele>855</ele>
      </trkpt>
      <trkpt lat="44.7374" lon="5.51319">
        <ele>854</ele>
      </trkpt>
      <trkpt lat="44.73747" lon="5.51309">
        <ele>853.1</ele>
      </trkpt>
      <trkpt lat="44.73754" lon="5.51297">
        <ele>850.2</ele>
      </trkpt>
      <trkpt lat="44.73759" lon="5.51288">
        <ele>847.1</ele>
      </trkpt>
      <trkpt lat="44.73766" lon="5.51282">
        <ele>845.6</ele>
      </trkpt>
      <trkpt lat="44.73771" lon="5.51273">
        <ele>842.4</ele>
      </trkpt>
      <trkpt lat="44.73777" lon="5.51267">
        <ele>841.2</ele>
      </trkpt>
      <trkpt lat="44.73782" lon="5.51258">
        <ele>837.7</ele>
      </trkpt>
      <trkpt lat="44.73789" lon="5.51249">
        <ele>834.6</ele>
      </trkpt>
      <trkpt lat="44.73794" lon="5.5124">
        <ele>831.1</ele>
      </trkpt>
      <trkpt lat="44.73799" lon="5.5123">
        <ele>827.7</ele>
      </trkpt>
      <trkpt lat="44.73808" lon="5.51218">
        <ele>823.2</ele>
      </trkpt>
      <trkpt lat="44.73815" lon="5.51209">
        <ele>820.2</ele>
      </trkpt>
      <trkpt lat="44.73824" lon="5.51203">
        <ele>819.3</ele>
      </trkpt>
      <trkpt lat="44.73833" lon="5.51198">
        <ele>817.7</ele>
      </trkpt>
      <trkpt lat="44.73843" lon="5.51192">
        <ele>815.7</ele>
      </trkpt>
      <trkpt lat="44.7385" lon="5.51186">
        <ele>813.1</ele>
      </trkpt>
      <trkpt lat="44.73857" lon="5.5118">
        <ele>811.3</ele>
      </trkpt>
      <trkpt lat="44.73866" lon="5.51174">
        <ele>809</ele>
      </trkpt>
      <trkpt lat="44.73875" lon="5.51165">
        <ele>806</ele>
      </trkpt>
      <trkpt lat="44.73882" lon="5.51162">
        <ele>805.5</ele>
      </trkpt>
      <trkpt lat="44.73891" lon="5.51157">
        <ele>804.3</ele>
      </trkpt>
      <trkpt lat="44.739" lon="5.51154">
        <ele>804.1</ele>
      </trkpt>
      <trkpt lat="44.73905" lon="5.51145">
        <ele>801.3</ele>
      </trkpt>
      <trkpt lat="44.73912" lon="5.51136">
        <ele>798.7</ele>
      </trkpt>
      <trkpt lat="44.73921" lon="5.51136">
        <ele>799.8</ele>
      </trkpt>
      <trkpt lat="44.7393" lon="5.51137">
        <ele>801.5</ele>
      </trkpt>
      <trkpt lat="44.73939" lon="5.51137">
        <ele>802.9</ele>
      </trkpt>
      <trkpt lat="44.73948" lon="5.51135">
        <ele>803.4</ele>
      </trkpt>
      <trkpt lat="44.73957" lon="5.51135">
        <ele>804.8</ele>
      </trkpt>
      <trkpt lat="44.73966" lon="5.51142">
        <ele>808.5</ele>
      </trkpt>
      <trkpt lat="44.73972" lon="5.51149">
        <ele>811.4</ele>
      </trkpt>
      <trkpt lat="44.73979" lon="5.51152">
        <ele>813</ele>
      </trkpt>
      <trkpt lat="44.73985" lon="5.51159">
        <ele>816.1</ele>
      </trkpt>
      <trkpt lat="44.73992" lon="5.51153">
        <ele>815.2</ele>
      </trkpt>
      <trkpt lat="44.73997" lon="5.51144">
        <ele>813.4</ele>
      </trkpt>
      <trkpt lat="44.74" lon="5.51134">
        <ele>811.4</ele>
      </trkpt>
      <trkpt lat="44.74" lon="5.51122">
        <ele>808</ele>
      </trkpt>
      <trkpt lat="44.74" lon="5.51109">
        <ele>804.6</ele>
      </trkpt>
      <trkpt lat="44.73994" lon="5.51099">
        <ele>801</ele>
      </trkpt>
      <trkpt lat="44.73992" lon="5.5109">
        <ele>798.1</ele>
      </trkpt>
      <trkpt lat="44.73992" lon="5.51077">
        <ele>793.8</ele>
      </trkpt>
      <trkpt lat="44.73995" lon="5.51065">
        <ele>789.1</ele>
      </trkpt>
      <trkpt lat="44.74084" lon="5.51003">
        <ele>769.3</ele>
      </trkpt>
      <trkpt lat="44.74091" lon="5.51001">
        <ele>768.9</ele>
      </trkpt>
      <trkpt lat="44.741" lon="5.51001">
        <ele>770.6</ele>
      </trkpt>
      <trkpt lat="44.74107" lon="5.50998">
        <ele>770.1</ele>
      </trkpt>
      <trkpt lat="44.74114" lon="5.50996">
        <ele>770.3</ele>
      </trkpt>
      <trkpt lat="44.74121" lon="5.50987">
        <ele>768.7</ele>
      </trkpt>
      <trkpt lat="44.7413" lon="5.50981">
        <ele>768.5</ele>
      </trkpt>
      <trkpt lat="44.74137" lon="5.50972">
        <ele>767.1</ele>
      </trkpt>
      <trkpt lat="44.74142" lon="5.50959">
        <ele>764.4</ele>
      </trkpt>
      <trkpt lat="44.74147" lon="5.50947">
        <ele>762.2</ele>
      </trkpt>
      <trkpt lat="44.74158" lon="5.50938">
        <ele>761.7</ele>
      </trkpt>
      <trkpt lat="44.74163" lon="5.50935">
        <ele>761.8</ele>
      </trkpt>
      <trkpt lat="44.74168" lon="5.50929">
        <ele>761</ele>
      </trkpt>
      <trkpt lat="44.74172" lon="5.50929">
        <ele>762</ele>
      </trkpt>
      <trkpt lat="44.74177" lon="5.50923">
        <ele>761.7</ele>
      </trkpt>
      <trkpt lat="44.74181" lon="5.5092">
        <ele>762</ele>
      </trkpt>
      <trkpt lat="44.74186" lon="5.50914">
        <ele>761.5</ele>
      </trkpt>
      <trkpt lat="44.74191" lon="5.50912">
        <ele>762</ele>
      </trkpt>
      <trkpt lat="44.74193" lon="5.50905">
        <ele>761.3</ele>
      </trkpt>
      <trkpt lat="44.74195" lon="5.50899">
        <ele>760.6</ele>
      </trkpt>
      <trkpt lat="44.742" lon="5.50896">
        <ele>761</ele>
      </trkpt>
      <trkpt lat="44.74205" lon="5.5089">
        <ele>760.6</ele>
      </trkpt>
      <trkpt lat="44.74209" lon="5.50887">
        <ele>760.9</ele>
      </trkpt>
      <trkpt lat="44.74214" lon="5.50888">
        <ele>761.7</ele>
      </trkpt>
      <trkpt lat="44.74218" lon="5.50885">
        <ele>761.9</ele>
      </trkpt>
      <trkpt lat="44.74223" lon="5.50885">
        <ele>762.6</ele>
      </trkpt>
      <trkpt lat="44.74227" lon="5.50882">
        <ele>762.9</ele>
      </trkpt>
      <trkpt lat="44.74232" lon="5.50879">
        <ele>763.1</ele>
      </trkpt>
      <trkpt lat="44.74237" lon="5.50876">
        <ele>763.2</ele>
      </trkpt>
      <trkpt lat="44.74241" lon="5.50873">
        <ele>763</ele>
      </trkpt>
      <trkpt lat="44.74246" lon="5.50874">
        <ele>763.7</ele>
      </trkpt>
      <trkpt lat="44.7425" lon="5.50871">
        <ele>763.8</ele>
      </trkpt>
      <trkpt lat="44.74255" lon="5.50868">
        <ele>764.3</ele>
      </trkpt>
      <trkpt lat="44.74259" lon="5.50865">
        <ele>764.7</ele>
      </trkpt>
      <trkpt lat="44.74264" lon="5.50862">
        <ele>765</ele>
      </trkpt>
      <trkpt lat="44.74268" lon="5.50862">
        <ele>766</ele>
      </trkpt>
      <trkpt lat="44.74273" lon="5.50859">
        <ele>766.4</ele>
      </trkpt>
      <trkpt lat="44.74278" lon="5.5086">
        <ele>767.4</ele>
      </trkpt>
      <trkpt lat="44.74282" lon="5.50857">
        <ele>767.7</ele>
      </trkpt>
      <trkpt lat="44.74287" lon="5.50857">
        <ele>768.7</ele>
      </trkpt>
      <trkpt lat="44.74291" lon="5.50854">
        <ele>768.9</ele>
      </trkpt>
      <trkpt lat="44.74296" lon="5.50851">
        <ele>768.8</ele>
      </trkpt>
      <trkpt lat="44.743" lon="5.50848">
        <ele>769</ele>
      </trkpt>
      <trkpt lat="44.74305" lon="5.50842">
        <ele>767.9</ele>
      </trkpt>
      <trkpt lat="44.7431" lon="5.50839">
        <ele>768</ele>
      </trkpt>
      <trkpt lat="44.74314" lon="5.5084">
        <ele>768.9</ele>
      </trkpt>
      <trkpt lat="44.74319" lon="5.50837">
        <ele>769</ele>
      </trkpt>
      <trkpt lat="44.74323" lon="5.50837">
        <ele>769.9</ele>
      </trkpt>
      <trkpt lat="44.74328" lon="5.50834">
        <ele>769.9</ele>
      </trkpt>
      <trkpt lat="44.74332" lon="5.50834">
        <ele>770.8</ele>
      </trkpt>
      <trkpt lat="44.74337" lon="5.50831">
        <ele>771.3</ele>
      </trkpt>
      <trkpt lat="44.74341" lon="5.50829">
        <ele>771.8</ele>
      </trkpt>
      <trkpt lat="44.74346" lon="5.50829">
        <ele>772.9</ele>
      </trkpt>
      <trkpt lat="44.74351" lon="5.50826">
        <ele>773.4</ele>
      </trkpt>
      <trkpt lat="44.74355" lon="5.50826">
        <ele>774.5</ele>
      </trkpt>
      <trkpt lat="44.7436" lon="5.50823">
        <ele>775</ele>
      </trkpt>
      <trkpt lat="44.74364" lon="5.50823">
        <ele>776</ele>
      </trkpt>
      <trkpt lat="44.74369" lon="5.50821">
        <ele>776.6</ele>
      </trkpt>
      <trkpt lat="44.74373" lon="5.50821">
        <ele>777.6</ele>
      </trkpt>
      <trkpt lat="44.74378" lon="5.50815">
        <ele>777.2</ele>
      </trkpt>
      <trkpt lat="44.74382" lon="5.50812">
        <ele>777.7</ele>
      </trkpt>
      <trkpt lat="44.74385" lon="5.50806">
        <ele>776.7</ele>
      </trkpt>
      <trkpt lat="44.74389" lon="5.50803">
        <ele>777.3</ele>
      </trkpt>
      <trkpt lat="44.74394" lon="5.508">
        <ele>777.7</ele>
      </trkpt>
      <trkpt lat="44.74396" lon="5.50794">
        <ele>776.7</ele>
      </trkpt>
      <trkpt lat="44.74401" lon="5.50788">
        <ele>776.5</ele>
      </trkpt>
      <trkpt lat="44.74406" lon="5.50782">
        <ele>776.1</ele>
      </trkpt>
      <trkpt lat="44.74408" lon="5.50775">
        <ele>775</ele>
      </trkpt>
      <trkpt lat="44.74413" lon="5.50773">
        <ele>775.4</ele>
      </trkpt>
      <trkpt lat="44.74415" lon="5.50766">
        <ele>774.5</ele>
      </trkpt>
      <trkpt lat="44.7442" lon="5.50763">
        <ele>774.5</ele>
      </trkpt>
      <trkpt lat="44.74422" lon="5.50757">
        <ele>773.2</ele>
      </trkpt>
      <trkpt lat="44.74427" lon="5.50758">
        <ele>773.7</ele>
      </trkpt>
      <trkpt lat="44.74429" lon="5.50751">
        <ele>772.7</ele>
      </trkpt>
      <trkpt lat="44.74432" lon="5.50745">
        <ele>771.7</ele>
      </trkpt>
      <trkpt lat="44.74436" lon="5.50742">
        <ele>771.6</ele>
      </trkpt>
      <trkpt lat="44.74439" lon="5.50736">
        <ele>770.7</ele>
      </trkpt>
      <trkpt lat="44.74443" lon="5.50733">
        <ele>770.6</ele>
      </trkpt>
      <trkpt lat="44.74446" lon="5.50727">
        <ele>769.5</ele>
      </trkpt>
      <trkpt lat="44.7445" lon="5.50724">
        <ele>769.4</ele>
      </trkpt>
      <trkpt lat="44.7445" lon="5.50718">
        <ele>768.1</ele>
      </trkpt>
      <trkpt lat="44.74455" lon="5.50712">
        <ele>767.1</ele>
      </trkpt>
      <trkpt lat="44.74457" lon="5.50706">
        <ele>766.1</ele>
      </trkpt>
      <trkpt lat="44.74462" lon="5.50703">
        <ele>765.6</ele>
      </trkpt>
      <trkpt lat="44.74465" lon="5.50697">
        <ele>764.6</ele>
      </trkpt>
      <trkpt lat="44.74469" lon="5.50694">
        <ele>764</ele>
      </trkpt>
      <trkpt lat="44.74474" lon="5.50688">
        <ele>763.1</ele>
      </trkpt>
      <trkpt lat="44.74478" lon="5.50685">
        <ele>762.4</ele>
      </trkpt>
      <trkpt lat="44.74481" lon="5.50679">
        <ele>761.3</ele>
      </trkpt>
      <trkpt lat="44.74485" lon="5.50676">
        <ele>760.8</ele>
      </trkpt>
      <trkpt lat="44.7449" lon="5.50673">
        <ele>760</ele>
      </trkpt>
      <trkpt lat="44.74495" lon="5.50667">
        <ele>758.9</ele>
      </trkpt>
      <trkpt lat="44.74499" lon="5.50664">
        <ele>758.7</ele>
      </trkpt>
      <trkpt lat="44.74504" lon="5.50664">
        <ele>759.6</ele>
      </trkpt>
      <trkpt lat="44.74508" lon="5.50664">
        <ele>760.6</ele>
      </trkpt>
      <trkpt lat="44.74513" lon="5.50665">
        <ele>761.6</ele>
      </trkpt>
      <trkpt lat="44.74517" lon="5.50665">
        <ele>762.6</ele>
      </trkpt>
      <trkpt lat="44.74522" lon="5.50668">
        <ele>763.9</ele>
      </trkpt>
      <trkpt lat="44.74526" lon="5.50672">
        <ele>765.4</ele>
      </trkpt>
      <trkpt lat="44.7453" lon="5.50672">
        <ele>766.6</ele>
      </trkpt>
      <trkpt lat="44.74535" lon="5.50672">
        <ele>767.5</ele>
      </trkpt>
      <trkpt lat="44.74537" lon="5.50679">
        <ele>769.1</ele>
      </trkpt>
      <trkpt lat="44.74542" lon="5.50679">
        <ele>770</ele>
      </trkpt>
      <trkpt lat="44.74544" lon="5.50685">
        <ele>771.4</ele>
      </trkpt>
      <trkpt lat="44.74548" lon="5.50685">
        <ele>772.2</ele>
      </trkpt>
      <trkpt lat="44.7455" lon="5.50692">
        <ele>773.6</ele>
      </trkpt>
      <trkpt lat="44.74555" lon="5.50695">
        <ele>774.9</ele>
      </trkpt>
      <trkpt lat="44.74557" lon="5.50702">
        <ele>776.1</ele>
      </trkpt>
      <trkpt lat="44.74561" lon="5.50705">
        <ele>777.1</ele>
      </trkpt>
      <trkpt lat="44.74565" lon="5.50709">
        <ele>778.1</ele>
      </trkpt>
      <trkpt lat="44.74567" lon="5.50715">
        <ele>779.2</ele>
      </trkpt>
      <trkpt lat="44.74572" lon="5.50715">
        <ele>779.7</ele>
      </trkpt>
      <trkpt lat="44.74576" lon="5.50719">
        <ele>780.6</ele>
      </trkpt>
      <trkpt lat="44.74581" lon="5.50719">
        <ele>781.1</ele>
      </trkpt>
      <trkpt lat="44.74585" lon="5.50719">
        <ele>782.1</ele>
      </trkpt>
      <trkpt lat="44.7459" lon="5.50719">
        <ele>783.6</ele>
      </trkpt>
      <trkpt lat="44.74594" lon="5.50717">
        <ele>785</ele>
      </trkpt>
      <trkpt lat="44.74599" lon="5.50714">
        <ele>786.5</ele>
      </trkpt>
      <trkpt lat="44.74604" lon="5.50711">
        <ele>788</ele>
      </trkpt>
      <trkpt lat="44.74608" lon="5.50708">
        <ele>789.3</ele>
      </trkpt>
      <trkpt lat="44.74613" lon="5.50705">
        <ele>791</ele>
      </trkpt>
      <trkpt lat="44.74617" lon="5.50699">
        <ele>792.3</ele>
      </trkpt>
      <trkpt lat="44.7462" lon="5.50693">
        <ele>793</ele>
      </trkpt>
      <trkpt lat="44.7462" lon="5.50686">
        <ele>792.8</ele>
      </trkpt>
      <trkpt lat="44.74623" lon="5.50677">
        <ele>793.5</ele>
      </trkpt>
      <trkpt lat="44.74623" lon="5.50671">
        <ele>793.2</ele>
      </trkpt>
      <trkpt lat="44.74625" lon="5.50665">
        <ele>794.2</ele>
      </trkpt>
      <trkpt lat="44.74625" lon="5.50658">
        <ele>794.4</ele>
      </trkpt>
      <trkpt lat="44.74628" lon="5.50652">
        <ele>795.7</ele>
      </trkpt>
      <trkpt lat="44.74628" lon="5.50643">
        <ele>796</ele>
      </trkpt>
      <trkpt lat="44.74628" lon="5.50636">
        <ele>796.3</ele>
      </trkpt>
      <trkpt lat="44.74629" lon="5.50627">
        <ele>796.7</ele>
      </trkpt>
      <trkpt lat="44.74629" lon="5.50621">
        <ele>797.1</ele>
      </trkpt>
      <trkpt lat="44.74629" lon="5.50614">
        <ele>797.3</ele>
      </trkpt>
      <trkpt lat="44.74629" lon="5.50608">
        <ele>797.6</ele>
      </trkpt>
      <trkpt lat="44.74627" lon="5.50602">
        <ele>796.8</ele>
      </trkpt>
      <trkpt lat="44.74625" lon="5.50595">
        <ele>796.1</ele>
      </trkpt>
      <trkpt lat="44.74625" lon="5.50589">
        <ele>796.5</ele>
      </trkpt>
      <trkpt lat="44.74623" lon="5.50582">
        <ele>795.5</ele>
      </trkpt>
      <trkpt lat="44.74623" lon="5.50576">
        <ele>795.2</ele>
      </trkpt>
      <trkpt lat="44.74623" lon="5.5057">
        <ele>794.7</ele>
      </trkpt>
      <trkpt lat="44.74624" lon="5.50563">
        <ele>794.3</ele>
      </trkpt>
      <trkpt lat="44.74624" lon="5.50557">
        <ele>793.9</ele>
      </trkpt>
      <trkpt lat="44.74624" lon="5.50551">
        <ele>793.6</ele>
      </trkpt>
      <trkpt lat="44.74624" lon="5.50545">
        <ele>793.2</ele>
      </trkpt>
      <trkpt lat="44.74622" lon="5.50538">
        <ele>791.9</ele>
      </trkpt>
      <trkpt lat="44.74622" lon="5.50532">
        <ele>791.5</ele>
      </trkpt>
      <trkpt lat="44.7462" lon="5.50525">
        <ele>790.3</ele>
      </trkpt>
      <trkpt lat="44.74618" lon="5.50519">
        <ele>789.1</ele>
      </trkpt>
      <trkpt lat="44.74614" lon="5.50516">
        <ele>787.5</ele>
      </trkpt>
      <trkpt lat="44.74612" lon="5.50509">
        <ele>786.4</ele>
      </trkpt>
      <trkpt lat="44.74607" lon="5.50506">
        <ele>784.8</ele>
      </trkpt>
      <trkpt lat="44.74603" lon="5.50502">
        <ele>783.1</ele>
      </trkpt>
      <trkpt lat="44.74599" lon="5.50496">
        <ele>781.9</ele>
      </trkpt>
      <trkpt lat="44.74594" lon="5.50492">
        <ele>780.5</ele>
      </trkpt>
      <trkpt lat="44.74578" lon="5.50435">
        <ele>776.8</ele>
      </trkpt>
      <trkpt lat="44.74573" lon="5.50434">
        <ele>776</ele>
      </trkpt>
      <trkpt lat="44.74569" lon="5.50434">
        <ele>775.2</ele>
      </trkpt>
      <trkpt lat="44.74569" lon="5.5044">
        <ele>775</ele>
      </trkpt>
      <trkpt lat="44.74564" lon="5.50446">
        <ele>774.1</ele>
      </trkpt>
      <trkpt lat="44.74562" lon="5.50453">
        <ele>773.5</ele>
      </trkpt>
      <trkpt lat="44.74559" lon="5.50459">
        <ele>773</ele>
      </trkpt>
      <trkpt lat="44.74557" lon="5.50465">
        <ele>772.4</ele>
      </trkpt>
      <trkpt lat="44.74554" lon="5.50471">
        <ele>771.9</ele>
      </trkpt>
      <trkpt lat="44.74554" lon="5.50477">
        <ele>771.8</ele>
      </trkpt>
      <trkpt lat="44.74549" lon="5.5048">
        <ele>770.8</ele>
      </trkpt>
      <trkpt lat="44.74549" lon="5.50487">
        <ele>770.7</ele>
      </trkpt>
      <trkpt lat="44.74547" lon="5.50493">
        <ele>770.1</ele>
      </trkpt>
      <trkpt lat="44.74542" lon="5.50496">
        <ele>769.2</ele>
      </trkpt>
      <trkpt lat="44.74538" lon="5.50499">
        <ele>768.3</ele>
      </trkpt>
      <trkpt lat="44.74535" lon="5.50505">
        <ele>767.6</ele>
      </trkpt>
      <trkpt lat="44.74531" lon="5.50505">
        <ele>766.7</ele>
      </trkpt>
      <trkpt lat="44.74528" lon="5.50511">
        <ele>765.8</ele>
      </trkpt>
      <trkpt lat="44.74524" lon="5.5051">
        <ele>764.9</ele>
      </trkpt>
      <trkpt lat="44.74521" lon="5.50517">
        <ele>764.1</ele>
      </trkpt>
      <trkpt lat="44.74517" lon="5.5052">
        <ele>762.8</ele>
      </trkpt>
      <trkpt lat="44.74512" lon="5.50522">
        <ele>761.6</ele>
      </trkpt>
      <trkpt lat="44.74508" lon="5.50525">
        <ele>760.4</ele>
      </trkpt>
      <trkpt lat="44.74503" lon="5.50528">
        <ele>759.1</ele>
      </trkpt>
      <trkpt lat="44.74499" lon="5.50531">
        <ele>757.9</ele>
      </trkpt>
      <trkpt lat="44.74494" lon="5.50534">
        <ele>757.3</ele>
      </trkpt>
      <trkpt lat="44.74489" lon="5.50537">
        <ele>756.6</ele>
      </trkpt>
      <trkpt lat="44.74485" lon="5.5054">
        <ele>756</ele>
      </trkpt>
      <trkpt lat="44.7448" lon="5.5054">
        <ele>755.7</ele>
      </trkpt>
      <trkpt lat="44.74476" lon="5.50539">
        <ele>755.3</ele>
      </trkpt>
      <trkpt lat="44.74471" lon="5.50536">
        <ele>755.3</ele>
      </trkpt>
      <trkpt lat="44.74467" lon="5.50536">
        <ele>754.9</ele>
      </trkpt>
      <trkpt lat="44.74462" lon="5.50535">
        <ele>754.5</ele>
      </trkpt>
      <trkpt lat="44.74458" lon="5.50535">
        <ele>754.2</ele>
      </trkpt>
      <trkpt lat="44.74453" lon="5.50535">
        <ele>753.9</ele>
      </trkpt>
      <trkpt lat="44.74449" lon="5.50535">
        <ele>753.5</ele>
      </trkpt>
      <trkpt lat="44.74444" lon="5.50534">
        <ele>753.1</ele>
      </trkpt>
      <trkpt lat="44.7444" lon="5.50537">
        <ele>752.6</ele>
      </trkpt>
      <trkpt lat="44.74435" lon="5.5054">
        <ele>752.1</ele>
      </trkpt>
      <trkpt lat="44.74431" lon="5.5054">
        <ele>751.7</ele>
      </trkpt>
      <trkpt lat="44.74426" lon="5.50543">
        <ele>751.2</ele>
      </trkpt>
      <trkpt lat="44.74422" lon="5.50546">
        <ele>750.7</ele>
      </trkpt>
      <trkpt lat="44.74419" lon="5.50552">
        <ele>750.4</ele>
      </trkpt>
      <trkpt lat="44.74415" lon="5.50552">
        <ele>750.4</ele>
      </trkpt>
      <trkpt lat="44.74412" lon="5.50558">
        <ele>750.3</ele>
      </trkpt>
      <trkpt lat="44.74408" lon="5.50564">
        <ele>750.4</ele>
      </trkpt>
      <trkpt lat="44.74405" lon="5.5057">
        <ele>750.2</ele>
      </trkpt>
      <trkpt lat="44.744" lon="5.50576">
        <ele>750</ele>
      </trkpt>
      <trkpt lat="44.74396" lon="5.50579">
        <ele>750</ele>
      </trkpt>
      <trkpt lat="44.74391" lon="5.50585">
        <ele>749.7</ele>
      </trkpt>
      <trkpt lat="44.74387" lon="5.50588">
        <ele>749.9</ele>
      </trkpt>
      <trkpt lat="44.74382" lon="5.50591">
        <ele>750</ele>
      </trkpt>
      <trkpt lat="44.74377" lon="5.50594">
        <ele>750.2</ele>
      </trkpt>
      <trkpt lat="44.74373" lon="5.506">
        <ele>750.3</ele>
      </trkpt>
      <trkpt lat="44.74368" lon="5.50603">
        <ele>750.3</ele>
      </trkpt>
      <trkpt lat="44.74364" lon="5.50606">
        <ele>750.2</ele>
      </trkpt>
      <trkpt lat="44.74359" lon="5.50612">
        <ele>750.1</ele>
      </trkpt>
      <trkpt lat="44.74354" lon="5.50618">
        <ele>749.8</ele>
      </trkpt>
      <trkpt lat="44.7435" lon="5.50621">
        <ele>749.5</ele>
      </trkpt>
      <trkpt lat="44.74345" lon="5.50627">
        <ele>749.1</ele>
      </trkpt>
      <trkpt lat="44.74343" lon="5.50633">
        <ele>748.7</ele>
      </trkpt>
      <trkpt lat="44.74338" lon="5.50636">
        <ele>748.2</ele>
      </trkpt>
      <trkpt lat="44.74336" lon="5.50642">
        <ele>747.7</ele>
      </trkpt>
      <trkpt lat="44.74331" lon="5.50645">
        <ele>747.5</ele>
      </trkpt>
      <trkpt lat="44.74326" lon="5.50648">
        <ele>747.8</ele>
      </trkpt>
      <trkpt lat="44.74322" lon="5.50651">
        <ele>748</ele>
      </trkpt>
      <trkpt lat="44.74317" lon="5.50653">
        <ele>748.1</ele>
      </trkpt>
      <trkpt lat="44.74313" lon="5.50656">
        <ele>748</ele>
      </trkpt>
      <trkpt lat="44.74308" lon="5.50659">
        <ele>748.1</ele>
      </trkpt>
      <trkpt lat="44.74303" lon="5.50662">
        <ele>748.1</ele>
      </trkpt>
      <trkpt lat="44.74301" lon="5.50668">
        <ele>747.6</ele>
      </trkpt>
      <trkpt lat="44.74296" lon="5.50671">
        <ele>747.8</ele>
      </trkpt>
      <trkpt lat="44.74294" lon="5.50677">
        <ele>747.8</ele>
      </trkpt>
      <trkpt lat="44.74289" lon="5.5068">
        <ele>747.9</ele>
      </trkpt>
      <trkpt lat="44.74287" lon="5.50686">
        <ele>747.8</ele>
      </trkpt>
      <trkpt lat="44.74282" lon="5.50693">
        <ele>747.6</ele>
      </trkpt>
      <trkpt lat="44.7428" lon="5.50699">
        <ele>747.3</ele>
      </trkpt>
      <trkpt lat="44.74275" lon="5.50702">
        <ele>747.1</ele>
      </trkpt>
      <trkpt lat="44.74271" lon="5.50705">
        <ele>746.7</ele>
      </trkpt>
      <trkpt lat="44.74266" lon="5.50711">
        <ele>746.2</ele>
      </trkpt>
      <trkpt lat="44.74261" lon="5.50713">
        <ele>745.6</ele>
      </trkpt>
      <trkpt lat="44.74261" lon="5.5072">
        <ele>745.2</ele>
      </trkpt>
      <trkpt lat="44.74257" lon="5.50723">
        <ele>744.5</ele>
      </trkpt>
      <trkpt lat="44.74243" lon="5.50728">
        <ele>743.6</ele>
      </trkpt>
      <trkpt lat="44.74247" lon="5.50726">
        <ele>747</ele>
        <time>2019-09-25T17:16:55Z</time>
      </trkpt>
      <trkpt lat="44.7424" lon="5.50762">
        <ele>743</ele>
        <time>2019-09-25T17:17:01Z</time>
      </trkpt>
      <trkpt lat="44.74236" lon="5.50772">
        <ele>743</ele>
        <time>2019-09-25T17:17:03Z</time>
      </trkpt>
      <trkpt lat="44.74223" lon="5.50789">
        <ele>744</ele>
        <time>2019-09-25T17:17:07Z</time>
      </trkpt>
      <trkpt lat="44.74208" lon="5.50825">
        <ele>743</ele>
        <time>2019-09-25T17:17:14Z</time>
      </trkpt>
      <trkpt lat="44.74196" lon="5.50846">
        <ele>743</ele>
        <time>2019-09-25T17:17:19Z</time>
      </trkpt>
      <trkpt lat="44.74191" lon="5.50859">
        <ele>744</ele>
        <time>2019-09-25T17:17:21Z</time>
      </trkpt>
      <trkpt lat="44.74186" lon="5.50877">
        <ele>744</ele>
        <time>2019-09-25T17:17:24Z</time>
      </trkpt>
      <trkpt lat="44.74174" lon="5.50904">
        <ele>745</ele>
        <time>2019-09-25T17:17:30Z</time>
      </trkpt>
      <trkpt lat="44.74164" lon="5.50921">
        <ele>745</ele>
        <time>2019-09-25T17:17:33Z</time>
      </trkpt>
      <trkpt lat="44.74146" lon="5.5094">
        <ele>749</ele>
        <time>2019-09-25T17:17:38Z</time>
      </trkpt>
      <trkpt lat="44.74146" lon="5.50944">
        <ele>751</ele>
        <time>2019-09-25T17:17:39Z</time>
      </trkpt>
      <trkpt lat="44.74067" lon="5.5095">
        <ele>747</ele>
        <time>2019-09-25T17:17:58Z</time>
      </trkpt>
      <trkpt lat="44.74024" lon="5.50965">
        <ele>749</ele>
        <time>2019-09-25T17:18:08Z</time>
      </trkpt>
      <trkpt lat="44.74003" lon="5.50968">
        <ele>749</ele>
        <time>2019-09-25T17:18:13Z</time>
      </trkpt>
      <trkpt lat="44.73989" lon="5.50967">
        <ele>747</ele>
        <time>2019-09-25T17:18:16Z</time>
      </trkpt>
      <trkpt lat="44.73975" lon="5.50962">
        <ele>745</ele>
        <time>2019-09-25T17:18:20Z</time>
      </trkpt>
      <trkpt lat="44.73963" lon="5.50962">
        <ele>744</ele>
        <time>2019-09-25T17:18:22Z</time>
      </trkpt>
      <trkpt lat="44.73941" lon="5.50967">
        <ele>742</ele>
        <time>2019-09-25T17:18:28Z</time>
      </trkpt>
      <trkpt lat="44.73886" lon="5.51003">
        <ele>742</ele>
        <time>2019-09-25T17:18:42Z</time>
      </trkpt>
      <trkpt lat="44.73875" lon="5.51008">
        <ele>742</ele>
        <time>2019-09-25T17:18:44Z</time>
      </trkpt>
      <trkpt lat="44.7384" lon="5.51013">
        <ele>738</ele>
        <time>2019-09-25T17:18:53Z</time>
      </trkpt>
      <trkpt lat="44.73758" lon="5.5103">
        <ele>735</ele>
        <time>2019-09-25T17:19:12Z</time>
      </trkpt>
      <trkpt lat="44.73731" lon="5.51027">
        <ele>732</ele>
        <time>2019-09-25T17:19:18Z</time>
      </trkpt>
      <trkpt lat="44.73716" lon="5.51028">
        <ele>732</ele>
        <time>2019-09-25T17:19:22Z</time>
      </trkpt>
      <trkpt lat="44.73697" lon="5.51034">
        <ele>733</ele>
        <time>2019-09-25T17:19:26Z</time>
      </trkpt>
      <trkpt lat="44.73671" lon="5.51048">
        <ele>734</ele>
        <time>2019-09-25T17:19:33Z</time>
      </trkpt>
      <trkpt lat="44.73655" lon="5.51053">
        <ele>734</ele>
        <time>2019-09-25T17:19:37Z</time>
      </trkpt>
      <trkpt lat="44.73591" lon="5.51059">
        <ele>731</ele>
        <time>2019-09-25T17:19:52Z</time>
      </trkpt>
      <trkpt lat="44.73573" lon="5.51063">
        <ele>730</ele>
        <time>2019-09-25T17:19:56Z</time>
      </trkpt>
      <trkpt lat="44.73554" lon="5.5107">
        <ele>729</ele>
        <time>2019-09-25T17:20:01Z</time>
      </trkpt>
      <trkpt lat="44.73541" lon="5.51079">
        <ele>728</ele>
        <time>2019-09-25T17:20:04Z</time>
      </trkpt>
      <trkpt lat="44.73517" lon="5.51107">
        <ele>729</ele>
        <time>2019-09-25T17:20:11Z</time>
      </trkpt>
      <trkpt lat="44.73498" lon="5.51119">
        <ele>728</ele>
        <time>2019-09-25T17:20:16Z</time>
      </trkpt>
      <trkpt lat="44.73442" lon="5.51174">
        <ele>724</ele>
        <time>2019-09-25T17:20:32Z</time>
      </trkpt>
      <trkpt lat="44.73392" lon="5.512">
        <ele>721</ele>
        <time>2019-09-25T17:20:44Z</time>
      </trkpt>
      <trkpt lat="44.73377" lon="5.51212">
        <ele>720</ele>
        <time>2019-09-25T17:20:48Z</time>
      </trkpt>
      <trkpt lat="44.73364" lon="5.51226">
        <ele>719</ele>
        <time>2019-09-25T17:20:52Z</time>
      </trkpt>
      <trkpt lat="44.73356" lon="5.5124">
        <ele>718</ele>
        <time>2019-09-25T17:20:55Z</time>
      </trkpt>
      <trkpt lat="44.73338" lon="5.51294">
        <ele>719</ele>
        <time>2019-09-25T17:21:05Z</time>
      </trkpt>
      <trkpt lat="44.73141" lon="5.51504">
        <ele>706</ele>
        <time>2019-09-25T17:22:03Z</time>
      </trkpt>
      <trkpt lat="44.73113" lon="5.51572">
        <ele>710</ele>
        <time>2019-09-25T17:22:16Z</time>
      </trkpt>
      <trkpt lat="44.73002" lon="5.5174">
        <ele>700</ele>
        <time>2019-09-25T17:22:54Z</time>
      </trkpt>
      <trkpt lat="44.72997" lon="5.51773">
        <ele>711</ele>
        <time>2019-09-25T17:23:00Z</time>
      </trkpt>
      <trkpt lat="44.72958" lon="5.51801">
        <ele>713</ele>
        <time>2019-09-25T17:23:10Z</time>
      </trkpt>
      <trkpt lat="44.72884" lon="5.51806">
        <ele>699</ele>
        <time>2019-09-25T17:23:27Z</time>
      </trkpt>
      <trkpt lat="44.72848" lon="5.51831">
        <ele>693</ele>
        <time>2019-09-25T17:23:36Z</time>
      </trkpt>
      <trkpt lat="44.72831" lon="5.51856">
        <ele>697</ele>
        <time>2019-09-25T17:23:42Z</time>
      </trkpt>
      <trkpt lat="44.72783" lon="5.51904">
        <ele>698</ele>
        <time>2019-09-25T17:23:56Z</time>
      </trkpt>
      <trkpt lat="44.72738" lon="5.51941">
        <ele>691</ele>
        <time>2019-09-25T17:24:08Z</time>
      </trkpt>
      <trkpt lat="44.72719" lon="5.51966">
        <ele>692</ele>
        <time>2019-09-25T17:24:14Z</time>
      </trkpt>
      <trkpt lat="44.72709" lon="5.51996">
        <ele>692</ele>
        <time>2019-09-25T17:24:20Z</time>
      </trkpt>
      <trkpt lat="44.72697" lon="5.5208">
        <ele>692</ele>
        <time>2019-09-25T17:24:34Z</time>
      </trkpt>
      <trkpt lat="44.72699" lon="5.52137">
        <ele>692</ele>
        <time>2019-09-25T17:24:43Z</time>
      </trkpt>
      <trkpt lat="44.72704" lon="5.5216">
        <ele>694</ele>
        <time>2019-09-25T17:24:47Z</time>
      </trkpt>
      <trkpt lat="44.727" lon="5.52179">
        <ele>695</ele>
        <time>2019-09-25T17:24:51Z</time>
      </trkpt>
      <trkpt lat="44.7269" lon="5.52194">
        <ele>693</ele>
        <time>2019-09-25T17:24:54Z</time>
      </trkpt>
      <trkpt lat="44.72673" lon="5.52206">
        <ele>688</ele>
        <time>2019-09-25T17:24:59Z</time>
      </trkpt>
      <trkpt lat="44.72657" lon="5.52213">
        <ele>687</ele>
        <time>2019-09-25T17:25:02Z</time>
      </trkpt>
      <trkpt lat="44.72642" lon="5.52197">
        <ele>686</ele>
        <time>2019-09-25T17:25:07Z</time>
      </trkpt>
      <trkpt lat="44.72633" lon="5.52193">
        <ele>687</ele>
        <time>2019-09-25T17:25:09Z</time>
      </trkpt>
      <trkpt lat="44.7262" lon="5.52202">
        <ele>689</ele>
        <time>2019-09-25T17:25:12Z</time>
      </trkpt>
      <trkpt lat="44.72606" lon="5.52221">
        <ele>688</ele>
        <time>2019-09-25T17:25:17Z</time>
      </trkpt>
      <trkpt lat="44.7258" lon="5.52344">
        <ele>673</ele>
        <time>2019-09-25T17:25:38Z</time>
      </trkpt>
      <trkpt lat="44.72555" lon="5.52374">
        <ele>676</ele>
        <time>2019-09-25T17:25:46Z</time>
      </trkpt>
      <trkpt lat="44.72491" lon="5.52407">
        <ele>670</ele>
        <time>2019-09-25T17:26:02Z</time>
      </trkpt>
      <trkpt lat="44.72425" lon="5.52422">
        <ele>672</ele>
        <time>2019-09-25T17:26:17Z</time>
      </trkpt>
      <trkpt lat="44.72394" lon="5.52457">
        <ele>671</ele>
        <time>2019-09-25T17:26:27Z</time>
      </trkpt>
      <trkpt lat="44.72355" lon="5.52526">
        <ele>673</ele>
        <time>2019-09-25T17:26:41Z</time>
      </trkpt>
      <trkpt lat="44.72307" lon="5.52536">
        <ele>673</ele>
        <time>2019-09-25T17:26:53Z</time>
      </trkpt>
      <trkpt lat="44.72202" lon="5.52534">
        <ele>666</ele>
        <time>2019-09-25T17:27:17Z</time>
      </trkpt>
      <trkpt lat="44.72108" lon="5.52585">
        <ele>662</ele>
        <time>2019-09-25T17:27:41Z</time>
      </trkpt>
      <trkpt lat="44.72061" lon="5.52592">
        <ele>659</ele>
        <time>2019-09-25T17:27:52Z</time>
      </trkpt>
      <trkpt lat="44.72024" lon="5.52641">
        <ele>664</ele>
        <time>2019-09-25T17:28:04Z</time>
      </trkpt>
      <trkpt lat="44.7196" lon="5.52693">
        <ele>666</ele>
        <time>2019-09-25T17:28:21Z</time>
      </trkpt>
      <trkpt lat="44.71887" lon="5.52701">
        <ele>657</ele>
        <time>2019-09-25T17:28:38Z</time>
      </trkpt>
      <trkpt lat="44.71763" lon="5.528">
        <ele>661</ele>
        <time>2019-09-25T17:29:11Z</time>
      </trkpt>
      <trkpt lat="44.71711" lon="5.52837">
        <ele>657</ele>
        <time>2019-09-25T17:29:25Z</time>
      </trkpt>
      <trkpt lat="44.71619" lon="5.52874">
        <ele>651</ele>
        <time>2019-09-25T17:29:47Z</time>
      </trkpt>
      <trkpt lat="44.71609" lon="5.5288">
        <ele>650</ele>
        <time>2019-09-25T17:29:50Z</time>
      </trkpt>
      <trkpt lat="44.71569" lon="5.52923">
        <ele>645</ele>
        <time>2019-09-25T17:30:02Z</time>
      </trkpt>
      <trkpt lat="44.7154" lon="5.52919">
        <ele>642</ele>
        <time>2019-09-25T17:30:08Z</time>
      </trkpt>
      <trkpt lat="44.71532" lon="5.52888">
        <ele>641</ele>
        <time>2019-09-25T17:30:14Z</time>
      </trkpt>
      <trkpt lat="44.71516" lon="5.52837">
        <ele>642</ele>
        <time>2019-09-25T17:30:23Z</time>
      </trkpt>
      <trkpt lat="44.71518" lon="5.52818">
        <ele>649</ele>
      </trkpt>
      <trkpt lat="44.71486" lon="5.52832">
        <ele>644.5</ele>
      </trkpt>
      <trkpt lat="44.71482" lon="5.52828">
        <ele>645.3</ele>
      </trkpt>
      <trkpt lat="44.71478" lon="5.52825">
        <ele>646.5</ele>
      </trkpt>
      <trkpt lat="44.71473" lon="5.52825">
        <ele>646.4</ele>
      </trkpt>
      <trkpt lat="44.71469" lon="5.52825">
        <ele>646.4</ele>
      </trkpt>
      <trkpt lat="44.71464" lon="5.52824">
        <ele>646.3</ele>
      </trkpt>
      <trkpt lat="44.7146" lon="5.52821">
        <ele>647.7</ele>
      </trkpt>
      <trkpt lat="44.71455" lon="5.52821">
        <ele>647.7</ele>
      </trkpt>
      <trkpt lat="44.71451" lon="5.5282">
        <ele>647.6</ele>
      </trkpt>
      <trkpt lat="44.71446" lon="5.5282">
        <ele>648.1</ele>
      </trkpt>
      <trkpt lat="44.71442" lon="5.5282">
        <ele>648.1</ele>
      </trkpt>
      <trkpt lat="44.71437" lon="5.5282">
        <ele>648.1</ele>
      </trkpt>
      <trkpt lat="44.71433" lon="5.52819">
        <ele>648.1</ele>
      </trkpt>
      <trkpt lat="44.71428" lon="5.52819">
        <ele>648.1</ele>
      </trkpt>
      <trkpt lat="44.71424" lon="5.52819">
        <ele>648.6</ele>
      </trkpt>
      <trkpt lat="44.71419" lon="5.52819">
        <ele>648.6</ele>
      </trkpt>
      <trkpt lat="44.71415" lon="5.52818">
        <ele>648.6</ele>
      </trkpt>
      <trkpt lat="44.7141" lon="5.52818">
        <ele>648.7</ele>
      </trkpt>
      <trkpt lat="44.71406" lon="5.52818">
        <ele>648.8</ele>
      </trkpt>
      <trkpt lat="44.71401" lon="5.52818">
        <ele>649.5</ele>
      </trkpt>
      <trkpt lat="44.71397" lon="5.52817">
        <ele>649.6</ele>
      </trkpt>
      <trkpt lat="44.71392" lon="5.52817">
        <ele>649.8</ele>
      </trkpt>
      <trkpt lat="44.71388" lon="5.52817">
        <ele>649.9</ele>
      </trkpt>
      <trkpt lat="44.71383" lon="5.52817">
        <ele>650</ele>
      </trkpt>
      <trkpt lat="44.71379" lon="5.52816">
        <ele>650.7</ele>
      </trkpt>
      <trkpt lat="44.71374" lon="5.52816">
        <ele>650.8</ele>
      </trkpt>
      <trkpt lat="44.7137" lon="5.52816">
        <ele>650.9</ele>
      </trkpt>
      <trkpt lat="44.71365" lon="5.52816">
        <ele>651</ele>
      </trkpt>
      <trkpt lat="44.71361" lon="5.52815">
        <ele>651.1</ele>
      </trkpt>
      <trkpt lat="44.71357" lon="5.52812">
        <ele>652.9</ele>
      </trkpt>
      <trkpt lat="44.71352" lon="5.52808">
        <ele>654.2</ele>
      </trkpt>
      <trkpt lat="44.71348" lon="5.52808">
        <ele>654.9</ele>
      </trkpt>
      <trkpt lat="44.71343" lon="5.52808">
        <ele>655</ele>
      </trkpt>
      <trkpt lat="44.71339" lon="5.52808">
        <ele>655.1</ele>
      </trkpt>
      <trkpt lat="44.71334" lon="5.52807">
        <ele>655.2</ele>
      </trkpt>
      <trkpt lat="44.71314" lon="5.52816">
        <ele>653.3</ele>
      </trkpt>
      <trkpt lat="44.71302" lon="5.52815">
        <ele>654.1</ele>
      </trkpt>
      <trkpt lat="44.71295" lon="5.52821">
        <ele>652.2</ele>
      </trkpt>
      <trkpt lat="44.71286" lon="5.52827">
        <ele>649.9</ele>
      </trkpt>
      <trkpt lat="44.71277" lon="5.52833">
        <ele>648</ele>
      </trkpt>
      <trkpt lat="44.7127" lon="5.52838">
        <ele>647</ele>
      </trkpt>
      <trkpt lat="44.71261" lon="5.52844">
        <ele>646.7</ele>
      </trkpt>
      <trkpt lat="44.71252" lon="5.52847">
        <ele>646.7</ele>
      </trkpt>
      <trkpt lat="44.71243" lon="5.5285">
        <ele>646.9</ele>
      </trkpt>
      <trkpt lat="44.71234" lon="5.52849">
        <ele>647.6</ele>
      </trkpt>
      <trkpt lat="44.71225" lon="5.52849">
        <ele>648.5</ele>
      </trkpt>
      <trkpt lat="44.71216" lon="5.52848">
        <ele>649.2</ele>
      </trkpt>
      <trkpt lat="44.71207" lon="5.52848">
        <ele>649.8</ele>
      </trkpt>
      <trkpt lat="44.71198" lon="5.52847">
        <ele>650.8</ele>
      </trkpt>
      <trkpt lat="44.71189" lon="5.5285">
        <ele>651</ele>
      </trkpt>
      <trkpt lat="44.71182" lon="5.52852">
        <ele>650.9</ele>
      </trkpt>
      <trkpt lat="44.71173" lon="5.52852">
        <ele>651.6</ele>
      </trkpt>
      <trkpt lat="44.71164" lon="5.52851">
        <ele>652.5</ele>
      </trkpt>
      <trkpt lat="44.71155" lon="5.52851">
        <ele>653</ele>
      </trkpt>
      <trkpt lat="44.71146" lon="5.5285">
        <ele>653.5</ele>
      </trkpt>
      <trkpt lat="44.71137" lon="5.5285">
        <ele>654.4</ele>
      </trkpt>
      <trkpt lat="44.71128" lon="5.52849">
        <ele>654.9</ele>
      </trkpt>
      <trkpt lat="44.71119" lon="5.52852">
        <ele>654.7</ele>
      </trkpt>
      <trkpt lat="44.7111" lon="5.52851">
        <ele>655.2</ele>
      </trkpt>
      <trkpt lat="44.71101" lon="5.52851">
        <ele>656.1</ele>
      </trkpt>
      <trkpt lat="44.71092" lon="5.5285">
        <ele>656.6</ele>
      </trkpt>
      <trkpt lat="44.71083" lon="5.5285">
        <ele>657.6</ele>
      </trkpt>
      <trkpt lat="44.71072" lon="5.52849">
        <ele>657.1</ele>
      </trkpt>
      <trkpt lat="44.71063" lon="5.52849">
        <ele>657.1</ele>
      </trkpt>
      <trkpt lat="44.71054" lon="5.52848">
        <ele>656.7</ele>
      </trkpt>
      <trkpt lat="44.71045" lon="5.52848">
        <ele>656.3</ele>
      </trkpt>
      <trkpt lat="44.71036" lon="5.52847">
        <ele>656.4</ele>
      </trkpt>
      <trkpt lat="44.71027" lon="5.52844">
        <ele>657.3</ele>
      </trkpt>
      <trkpt lat="44.71018" lon="5.52843">
        <ele>656.9</ele>
      </trkpt>
      <trkpt lat="44.71009" lon="5.52843">
        <ele>656.5</ele>
      </trkpt>
      <trkpt lat="44.71002" lon="5.52839">
        <ele>657.4</ele>
      </trkpt>
      <trkpt lat="44.70994" lon="5.52835">
        <ele>657.1</ele>
      </trkpt>
      <trkpt lat="44.70987" lon="5.52832">
        <ele>657.4</ele>
      </trkpt>
      <trkpt lat="44.7098" lon="5.52828">
        <ele>657.2</ele>
      </trkpt>
      <trkpt lat="44.70974" lon="5.52825">
        <ele>657.8</ele>
      </trkpt>
      <trkpt lat="44.70965" lon="5.52821">
        <ele>657.8</ele>
      </trkpt>
      <trkpt lat="44.70956" lon="5.52814">
        <ele>659</ele>
      </trkpt>
      <trkpt lat="44.70947" lon="5.52811">
        <ele>658.8</ele>
      </trkpt>
      <trkpt lat="44.70938" lon="5.52804">
        <ele>660</ele>
      </trkpt>
      <trkpt lat="44.70929" lon="5.52794">
        <ele>663</ele>
      </trkpt>
      <trkpt lat="44.70921" lon="5.5279">
        <ele>662.8</ele>
      </trkpt>
      <trkpt lat="44.70912" lon="5.52783">
        <ele>663.8</ele>
      </trkpt>
      <trkpt lat="44.70903" lon="5.52777">
        <ele>664.7</ele>
      </trkpt>
      <trkpt lat="44.70894" lon="5.52773">
        <ele>664.1</ele>
      </trkpt>
      <trkpt lat="44.70885" lon="5.52772">
        <ele>661.7</ele>
      </trkpt>
      <trkpt lat="44.70874" lon="5.52772">
        <ele>659.2</ele>
      </trkpt>
      <trkpt lat="44.70865" lon="5.52778">
        <ele>654.4</ele>
      </trkpt>
      <trkpt lat="44.70856" lon="5.52777">
        <ele>652.6</ele>
      </trkpt>
      <trkpt lat="44.70847" lon="5.52773">
        <ele>651</ele>
      </trkpt>
      <trkpt lat="44.70838" lon="5.5277">
        <ele>649.9</ele>
      </trkpt>
      <trkpt lat="44.70831" lon="5.52766">
        <ele>649.5</ele>
      </trkpt>
      <trkpt lat="44.70822" lon="5.52766">
        <ele>648.4</ele>
      </trkpt>
      <trkpt lat="44.70811" lon="5.52765">
        <ele>647.4</ele>
      </trkpt>
      <trkpt lat="44.70802" lon="5.52764">
        <ele>646.3</ele>
      </trkpt>
      <trkpt lat="44.70791" lon="5.52764">
        <ele>645.2</ele>
      </trkpt>
      <trkpt lat="44.70782" lon="5.52763">
        <ele>644.1</ele>
      </trkpt>
      <trkpt lat="44.70773" lon="5.52763">
        <ele>643.2</ele>
      </trkpt>
      <trkpt lat="44.70764" lon="5.52762">
        <ele>642.1</ele>
      </trkpt>
      <trkpt lat="44.70757" lon="5.52759">
        <ele>641.8</ele>
      </trkpt>
      <trkpt lat="44.70748" lon="5.52755">
        <ele>641.2</ele>
      </trkpt>
      <trkpt lat="44.70742" lon="5.52752">
        <ele>641.5</ele>
      </trkpt>
      <trkpt lat="44.70733" lon="5.52745">
        <ele>643.8</ele>
      </trkpt>
      <trkpt lat="44.70724" lon="5.52744">
        <ele>644.1</ele>
      </trkpt>
      <trkpt lat="44.70717" lon="5.52741">
        <ele>645.1</ele>
      </trkpt>
      <trkpt lat="44.70708" lon="5.5274">
        <ele>645.4</ele>
      </trkpt>
      <trkpt lat="44.70702" lon="5.52737">
        <ele>647.1</ele>
      </trkpt>
      <trkpt lat="44.7069" lon="5.52733">
        <ele>648.7</ele>
      </trkpt>
      <trkpt lat="44.70682" lon="5.52729">
        <ele>649.8</ele>
      </trkpt>
      <trkpt lat="44.70673" lon="5.52726">
        <ele>651.6</ele>
      </trkpt>
      <trkpt lat="44.70664" lon="5.52725">
        <ele>651.8</ele>
      </trkpt>
      <trkpt lat="44.70655" lon="5.52725">
        <ele>651</ele>
      </trkpt>
      <trkpt lat="44.70646" lon="5.52724">
        <ele>650.1</ele>
      </trkpt>
      <trkpt lat="44.70637" lon="5.52724">
        <ele>649.9</ele>
      </trkpt>
      <trkpt lat="44.70628" lon="5.52723">
        <ele>649.1</ele>
      </trkpt>
      <trkpt lat="44.70621" lon="5.52726">
        <ele>647</ele>
      </trkpt>
      <trkpt lat="44.70614" lon="5.52729">
        <ele>645</ele>
      </trkpt>
      <trkpt lat="44.70607" lon="5.52738">
        <ele>639.5</ele>
      </trkpt>
      <trkpt lat="44.70598" lon="5.52747">
        <ele>633.6</ele>
      </trkpt>
      <trkpt lat="44.70591" lon="5.52749">
        <ele>631.5</ele>
      </trkpt>
      <trkpt lat="44.70584" lon="5.52755">
        <ele>629.8</ele>
      </trkpt>
      <trkpt lat="44.70575" lon="5.52755">
        <ele>630.4</ele>
      </trkpt>
      <trkpt lat="44.70568" lon="5.52757">
        <ele>630.7</ele>
      </trkpt>
      <trkpt lat="44.70559" lon="5.52757">
        <ele>631.2</ele>
      </trkpt>
      <trkpt lat="44.7055" lon="5.52756">
        <ele>631.8</ele>
      </trkpt>
      <trkpt lat="44.70543" lon="5.52759">
        <ele>632</ele>
      </trkpt>
      <trkpt lat="44.70534" lon="5.52762">
        <ele>632.3</ele>
      </trkpt>
      <trkpt lat="44.70525" lon="5.52761">
        <ele>633</ele>
      </trkpt>
      <trkpt lat="44.70516" lon="5.52767">
        <ele>632.7</ele>
      </trkpt>
      <trkpt lat="44.70507" lon="5.52767">
        <ele>633.4</ele>
      </trkpt>
      <trkpt lat="44.70498" lon="5.52766">
        <ele>633.7</ele>
      </trkpt>
      <trkpt lat="44.70489" lon="5.52766">
        <ele>633.4</ele>
      </trkpt>
      <trkpt lat="44.7048" lon="5.52762">
        <ele>633.7</ele>
      </trkpt>
      <trkpt lat="44.70471" lon="5.52758">
        <ele>634.1</ele>
      </trkpt>
      <trkpt lat="44.7046" lon="5.52758">
        <ele>634</ele>
      </trkpt>
      <trkpt lat="44.70451" lon="5.52754">
        <ele>634.2</ele>
      </trkpt>
      <trkpt lat="44.70442" lon="5.5275">
        <ele>634.6</ele>
      </trkpt>
      <trkpt lat="44.70436" lon="5.52747">
        <ele>636.3</ele>
      </trkpt>
      <trkpt lat="44.70429" lon="5.52743">
        <ele>638</ele>
      </trkpt>
      <trkpt lat="44.7042" lon="5.5274">
        <ele>638.9</ele>
      </trkpt>
      <trkpt lat="44.70411" lon="5.52733">
        <ele>641.7</ele>
      </trkpt>
      <trkpt lat="44.70405" lon="5.52729">
        <ele>642</ele>
      </trkpt>
      <trkpt lat="44.70396" lon="5.52726">
        <ele>642.3</ele>
      </trkpt>
      <trkpt lat="44.70385" lon="5.52725">
        <ele>641.3</ele>
      </trkpt>
      <trkpt lat="44.70376" lon="5.52721">
        <ele>640.9</ele>
      </trkpt>
      <trkpt lat="44.70367" lon="5.52718">
        <ele>640.9</ele>
      </trkpt>
      <trkpt lat="44.7036" lon="5.52714">
        <ele>641.2</ele>
      </trkpt>
      <trkpt lat="44.70354" lon="5.52711">
        <ele>641.2</ele>
      </trkpt>
      <trkpt lat="44.70345" lon="5.52707">
        <ele>640.8</ele>
      </trkpt>
      <trkpt lat="44.70338" lon="5.52703">
        <ele>640.2</ele>
      </trkpt>
      <trkpt lat="44.70329" lon="5.52697">
        <ele>640.7</ele>
      </trkpt>
      <trkpt lat="44.70323" lon="5.5269">
        <ele>642.1</ele>
      </trkpt>
      <trkpt lat="44.70314" lon="5.52683">
        <ele>642.9</ele>
      </trkpt>
      <trkpt lat="44.70305" lon="5.52679">
        <ele>642.9</ele>
      </trkpt>
      <trkpt lat="44.70294" lon="5.52679">
        <ele>641.7</ele>
      </trkpt>
      <trkpt lat="44.70285" lon="5.52678">
        <ele>640.7</ele>
      </trkpt>
      <trkpt lat="44.70271" lon="5.52677">
        <ele>639.5</ele>
      </trkpt>
      <trkpt lat="44.7026" lon="5.52677">
        <ele>638.6</ele>
      </trkpt>
      <trkpt lat="44.70249" lon="5.52673">
        <ele>637.8</ele>
      </trkpt>
      <trkpt lat="44.7024" lon="5.52669">
        <ele>637.1</ele>
      </trkpt>
      <trkpt lat="44.70229" lon="5.52666">
        <ele>636.2</ele>
      </trkpt>
      <trkpt lat="44.70222" lon="5.52662">
        <ele>636.1</ele>
      </trkpt>
      <trkpt lat="44.70216" lon="5.52655">
        <ele>636.6</ele>
      </trkpt>
      <trkpt lat="44.70209" lon="5.52652">
        <ele>636.4</ele>
      </trkpt>
      <trkpt lat="44.70202" lon="5.52645">
        <ele>636.7</ele>
      </trkpt>
      <trkpt lat="44.70194" lon="5.52641">
        <ele>636.2</ele>
      </trkpt>
      <trkpt lat="44.70189" lon="5.52632">
        <ele>637.4</ele>
      </trkpt>
      <trkpt lat="44.7018" lon="5.52625">
        <ele>637.2</ele>
      </trkpt>
      <trkpt lat="44.70172" lon="5.52618">
        <ele>637.3</ele>
      </trkpt>
      <trkpt lat="44.70163" lon="5.52615">
        <ele>636.6</ele>
      </trkpt>
      <trkpt lat="44.70154" lon="5.52608">
        <ele>637.2</ele>
      </trkpt>
      <trkpt lat="44.70148" lon="5.52598">
        <ele>638.2</ele>
      </trkpt>
      <trkpt lat="44.70139" lon="5.52591">
        <ele>638.5</ele>
      </trkpt>
      <trkpt lat="44.7013" lon="5.52584">
        <ele>639</ele>
      </trkpt>
      <trkpt lat="44.70123" lon="5.52581">
        <ele>639.2</ele>
      </trkpt>
      <trkpt lat="44.70114" lon="5.52574">
        <ele>640.9</ele>
      </trkpt>
      <trkpt lat="44.70106" lon="5.52567">
        <ele>642.1</ele>
      </trkpt>
      <trkpt lat="44.70097" lon="5.52563">
        <ele>642.3</ele>
      </trkpt>
      <trkpt lat="44.7009" lon="5.52557">
        <ele>643.7</ele>
      </trkpt>
      <trkpt lat="44.70081" lon="5.52556">
        <ele>642.5</ele>
      </trkpt>
      <trkpt lat="44.70075" lon="5.5255">
        <ele>643.4</ele>
      </trkpt>
      <trkpt lat="44.69979" lon="5.52446">
        <ele>652.7</ele>
      </trkpt>
      <trkpt lat="44.6997" lon="5.52439">
        <ele>652</ele>
      </trkpt>
      <trkpt lat="44.69961" lon="5.52433">
        <ele>651.1</ele>
      </trkpt>
      <trkpt lat="44.69954" lon="5.52426">
        <ele>650.9</ele>
      </trkpt>
      <trkpt lat="44.69948" lon="5.52416">
        <ele>652</ele>
      </trkpt>
      <trkpt lat="44.69941" lon="5.52413">
        <ele>651.2</ele>
      </trkpt>
      <trkpt lat="44.69933" lon="5.52406">
        <ele>650.7</ele>
      </trkpt>
      <trkpt lat="44.69924" lon="5.52396">
        <ele>651.3</ele>
      </trkpt>
      <trkpt lat="44.69917" lon="5.52392">
        <ele>650.7</ele>
      </trkpt>
      <trkpt lat="44.69911" lon="5.52389">
        <ele>650.5</ele>
      </trkpt>
      <trkpt lat="44.69904" lon="5.52382">
        <ele>651.4</ele>
      </trkpt>
      <trkpt lat="44.69897" lon="5.52375">
        <ele>652.2</ele>
      </trkpt>
      <trkpt lat="44.69889" lon="5.52365">
        <ele>653.7</ele>
      </trkpt>
      <trkpt lat="44.6988" lon="5.52362">
        <ele>652.8</ele>
      </trkpt>
      <trkpt lat="44.69869" lon="5.52355">
        <ele>652.1</ele>
      </trkpt>
      <trkpt lat="44.69858" lon="5.52345">
        <ele>652.6</ele>
      </trkpt>
      <trkpt lat="44.69849" lon="5.52338">
        <ele>652.2</ele>
      </trkpt>
      <trkpt lat="44.6984" lon="5.52331">
        <ele>651.6</ele>
      </trkpt>
      <trkpt lat="44.69831" lon="5.52327">
        <ele>649.7</ele>
      </trkpt>
      <trkpt lat="44.69822" lon="5.52321">
        <ele>648.2</ele>
      </trkpt>
      <trkpt lat="44.69814" lon="5.52317">
        <ele>645.9</ele>
      </trkpt>
      <trkpt lat="44.69805" lon="5.5231">
        <ele>644.5</ele>
      </trkpt>
      <trkpt lat="44.69798" lon="5.52307">
        <ele>643.2</ele>
      </trkpt>
      <trkpt lat="44.69792" lon="5.52303">
        <ele>642</ele>
      </trkpt>
      <trkpt lat="44.69783" lon="5.52299">
        <ele>639.6</ele>
      </trkpt>
      <trkpt lat="44.69771" lon="5.52299">
        <ele>636.3</ele>
      </trkpt>
      <trkpt lat="44.69762" lon="5.52298">
        <ele>633.3</ele>
      </trkpt>
      <trkpt lat="44.69751" lon="5.52298">
        <ele>630.1</ele>
      </trkpt>
      <trkpt lat="44.6974" lon="5.52297">
        <ele>628.9</ele>
      </trkpt>
      <trkpt lat="44.69731" lon="5.52297">
        <ele>628.7</ele>
      </trkpt>
      <trkpt lat="44.69722" lon="5.52296">
        <ele>628.1</ele>
      </trkpt>
      <trkpt lat="44.69713" lon="5.52295">
        <ele>627.5</ele>
      </trkpt>
      <trkpt lat="44.69704" lon="5.52295">
        <ele>627.4</ele>
      </trkpt>
      <trkpt lat="44.69695" lon="5.52294">
        <ele>626.8</ele>
      </trkpt>
      <trkpt lat="44.69686" lon="5.52294">
        <ele>626.7</ele>
      </trkpt>
      <trkpt lat="44.69677" lon="5.52297">
        <ele>625.1</ele>
      </trkpt>
      <trkpt lat="44.69668" lon="5.52296">
        <ele>624.5</ele>
      </trkpt>
      <trkpt lat="44.69659" lon="5.52302">
        <ele>621.9</ele>
      </trkpt>
      <trkpt lat="44.6965" lon="5.52298">
        <ele>622.4</ele>
      </trkpt>
      <trkpt lat="44.69641" lon="5.52288">
        <ele>625.8</ele>
      </trkpt>
      <trkpt lat="44.69632" lon="5.52281">
        <ele>627.5</ele>
      </trkpt>
      <trkpt lat="44.69623" lon="5.52278">
        <ele>628.2</ele>
      </trkpt>
      <trkpt lat="44.69612" lon="5.52277">
        <ele>627.7</ele>
      </trkpt>
      <trkpt lat="44.69603" lon="5.5228">
        <ele>626.1</ele>
      </trkpt>
      <trkpt lat="44.69596" lon="5.52283">
        <ele>624.2</ele>
      </trkpt>
      <trkpt lat="44.69589" lon="5.52288">
        <ele>622.1</ele>
      </trkpt>
      <trkpt lat="44.6958" lon="5.52291">
        <ele>620.7</ele>
      </trkpt>
      <trkpt lat="44.69571" lon="5.52291">
        <ele>620.1</ele>
      </trkpt>
      <trkpt lat="44.69562" lon="5.5229">
        <ele>619.8</ele>
      </trkpt>
      <trkpt lat="44.69556" lon="5.52287">
        <ele>620</ele>
      </trkpt>
      <trkpt lat="44.69547" lon="5.52283">
        <ele>620.2</ele>
      </trkpt>
      <trkpt lat="44.6954" lon="5.52279">
        <ele>620.5</ele>
      </trkpt>
      <trkpt lat="44.69531" lon="5.52276">
        <ele>620.5</ele>
      </trkpt>
      <trkpt lat="44.69525" lon="5.52272">
        <ele>620.3</ele>
      </trkpt>
      <trkpt lat="44.69516" lon="5.52272">
        <ele>619.6</ele>
      </trkpt>
      <trkpt lat="44.69507" lon="5.52265">
        <ele>619.7</ele>
      </trkpt>
      <trkpt lat="44.695" lon="5.52261">
        <ele>619.5</ele>
      </trkpt>
      <trkpt lat="44.69496" lon="5.52252">
        <ele>620.4</ele>
      </trkpt>
      <trkpt lat="44.69489" lon="5.52245">
        <ele>621.3</ele>
      </trkpt>
      <trkpt lat="44.69483" lon="5.52238">
        <ele>622.4</ele>
      </trkpt>
      <trkpt lat="44.69476" lon="5.52232">
        <ele>623.9</ele>
      </trkpt>
      <trkpt lat="44.6947" lon="5.52225">
        <ele>625</ele>
      </trkpt>
      <trkpt lat="44.69463" lon="5.52218">
        <ele>626</ele>
      </trkpt>
      <trkpt lat="44.69459" lon="5.52208">
        <ele>628.1</ele>
      </trkpt>
      <trkpt lat="44.69452" lon="5.52205">
        <ele>628.3</ele>
      </trkpt>
      <trkpt lat="44.69444" lon="5.52195">
        <ele>630.1</ele>
      </trkpt>
      <trkpt lat="44.69437" lon="5.52191">
        <ele>629.9</ele>
      </trkpt>
      <trkpt lat="44.69428" lon="5.52188">
        <ele>629.8</ele>
      </trkpt>
      <trkpt lat="44.69421" lon="5.52184">
        <ele>630</ele>
      </trkpt>
      <trkpt lat="44.69412" lon="5.52184">
        <ele>628.8</ele>
      </trkpt>
      <trkpt lat="44.69403" lon="5.52183">
        <ele>628.1</ele>
      </trkpt>
      <trkpt lat="44.69394" lon="5.52183">
        <ele>626.9</ele>
      </trkpt>
      <trkpt lat="44.69387" lon="5.52189">
        <ele>624.6</ele>
      </trkpt>
      <trkpt lat="44.6938" lon="5.52198">
        <ele>621.4</ele>
      </trkpt>
      <trkpt lat="44.69372" lon="5.52197">
        <ele>620.4</ele>
      </trkpt>
      <trkpt lat="44.69363" lon="5.52197">
        <ele>619.3</ele>
      </trkpt>
      <trkpt lat="44.69354" lon="5.52196">
        <ele>618.5</ele>
      </trkpt>
      <trkpt lat="44.69347" lon="5.52193">
        <ele>618.4</ele>
      </trkpt>
      <trkpt lat="44.6934" lon="5.52183">
        <ele>620.1</ele>
      </trkpt>
      <trkpt lat="44.69334" lon="5.52173">
        <ele>621.8</ele>
      </trkpt>
      <trkpt lat="44.69328" lon="5.5216">
        <ele>625.1</ele>
      </trkpt>
      <trkpt lat="44.69321" lon="5.52153">
        <ele>627.6</ele>
      </trkpt>
      <trkpt lat="44.69317" lon="5.52144">
        <ele>630.8</ele>
      </trkpt>
      <trkpt lat="44.6931" lon="5.52137">
        <ele>632.4</ele>
      </trkpt>
      <trkpt lat="44.69304" lon="5.52127">
        <ele>635.4</ele>
      </trkpt>
      <trkpt lat="44.69297" lon="5.52114">
        <ele>639.2</ele>
      </trkpt>
      <trkpt lat="44.69291" lon="5.52107">
        <ele>640.2</ele>
      </trkpt>
      <trkpt lat="44.69282" lon="5.52097">
        <ele>641.8</ele>
      </trkpt>
      <trkpt lat="44.69273" lon="5.52091">
        <ele>641.7</ele>
      </trkpt>
      <trkpt lat="44.69265" lon="5.52084">
        <ele>641.4</ele>
      </trkpt>
      <trkpt lat="44.69256" lon="5.52077">
        <ele>641.5</ele>
      </trkpt>
      <trkpt lat="44.69247" lon="5.52073">
        <ele>640</ele>
      </trkpt>
      <trkpt lat="44.69238" lon="5.52067">
        <ele>639.1</ele>
      </trkpt>
      <trkpt lat="44.69229" lon="5.52063">
        <ele>637.1</ele>
      </trkpt>
      <trkpt lat="44.69222" lon="5.52059">
        <ele>635.9</ele>
      </trkpt>
      <trkpt lat="44.69214" lon="5.52053">
        <ele>634.6</ele>
      </trkpt>
      <trkpt lat="44.69205" lon="5.52046">
        <ele>633.3</ele>
      </trkpt>
      <trkpt lat="44.69196" lon="5.52042">
        <ele>631</ele>
      </trkpt>
      <trkpt lat="44.69189" lon="5.52039">
        <ele>629.6</ele>
      </trkpt>
      <trkpt lat="44.69183" lon="5.52035">
        <ele>627.5</ele>
      </trkpt>
      <trkpt lat="44.69174" lon="5.52028">
        <ele>626.3</ele>
      </trkpt>
      <trkpt lat="44.69167" lon="5.52018">
        <ele>626.4</ele>
      </trkpt>
      <trkpt lat="44.69161" lon="5.52015">
        <ele>625.9</ele>
      </trkpt>
      <trkpt lat="44.69154" lon="5.52008">
        <ele>626.2</ele>
      </trkpt>
      <trkpt lat="44.69145" lon="5.52001">
        <ele>625.6</ele>
      </trkpt>
      <trkpt lat="44.69139" lon="5.51992">
        <ele>627.9</ele>
      </trkpt>
      <trkpt lat="44.69137" lon="5.51982">
        <ele>631.2</ele>
      </trkpt>
      <trkpt lat="44.69135" lon="5.51972">
        <ele>635.1</ele>
      </trkpt>
      <trkpt lat="44.69126" lon="5.51966">
        <ele>635.3</ele>
      </trkpt>
      <trkpt lat="44.69117" lon="5.51962">
        <ele>634.4</ele>
      </trkpt>
      <trkpt lat="44.69108" lon="5.51958">
        <ele>633.1</ele>
      </trkpt>
      <trkpt lat="44.69099" lon="5.51955">
        <ele>632.3</ele>
      </trkpt>
      <trkpt lat="44.6909" lon="5.51954">
        <ele>630.3</ele>
      </trkpt>
      <trkpt lat="44.69082" lon="5.51954">
        <ele>627.9</ele>
      </trkpt>
      <trkpt lat="44.69073" lon="5.51953">
        <ele>626.1</ele>
      </trkpt>
      <trkpt lat="44.69064" lon="5.51953">
        <ele>624.7</ele>
      </trkpt>
      <trkpt lat="44.69055" lon="5.51952">
        <ele>622.9</ele>
      </trkpt>
      <trkpt lat="44.69048" lon="5.51949">
        <ele>622.8</ele>
      </trkpt>
      <trkpt lat="44.69039" lon="5.51942">
        <ele>623.1</ele>
      </trkpt>
      <trkpt lat="44.6903" lon="5.51935">
        <ele>623.1</ele>
      </trkpt>
      <trkpt lat="44.69024" lon="5.51931">
        <ele>622.6</ele>
      </trkpt>
      <trkpt lat="44.69017" lon="5.51925">
        <ele>622.8</ele>
      </trkpt>
      <trkpt lat="44.69008" lon="5.51921">
        <ele>621.3</ele>
      </trkpt>
      <trkpt lat="44.68997" lon="5.51917">
        <ele>619.7</ele>
      </trkpt>
      <trkpt lat="44.68988" lon="5.5191">
        <ele>622.5</ele>
      </trkpt>
      <trkpt lat="44.68979" lon="5.51907">
        <ele>623.7</ele>
      </trkpt>
      <trkpt lat="44.68973" lon="5.519">
        <ele>626.5</ele>
      </trkpt>
      <trkpt lat="44.68964" lon="5.51896">
        <ele>627.5</ele>
      </trkpt>
      <trkpt lat="44.68957" lon="5.51893">
        <ele>628.7</ele>
      </trkpt>
      <trkpt lat="44.68948" lon="5.51889">
        <ele>628.8</ele>
      </trkpt>
      <trkpt lat="44.68942" lon="5.51886">
        <ele>629.8</ele>
      </trkpt>
      <trkpt lat="44.68935" lon="5.51879">
        <ele>632.1</ele>
      </trkpt>
      <trkpt lat="44.68926" lon="5.51869">
        <ele>635.9</ele>
      </trkpt>
      <trkpt lat="44.68918" lon="5.51859">
        <ele>639.3</ele>
      </trkpt>
      <trkpt lat="44.68911" lon="5.51849">
        <ele>641.9</ele>
      </trkpt>
      <trkpt lat="44.68905" lon="5.51843">
        <ele>642.8</ele>
      </trkpt>
      <trkpt lat="44.68898" lon="5.51833">
        <ele>645.5</ele>
      </trkpt>
      <trkpt lat="44.68889" lon="5.51826">
        <ele>645.4</ele>
      </trkpt>
      <trkpt lat="44.68883" lon="5.51822">
        <ele>644.8</ele>
      </trkpt>
      <trkpt lat="44.68876" lon="5.51819">
        <ele>644.1</ele>
      </trkpt>
      <trkpt lat="44.68872" lon="5.51809">
        <ele>646.3</ele>
      </trkpt>
      <trkpt lat="44.68865" lon="5.51799">
        <ele>647.7</ele>
      </trkpt>
      <trkpt lat="44.68863" lon="5.5179">
        <ele>651.2</ele>
      </trkpt>
      <trkpt lat="44.68857" lon="5.51783">
        <ele>651.2</ele>
      </trkpt>
      <trkpt lat="44.68853" lon="5.51773">
        <ele>652.8</ele>
      </trkpt>
      <trkpt lat="44.68849" lon="5.51761">
        <ele>656.2</ele>
      </trkpt>
      <trkpt lat="44.68842" lon="5.51751">
        <ele>657.1</ele>
      </trkpt>
      <trkpt lat="44.68836" lon="5.51744">
        <ele>656.4</ele>
      </trkpt>
      <trkpt lat="44.68829" lon="5.51741">
        <ele>654.1</ele>
      </trkpt>
      <trkpt lat="44.6882" lon="5.51731">
        <ele>652.1</ele>
      </trkpt>
      <trkpt lat="44.68811" lon="5.51724">
        <ele>649.1</ele>
      </trkpt>
      <trkpt lat="44.68805" lon="5.51714">
        <ele>647.6</ele>
      </trkpt>
      <trkpt lat="44.68803" lon="5.51704">
        <ele>649</ele>
      </trkpt>
      <trkpt lat="44.68799" lon="5.51695">
        <ele>649</ele>
      </trkpt>
      <trkpt lat="44.68797" lon="5.51685">
        <ele>650.1</ele>
      </trkpt>
      <trkpt lat="44.68795" lon="5.51675">
        <ele>651.4</ele>
      </trkpt>
      <trkpt lat="44.68791" lon="5.51663">
        <ele>650.3</ele>
      </trkpt>
      <trkpt lat="44.68786" lon="5.5165">
        <ele>647.4</ele>
      </trkpt>
      <trkpt lat="44.68786" lon="5.51662">
        <ele>646.9</ele>
      </trkpt>
      <trkpt lat="44.6879" lon="5.51675">
        <ele>648</ele>
      </trkpt>
      <trkpt lat="44.6879" lon="5.51688">
        <ele>644.5</ele>
      </trkpt>
      <trkpt lat="44.6879" lon="5.517">
        <ele>640.9</ele>
      </trkpt>
      <trkpt lat="44.68789" lon="5.51716">
        <ele>636.5</ele>
      </trkpt>
      <trkpt lat="44.68789" lon="5.51729">
        <ele>633.4</ele>
      </trkpt>
      <trkpt lat="44.68786" lon="5.51741">
        <ele>628.6</ele>
      </trkpt>
      <trkpt lat="44.68781" lon="5.51754">
        <ele>623.1</ele>
      </trkpt>
      <trkpt lat="44.68774" lon="5.51763">
        <ele>617.7</ele>
      </trkpt>
      <trkpt lat="44.68767" lon="5.51772">
        <ele>612.6</ele>
      </trkpt>
      <trkpt lat="44.68758" lon="5.51781">
        <ele>606.9</ele>
      </trkpt>
      <trkpt lat="44.68751" lon="5.51793">
        <ele>602.3</ele>
      </trkpt>
      <trkpt lat="44.68742" lon="5.51802">
        <ele>600.7</ele>
      </trkpt>
      <trkpt lat="44.68732" lon="5.51808">
        <ele>599.9</ele>
      </trkpt>
      <trkpt lat="44.68725" lon="5.51813">
        <ele>599.3</ele>
      </trkpt>
      <trkpt lat="44.68716" lon="5.51819">
        <ele>598.9</ele>
      </trkpt>
      <trkpt lat="44.68707" lon="5.51825">
        <ele>598.7</ele>
      </trkpt>
      <trkpt lat="44.687" lon="5.51828">
        <ele>598.6</ele>
      </trkpt>
    </trkseg>
  </trk>
</gpx>